[[{"header":{"parameterUnit":"m.s-1","parameterCategory":1,"la1":30.6,"la2":28.766,"lo1":-90.7593,"lo2":-88.6598,"dy":0.0162,"dx":0.0183,"nx":116,"ny":114,"refTime":"2023-04-20T06:00:00:Z","depth":0,"parameterNumber":2,"parameterNumberName":"U-component_of_WINDS"},"data":[0.0,0.0,0.0,0.0,0.0,0.0,0.0,0.0,0.0,0.0,0.0,0.0,0.0,0.0,0.0,0.0,0.0,0.0,0.0,0.0,0.0,0.0,0.0,0.0,0.0,0.0,0.0,0.0,0.0,0.0,0.0,0.0,0.0,0.0,0.0,0.0,0.0,0.0,0.0,0.0,0.0,0.0,0.0,0.0,0.0,0.0,0.0,0.0,0.0,0.0,0.0,0.0,0.0,0.0,0.0,0.0,0.0,0.0,0.0,0.0,0.0,0.0,0.0,0.0,0.0,0.0,0.0,0.0,0.0,0.0,0.0,0.0,0.0,0.0,0.0,0.0,0.0,0.0,0.0,0.0,0.0,0.0,0.0,0.0,0.0,0.0,0.0,0.0,0.0,0.0,0.0,0.0,0.0,0.0,0.0,0.0,0.0,0.0,0.0,0.0,0.0,0.0,0.0,0.0,0.0,0.0,0.0,0.0,0.0,0.0,0.0,0.0,0.0,0.0,0.0,0.0,0.0,0.0,0.0,0.0,0.0,0.0,0.0,0.0,0.0,0.0,0.0,0.0,0.0,0.0,0.0,0.0,0.0,0.0,0.0,0.0,0.0,0.0,0.0,0.0,0.0,0.0,0.0,0.0,0.0,0.0,0.0,0.0,0.0,0.0,0.0,0.0,0.0,0.0,0.0,0.0,0.0,0.0,0.0,0.0,0.0,0.0,0.0,0.0,0.0,0.0,0.0,0.0,0.0,0.0,0.0,0.0,0.0,0.0,0.0,0.0,0.0,0.0,0.0,0.0,0.0,0.0,0.0,0.0,0.0,0.0,0.0,0.0,0.0,0.0,0.0,0.0,0.0,0.0,0.0,0.0,0.0,0.0,0.0,0.0,0.0,0.0,0.0,0.0,0.0,0.0,0.0,0.0,0.0,0.0,0.0,0.0,0.0,0.0,0.0,0.0,0.0,0.0,0.0,0.0,0.0,0.0,0.0,0.0,0.0,0.0,0.0,0.0,0.0,0.0,0.0,0.0,0.0,0.0,0.0,0.0,0.0,0.0,0.0,0.0,0.0,0.0,0.0,0.0,0.0,0.0,0.0,0.0,0.0,0.0,0.0,0.0,0.0,0.0,0.0,0.0,0.0,0.0,0.0,0.0,0.0,0.0,0.0,0.0,0.0,0.0,0.0,0.0,0.0,0.0,0.0,0.0,0.0,0.0,0.0,0.0,0.0,0.0,0.0,0.0,0.0,0.0,0.0,0.0,0.0,0.0,0.0,0.0,0.0,0.0,0.0,0.0,0.0,0.0,0.0,0.0,0.0,0.0,0.0,0.0,0.0,0.0,0.0,0.0,0.0,0.0,0.0,0.0,0.0,0.0,0.0,0.0,0.0,0.0,0.0,0.0,0.0,0.0,0.0,0.0,0.0,0.0,0.0,0.0,0.0,0.0,0.0,0.0,0.0,0.0,0.0,0.0,0.0,0.0,0.0,0.0,0.0,0.0,0.0,0.0,0.0,0.0,0.0,0.0,0.0,0.0,0.0,0.0,0.0,0.0,0.0,0.0,0.0,0.0,0.0,0.0,0.0,0.0,0.0,0.0,0.0,0.0,0.0,0.0,0.0,0.0,0.0,0.0,0.0,0.0,0.0,0.0,0.0,0.0,0.0,0.0,0.0,0.0,0.0,0.0,0.0,0.0,0.0,0.0,0.0,0.0,0.0,0.0,0.0,0.0,0.0,0.0,0.0,0.0,0.0,0.0,0.0,0.0,0.0,0.0,0.0,0.0,0.0,0.0,0.0,0.0,0.0,0.0,0.0,0.0,0.0,0.0,0.0,0.0,0.0,0.0,0.0,0.0,0.0,0.0,0.0,0.0,0.0,0.0,0.0,0.0,0.0,0.0,0.0,0.0,0.0,0.0,0.0,0.0,0.0,0.0,0.0,0.0,0.0,0.0,0.0,0.0,0.0,0.0,0.0,0.0,0.0,0.0,0.0,0.0,0.0,0.0,0.0,0.0,0.0,0.0,0.0,0.0,0.0,0.0,0.0,0.0,0.0,0.0,0.0,0.0,0.0,0.0,0.0,0.0,0.0,0.0,0.0,0.0,0.0,0.0,0.0,0.0,0.0,0.0,0.0,0.0,0.0,0.0,0.0,0.0,0.0,0.0,0.0,0.0,0.0,0.0,0.0,0.0,0.0,0.0,0.0,0.0,0.0,0.0,0.0,0.0,0.0,0.0,0.0,0.0,0.0,0.0,0.0,0.0,0.0,0.0,0.0,0.0,0.0,0.0,0.0,0.0,0.0,0.0,0.0,0.0,0.0,0.0,0.0,0.0,0.0,0.0,0.0,0.0,0.0,0.0,0.0,0.0,0.0,0.0,0.0,0.0,0.0,0.0,0.0,0.0,0.0,0.0,0.0,0.0,0.0,0.0,0.0,0.0,0.0,0.0,0.0,0.0,0.0,0.0,0.0,0.0,0.0,0.0,0.0,0.0,0.0,0.0,0.0,0.0,0.0,0.0,0.0,0.0,0.0,0.0,0.0,0.0,0.0,0.0,0.0,0.0,0.0,0.0,0.0,0.0,0.0,0.0,0.0,0.0,0.0,0.0,0.0,0.0,0.0,0.0,0.0,0.0,0.0,0.0,0.0,0.0,0.0,0.0,0.0,0.0,0.0,0.0,0.0,0.0,0.0,0.0,0.0,0.0,0.0,0.0,0.0,0.0,0.0,0.0,0.0,0.0,0.0,0.0,0.0,0.0,0.0,0.0,0.0,0.0,0.0,0.0,0.0,0.0,0.0,0.0,0.0,0.0,0.0,0.0,0.0,0.0,0.0,0.0,0.0,0.0,0.0,0.0,0.0,0.0,0.0,0.0,0.0,0.0,0.0,0.0,0.0,0.0,0.0,0.0,0.0,0.0,0.0,0.0,0.0,0.0,0.0,0.0,0.0,0.0,0.0,0.0,0.0,0.0,0.0,0.0,0.0,0.0,0.0,0.0,0.0,0.0,0.0,0.0,0.0,0.0,0.0,0.0,0.0,0.0,0.0,0.0,0.0,0.0,0.0,0.0,0.0,0.0,0.0,0.0,0.0,0.0,0.0,0.0,0.0,0.0,0.0,0.0,0.0,0.0,0.0,0.0,0.0,0.0,0.0,0.0,0.0,0.0,0.0,0.0,0.0,0.0,0.0,0.0,0.0,0.0,0.0,0.0,0.0,0.0,0.0,0.0,0.0,0.0,0.0,0.0,0.0,0.0,0.0,0.0,0.0,0.0,0.0,0.0,0.0,0.0,0.0,0.0,0.0,0.0,0.0,0.0,0.0,0.0,0.0,0.0,0.0,0.0,0.0,0.0,0.0,0.0,0.0,0.0,0.0,0.0,0.0,0.0,0.0,0.0,0.0,0.0,0.0,0.0,0.0,0.0,0.0,0.0,0.0,0.0,0.0,0.0,0.0,0.0,0.0,0.0,0.0,0.0,0.0,0.0,0.0,0.0,0.0,0.0,0.0,0.0,0.0,0.0,0.0,0.0,0.0,0.0,0.0,0.0,0.0,0.0,0.0,0.0,0.0,0.0,0.0,0.0,0.0,0.0,0.0,0.0,0.0,0.0,0.0,0.0,0.0,0.0,0.0,0.0,0.0,0.0,0.0,0.0,0.0,0.0,0.0,0.0,0.0,0.0,0.0,0.0,0.0,0.0,0.0,0.0,0.0,0.0,0.0,0.0,0.0,0.0,0.0,0.0,0.0,0.0,0.0,0.0,0.0,0.0,0.0,0.0,0.0,0.0,0.0,0.0,0.0,0.0,0.0,0.0,0.0,0.0,0.0,0.0,0.0,0.0,0.0,0.0,0.0,0.0,0.0,0.0,0.0,0.0,0.0,0.0,0.0,0.0,0.0,0.0,0.0,0.0,0.0,0.0,0.0,0.0,0.0,0.0,0.0,0.0,0.0,0.0,0.0,0.0,0.0,0.0,0.0,0.0,0.0,0.0,0.0,0.0,0.0,0.0,0.0,0.0,0.0,0.0,0.0,0.0,0.0,0.0,0.0,0.0,0.0,0.0,0.0,0.0,0.0,0.0,0.0,0.0,0.0,0.0,0.0,0.0,0.0,0.0,0.0,0.0,0.0,0.0,0.0,0.0,0.0,0.0,0.0,0.0,0.0,0.0,0.0,0.0,0.0,0.0,0.0,0.0,0.0,0.0,0.0,0.0,0.0,0.0,0.0,0.0,0.0,0.0,0.0,0.0,0.0,0.0,0.0,0.0,0.0,0.0,0.0,0.0,0.0,0.0,0.0,0.0,0.0,0.0,0.0,0.0,0.0,0.0,0.0,0.0,0.0,0.0,0.0,0.0,0.0,0.0,0.0,0.0,0.0,0.0,0.0,0.0,0.0,0.0,0.0,0.0,0.0,0.0,0.0,0.0,0.0,0.0,0.0,0.0,0.0,0.0,0.0,0.0,0.0,0.0,0.0,0.0,0.0,0.0,0.0,0.0,0.0,0.0,0.0,0.0,0.0,0.0,0.0,0.0,0.0,0.0,0.0,0.0,0.0,0.0,0.0,0.0,0.0,0.0,0.0,0.0,0.0,0.0,0.0,0.0,0.0,0.0,0.0,0.0,0.0,0.0,0.0,0.0,0.0,0.0,0.0,0.0,0.0,0.0,0.0,0.0,0.0,0.0,0.0,0.0,0.0,0.0,0.0,0.0,0.0,0.0,0.0,0.0,0.0,0.0,0.0,0.0,0.0,0.0,0.0,0.0,0.0,0.0,0.0,0.0,0.0,0.0,0.0,0.0,0.0,0.0,0.0,0.0,0.0,0.0,0.0,0.0,0.0,0.0,0.0,0.0,0.0,0.0,0.0,0.0,0.0,0.0,0.0,0.0,0.0,0.0,0.0,0.0,0.0,0.0,0.0,0.0,0.0,0.0,0.0,0.0,0.0,0.0,0.0,0.0,0.0,0.0,0.0,0.0,0.0,0.0,0.0,0.0,0.0,0.0,0.0,0.0,0.0,0.0,0.0,0.0,0.0,0.0,0.0,0.0,0.0,0.0,0.0,0.0,0.0,0.0,0.0,0.0,0.0,0.0,0.0,0.0,0.0,0.0,0.0,0.0,0.0,0.0,0.0,0.0,0.0,0.0,0.0,0.0,0.0,0.0,0.0,0.0,0.0,0.0,0.0,0.0,0.0,0.0,0.0,0.0,0.0,0.0,0.0,0.0,0.0,0.0,0.0,0.0,0.0,0.0,0.0,0.0,0.0,0.0,0.0,0.0,0.0,0.0,0.0,0.0,0.0,0.0,0.0,0.0,0.0,0.0,0.0,0.0,0.0,0.0,0.0,0.0,0.0,0.0,0.0,0.0,0.0,0.0,0.0,0.0,0.0,0.0,0.0,0.0,0.0,0.0,0.0,0.0,0.0,0.0,0.0,0.0,0.0,0.0,0.0,0.0,0.0,0.0,0.0,0.0,0.0,0.0,0.0,0.0,0.0,0.0,0.0,0.0,0.0,0.0,0.0,0.0,0.0,0.0,0.0,0.0,0.0,0.0,0.0,0.0,0.0,0.0,0.0,0.0,0.0,0.0,0.0,0.0,0.0,0.0,0.0,0.0,0.0,0.0,0.0,0.0,0.0,0.0,0.0,0.0,0.0,0.0,0.0,0.0,0.0,0.0,0.0,0.0,0.0,0.0,0.0,0.0,0.0,0.0,0.0,0.0,0.0,0.0,0.0,0.0,0.0,0.0,0.0,0.0,0.0,0.0,0.0,0.0,0.0,0.0,0.0,0.0,0.0,0.0,0.0,0.0,0.0,0.0,0.0,0.0,0.0,0.0,0.0,0.0,0.0,0.0,0.0,0.0,0.0,0.0,0.0,0.0,0.0,0.0,0.0,0.0,0.0,0.0,0.0,0.0,0.0,0.0,0.0,0.0,0.0,0.0,0.0,0.0,0.0,0.0,0.0,0.0,0.0,0.0,0.0,0.0,0.0,0.0,0.0,0.0,0.0,0.0,0.0,0.0,0.0,0.0,0.0,0.0,0.0,0.0,0.0,0.0,0.0,0.0,0.0,0.0,0.0,0.0,0.0,0.0,0.0,0.0,0.0,0.0,0.0,0.0,-2.7597,-2.6214,0.0,0.0,0.0,0.0,0.0,0.0,0.0,0.0,0.0,0.0,0.0,0.0,0.0,0.0,0.0,0.0,0.0,0.0,0.0,0.0,0.0,0.0,0.0,0.0,0.0,0.0,0.0,0.0,0.0,0.0,0.0,0.0,0.0,0.0,0.0,0.0,0.0,0.0,-2.4094,-2.4704,-2.507,-2.3467,-2.1656,-1.9757,0.0,0.0,0.0,0.0,0.0,0.0,0.0,0.0,0.0,0.0,0.0,0.0,0.0,0.0,0.0,0.0,0.0,0.0,0.0,0.0,0.0,0.0,0.0,0.0,0.0,0.0,0.0,0.0,0.0,0.0,0.0,0.0,0.0,0.0,0.0,0.0,0.0,0.0,0.0,0.0,0.0,0.0,0.0,0.0,0.0,0.0,0.0,0.0,0.0,0.0,0.0,0.0,0.0,0.0,0.0,0.0,0.0,0.0,0.0,0.0,0.0,0.0,0.0,0.0,0.0,0.0,0.0,0.0,0.0,0.0,-3.088,-2.9059,0.0,0.0,0.0,0.0,0.0,0.0,0.0,0.0,0.0,0.0,0.0,0.0,0.0,0.0,0.0,0.0,0.0,0.0,0.0,0.0,0.0,0.0,0.0,-1.5901,-1.6127,-1.6138,-1.6285,-1.6421,0.0,0.0,0.0,0.0,0.0,0.0,0.0,-2.1504,-2.3192,-2.5451,-2.6881,-2.7895,-2.8362,-2.7859,-2.5918,-2.2802,-2.1735,0.0,0.0,0.0,0.0,0.0,0.0,0.0,0.0,0.0,0.0,0.0,0.0,0.0,0.0,0.0,0.0,0.0,0.0,0.0,0.0,0.0,0.0,0.0,0.0,0.0,0.0,0.0,0.0,0.0,0.0,0.0,0.0,0.0,0.0,0.0,0.0,0.0,0.0,0.0,0.0,0.0,0.0,0.0,0.0,0.0,0.0,0.0,0.0,0.0,0.0,0.0,0.0,0.0,0.0,0.0,0.0,0.0,0.0,0.0,0.0,0.0,0.0,0.0,-3.7402,-3.7761,-3.7203,-3.7587,-3.7557,-3.7107,-3.4341,-3.232,-3.0917,-2.9603,0.0,0.0,0.0,0.0,0.0,0.0,0.0,0.0,0.0,0.0,0.0,0.0,0.0,0.0,0.0,0.0,0.0,0.0,0.0,0.0,0.0,-1.8155,-1.8427,-1.8986,-1.867,-1.8469,-1.8668,0.0,0.0,0.0,0.0,0.0,-2.1479,-2.315,-2.4967,-2.6827,-3.005,-3.1575,-3.1487,-3.0898,-2.9923,-2.8475,-2.5193,-2.3703,-2.3485,0.0,0.0,0.0,0.0,0.0,0.0,0.0,0.0,0.0,0.0,0.0,0.0,0.0,0.0,0.0,0.0,0.0,0.0,0.0,0.0,0.0,0.0,0.0,0.0,0.0,0.0,0.0,0.0,0.0,0.0,0.0,0.0,0.0,0.0,0.0,0.0,0.0,0.0,0.0,0.0,0.0,-2.7191,-2.809,0.0,0.0,0.0,0.0,0.0,0.0,0.0,0.0,0.0,0.0,0.0,0.0,0.0,-3.7163,-3.7025,-3.8782,-3.9514,-3.9302,-4.0546,-4.1183,-4.1215,-4.1183,-4.0957,-4.0504,-3.9402,0.0,-3.4332,-3.3513,0.0,0.0,0.0,0.0,0.0,0.0,0.0,0.0,0.0,0.0,0.0,0.0,0.0,0.0,0.0,0.0,0.0,0.0,0.0,0.0,0.0,-2.0289,-2.0918,-2.1834,-2.1519,-2.126,-2.1249,-2.1161,0.0,0.0,0.0,-2.2526,-2.3842,-2.5183,-2.7417,-3.065,-3.2973,-3.4152,-3.4163,-3.3661,-3.2875,-3.1853,-2.9677,-2.7469,-2.5334,-2.4097,0.0,0.0,0.0,0.0,0.0,0.0,0.0,0.0,0.0,0.0,0.0,0.0,0.0,0.0,0.0,0.0,0.0,0.0,0.0,0.0,0.0,0.0,0.0,0.0,0.0,0.0,0.0,0.0,0.0,0.0,0.0,0.0,0.0,0.0,0.0,0.0,0.0,0.0,0.0,-2.9352,-2.9659,-3.0176,-2.9546,-2.9096,0.0,0.0,0.0,0.0,0.0,0.0,0.0,0.0,0.0,-3.7671,-3.8332,-3.9059,-3.9819,-4.0992,-4.1403,-4.1077,-4.184,-4.2124,-4.2023,-4.2155,-4.2021,-4.165,-4.1469,-4.0255,-3.822,-3.6398,-3.5214,-3.4516,0.0,0.0,0.0,0.0,-3.2599,-3.2974,0.0,0.0,0.0,0.0,0.0,0.0,0.0,0.0,0.0,0.0,0.0,0.0,-2.1864,-2.2716,-2.3781,-2.5083,-2.4472,-2.4049,-2.4167,-2.3698,-2.3245,0.0,-2.3547,-2.4614,-2.6153,-2.7759,-3.0364,-3.4,-3.5532,-3.6298,-3.6415,-3.5921,-3.5184,-3.4307,-3.3326,-3.091,-2.76,-2.7048,-2.5777,-2.4096,0.0,0.0,0.0,0.0,0.0,0.0,0.0,0.0,0.0,0.0,0.0,0.0,0.0,0.0,0.0,0.0,0.0,0.0,0.0,0.0,0.0,0.0,0.0,0.0,0.0,0.0,0.0,0.0,0.0,0.0,0.0,0.0,0.0,0.0,0.0,0.0,0.0,-3.1769,-3.2002,-3.206,-3.1802,-3.1513,0.0,0.0,0.0,0.0,0.0,0.0,-3.7284,-3.8117,-3.9125,-4.0325,-4.0354,-4.0887,-4.2057,-4.2682,-4.2789,-4.2474,-4.2837,-4.2895,-4.2652,-4.2931,-4.286,-4.254,-4.2663,-4.2249,-4.1316,-3.8693,-3.7372,-3.6868,-3.5861,-3.537,-3.5156,-3.4486,-3.4545,-3.505,0.0,0.0,0.0,0.0,0.0,0.0,0.0,0.0,0.0,0.0,0.0,-2.3119,-2.4865,-2.5901,-2.7229,-2.9068,-2.7386,-2.6643,-2.7593,-2.6033,-2.5228,-2.5505,-2.6195,-2.6966,-2.7782,-3.1055,-3.374,-3.5662,-3.7461,-3.8269,-3.8062,-3.7558,-3.6876,-3.6018,-3.5067,-3.3402,-3.1185,-3.0212,-2.9013,-2.7697,-2.6353,0.0,0.0,0.0,0.0,0.0,0.0,0.0,0.0,0.0,0.0,0.0,0.0,0.0,0.0,0.0,0.0,0.0,0.0,0.0,0.0,0.0,0.0,0.0,0.0,0.0,0.0,0.0,0.0,0.0,0.0,0.0,0.0,0.0,0.0,0.0,0.0,0.0,0.0,-3.3591,-3.3747,0.0,0.0,0.0,0.0,-3.5954,-3.8053,-3.9437,-3.9778,-4.1402,-4.2475,-4.2708,-4.3139,-4.3346,-4.3336,-4.3783,-4.3941,-4.382,-4.4103,-4.4304,-4.4456,-4.4266,-4.4106,-4.3883,-4.3464,-4.3152,-4.2743,-4.0492,-3.936,-3.9005,-3.8501,-3.8161,-3.8032,-3.839,-3.836,-3.8217,0.0,0.0,0.0,0.0,0.0,0.0,0.0,0.0,-2.1138,-2.2437,-2.397,-2.5696,-2.7822,-2.8861,-3.022,-3.2438,-3.0863,-2.9844,-3.0097,-2.8494,-2.7244,-2.6688,-2.7784,-2.9404,-3.1619,-3.3875,-3.5797,-3.7327,-3.8505,-3.9186,-3.936,-3.9264,-3.8585,-3.7472,-3.7049,-3.594,-3.4276,-3.2841,-3.1027,-2.9042,-2.8082,-2.6979,0.0,0.0,0.0,0.0,0.0,0.0,0.0,0.0,0.0,0.0,0.0,0.0,0.0,0.0,0.0,0.0,0.0,0.0,0.0,0.0,0.0,0.0,0.0,0.0,0.0,0.0,0.0,0.0,0.0,0.0,0.0,0.0,0.0,0.0,0.0,0.0,0.0,-3.644,-3.6754,0.0,-3.725,-3.7281,-3.7748,-3.8936,-4.0705,-4.1656,-4.1557,-4.2968,-4.3885,-4.4126,-4.4441,-4.4642,-4.475,-4.4783,-4.4651,-4.4346,-4.4441,-4.4534,-4.461,-4.4534,-4.4458,-4.4381,-4.406,-4.3647,-4.3114,-4.2227,-4.1535,-4.099,-3.9535,-3.9164,-3.9463,-3.939,-3.9229,-3.917,0.0,0.0,0.0,0.0,0.0,0.0,0.0,0.0,-2.2266,-2.3671,-2.5502,-2.7531,-2.9752,-3.0836,-3.237,-3.4732,-3.3044,-3.2007,-3.2307,-3.0597,-2.9312,-2.873,-3.0203,-3.2119,-3.432,-3.617,-3.769,-3.8808,-3.9766,-4.0376,-4.0587,-4.0523,-3.9995,-3.9004,-3.8545,-3.7726,-3.6618,-3.56,-3.3534,-3.0961,-3.0063,-2.9203,-2.8139,0.0,0.0,0.0,0.0,0.0,0.0,0.0,0.0,0.0,0.0,0.0,0.0,0.0,0.0,0.0,0.0,0.0,0.0,0.0,0.0,0.0,0.0,0.0,0.0,0.0,0.0,0.0,0.0,0.0,0.0,0.0,0.0,0.0,0.0,-3.665,-3.8058,-3.8151,-3.9077,-3.9665,-3.9548,-3.9833,-4.0343,-4.1143,-4.2857,-4.3648,-4.3217,-4.4261,-4.4956,-4.5056,-4.5028,-4.521,-4.5656,-4.5284,-4.5186,-4.5328,-4.4847,-4.4856,-4.5249,-4.4918,-4.4757,-4.4834,-4.471,-4.4312,-4.3707,-4.3342,-4.3098,-4.2738,-4.0934,-4.0506,-4.0868,-4.072,-4.0547,-4.0479,0.0,0.0,0.0,0.0,0.0,0.0,0.0,-2.0973,-2.2538,-2.4205,-2.6334,-2.847,-3.0639,-3.2042,-3.3643,-3.5852,-3.3835,-3.3,-3.4309,-3.2368,-3.1339,-3.1762,-3.3581,-3.4982,-3.5805,-3.7977,-3.9443,-4.0007,-4.1221,-4.1755,-4.1755,-4.1341,-4.0943,-4.0636,-3.9608,-3.8718,-3.8063,-3.8306,-3.6611,-3.3674,-3.2407,-3.1738,-3.1163,0.0,0.0,0.0,0.0,0.0,0.0,0.0,0.0,0.0,0.0,0.0,0.0,0.0,0.0,0.0,0.0,0.0,0.0,0.0,0.0,0.0,0.0,0.0,0.0,0.0,0.0,0.0,0.0,0.0,0.0,0.0,0.0,0.0,-3.4664,-3.7313,-3.9216,-3.8697,-4.0591,-4.1651,-4.0828,-4.1772,-4.2488,-4.2488,-4.4516,-4.5439,-4.4776,-4.5553,-4.5877,-4.5599,-4.5042,-4.5161,-4.608,-4.5352,-4.5616,-4.6797,-4.5359,-4.538,-4.6573,-4.5532,-4.5178,-4.5345,-4.5345,-4.5094,-4.4572,-4.3932,-4.3905,-4.4182,-4.2836,-4.2316,-4.2346,-4.256,-4.2514,-4.2294,0.0,0.0,0.0,0.0,0.0,0.0,0.0,-2.105,-2.3141,-2.4963,-2.7779,-3.0343,-3.2247,-3.384,-3.5244,-3.6474,-3.5048,-3.4118,-3.4111,-3.2802,-3.2511,-3.3487,-3.5247,-3.6893,-3.8363,-3.9543,-4.0384,-4.0804,-4.1288,-4.136,-4.099,-4.147,-4.1255,-4.0408,-4.0592,-3.9979,-3.8748,-3.8498,-3.8021,-3.7197,-3.4931,-3.3916,-3.3458,0.0,0.0,0.0,0.0,0.0,0.0,0.0,0.0,0.0,0.0,0.0,0.0,0.0,0.0,0.0,0.0,0.0,0.0,0.0,0.0,0.0,0.0,0.0,0.0,0.0,0.0,0.0,0.0,0.0,0.0,0.0,-3.6686,-3.7832,-3.7588,-3.9836,-4.1562,-4.179,-4.2852,-4.3702,-4.4122,-4.4015,-4.4189,-4.4835,-4.6027,-4.6497,-4.605,-4.7112,-4.7589,-4.7164,-4.7331,-4.737,-4.7283,-4.7095,-4.7069,-4.7175,-4.6756,-4.6734,-4.7107,-4.6616,-4.6405,-4.6445,-4.6326,-4.5808,-4.5117,-4.5087,-4.4734,-4.4182,-4.2978,-4.2769,-4.3168,-4.3125,-4.3214,-4.3347,0.0,0.0,0.0,0.0,0.0,0.0,0.0,-2.0982,-2.3144,-2.5003,-2.7708,-3.0311,-3.2395,-3.3876,-3.5098,-3.6186,-3.5376,-3.476,-3.4662,-3.4485,-3.4679,-3.5417,-3.7369,-3.9034,-4.0315,-4.133,-4.1753,-4.1462,-4.1848,-4.1679,-4.1086,-4.1409,-4.14,-4.1032,-4.1093,-4.0572,-3.9664,-3.9481,-3.9507,-3.9561,-3.8038,-3.668,-3.538,-3.2779,-3.1501,-3.1083,-3.0823,-3.0002,-2.9075,-2.9202,0.0,0.0,0.0,0.0,0.0,0.0,0.0,0.0,0.0,0.0,0.0,0.0,0.0,0.0,0.0,0.0,0.0,0.0,0.0,0.0,0.0,0.0,0.0,0.0,-3.8686,-4.0086,-4.0601,-4.1786,-4.2837,-4.3381,-4.4206,-4.4914,-4.5431,-4.5227,-4.5273,-4.5755,-4.6819,-4.7156,-4.6542,-4.7823,-4.8263,-4.761,-4.7871,-4.7987,-4.7927,-4.7808,-4.7889,-4.8205,-4.7582,-4.7544,-4.8105,-4.7477,-4.7163,-4.7163,-4.7074,-4.6401,-4.5432,-4.5549,-4.5149,-4.4358,0.0,0.0,0.0,0.0,-4.4308,-4.4908,0.0,0.0,0.0,0.0,0.0,0.0,0.0,-2.0853,-2.2776,-2.4555,-2.6785,-2.9145,-3.1549,-3.2828,-3.3999,-3.5232,-3.4943,-3.491,-3.5545,-3.6596,-3.7313,-3.7531,-3.9704,-4.1232,-4.1854,-4.319,-4.3333,-4.2283,-4.2725,-4.2506,-4.1785,-4.1363,-4.1484,-4.1967,-4.1218,-4.0752,-4.0515,-4.072,-4.0821,-4.0941,-4.0785,-3.9411,-3.7083,-3.4433,-3.3113,-3.2641,-3.1685,-3.1052,-3.0711,-3.0919,0.0,0.0,0.0,0.0,0.0,0.0,0.0,0.0,0.0,0.0,0.0,0.0,0.0,0.0,0.0,0.0,0.0,0.0,0.0,0.0,0.0,0.0,0.0,0.0,-4.0927,-4.2646,-4.3448,-4.3499,-4.3598,-4.4074,-4.5028,-4.5625,-4.5625,-4.5772,-4.5882,-4.5882,-4.715,-4.758,-4.6755,-4.798,0.0,0.0,0.0,-4.7792,-4.8263,-4.8022,-4.8415,-4.9515,-4.8159,-4.8184,-4.934,-4.8273,-4.7793,-4.7793,-4.7711,-4.7004,-4.5764,-4.5741,-4.5311,-4.4733,-4.4733,-4.4619,-4.4442,-4.4728,-4.5565,-4.6444,0.0,0.0,0.0,0.0,0.0,0.0,0.0,-2.0587,-2.2455,-2.3851,-2.6548,-2.8979,-3.0531,-3.2118,-3.3244,-3.3716,-3.3829,-3.4228,-3.5236,-3.6862,-3.8318,-3.9495,-4.1815,-4.3163,-4.3367,-4.4284,-4.4525,-4.4098,-4.3279,-4.2939,-4.3018,-4.1542,-4.1093,-4.1448,-4.1492,-4.113,-4.0444,-4.0683,-4.0927,-4.1077,-4.0184,-3.9547,-3.8934,-3.7268,-3.5943,-3.4886,-3.4225,-3.392,-3.3778,-3.3395,-3.302,-3.2618,-3.1993,-3.1336,0.0,0.0,0.0,0.0,0.0,0.0,0.0,0.0,0.0,0.0,0.0,0.0,0.0,0.0,0.0,0.0,0.0,0.0,0.0,-4.0873,-4.2234,-4.3388,-4.4957,-4.5256,-4.5452,-4.5721,-4.6072,-4.6316,-4.6316,-4.6502,-4.6539,-4.6391,-4.7328,-4.7991,-4.8168,-4.8954,-4.9251,-4.8925,-4.9085,-4.9205,-4.9324,-4.9403,-4.9584,-4.9789,-4.9505,0.0,-4.9773,-4.9215,-4.8951,-4.8951,-4.8584,-4.7876,-4.6946,-4.6555,-4.5988,-4.5442,-4.5596,-4.5442,-4.5222,-4.5944,-4.6162,-4.6214,0.0,0.0,0.0,0.0,0.0,0.0,0.0,-2.0108,-2.1692,-2.32,-2.5159,-2.7191,-2.9261,-3.051,-3.1444,-3.2213,-3.298,-3.3955,-3.5293,-3.7816,-3.9644,-4.0478,-4.3079,-4.4623,-4.4916,-4.5385,-4.5463,-4.5044,-4.396,-4.328,-4.2895,-4.1522,-4.1128,-4.1617,-4.1663,-4.1489,-4.1051,-4.1077,-4.1274,-4.1612,-4.1055,-4.0592,-4.0053,-3.8496,-3.7104,-3.6023,-3.5915,-3.5537,-3.5123,-3.5117,-3.4543,-3.385,-3.3459,-3.2889,-3.2144,0.0,0.0,0.0,0.0,0.0,0.0,0.0,0.0,0.0,0.0,0.0,0.0,0.0,0.0,-3.5548,-3.7157,0.0,-4.0537,-4.2371,-4.3797,-4.4913,-4.5703,-4.6119,-4.6431,-4.6547,-4.674,-4.6893,-4.7007,-4.7082,-4.7158,-4.7189,-4.7966,-4.8464,-4.8608,-4.9236,-4.9533,-4.9331,-4.9493,-4.9613,-4.9613,-4.9812,-4.9892,-4.9892,-4.9812,-4.9773,-4.9773,-4.9452,-4.9144,-4.8823,-4.8891,-4.8254,-4.7065,-4.6846,-4.6467,-4.6181,-4.692,-4.6919,-4.6515,-4.7053,-4.7382,-4.7579,0.0,0.0,0.0,0.0,0.0,0.0,0.0,-1.9661,-2.0917,-2.245,-2.354,-2.5172,-2.7753,-2.8503,-2.9404,-3.0791,-3.205,-3.3527,-3.5396,-3.8484,-4.0579,-4.1302,-4.3824,-4.5483,-4.6059,-4.6188,-4.6189,-4.5977,-4.4773,-4.3796,-4.3015,-4.1742,-4.1428,-4.1978,-4.1838,-4.1789,-4.1746,-4.1547,-4.1647,-4.1944,-4.1944,-4.1425,-4.05,-3.9211,-3.7887,-3.6723,-3.6951,-3.6463,-3.5759,-3.6263,-3.5641,-3.4753,-3.4782,-3.4326,-3.3545,-3.2467,-3.1901,0.0,0.0,0.0,0.0,0.0,0.0,0.0,0.0,-3.478,-3.5917,-3.5599,-3.6684,-3.8145,-3.9702,-4.1483,-4.2913,-4.3648,-4.5183,-4.6305,-4.6265,-4.6748,-4.7167,-4.7212,-4.7356,-4.7458,-4.7652,-4.769,-4.7799,-4.8022,-4.8566,-4.8835,-4.8836,-4.9259,-4.9493,-4.9331,-4.9493,-4.9613,-4.9613,-4.9812,-4.9892,-4.9892,-4.9733,-4.9693,-4.9653,-4.9452,-4.8997,-4.8363,-4.8894,-4.8369,-4.7145,-4.7145,-4.7066,-4.7088,-4.82,-4.8363,-4.8007,-4.8168,-4.8581,-4.9048,0.0,0.0,0.0,0.0,0.0,0.0,0.0,0.0,-2.0441,-2.1296,-2.2573,-2.4078,-2.5761,-2.6465,-2.7562,-2.9378,-3.0455,-3.2235,-3.5059,-3.7851,-4.0425,-4.2658,-4.423,-4.5437,-4.6245,-4.6287,-4.6756,-4.7706,-4.583,-4.5012,-4.528,-4.287,-4.1892,-4.2234,-4.2269,-4.2166,-4.2016,-4.2043,-4.1796,-4.1424,-4.1424,-4.0859,-4.0063,-4.0065,-3.9133,-3.7709,-3.6934,-3.6586,-3.6535,-3.6805,-3.6611,-3.6358,-3.7076,-3.6557,-3.5665,-3.5511,-3.4446,-3.335,-3.338,-3.3359,-3.3463,-3.42,-3.5273,-3.6143,0.0,-3.763,-3.8727,-3.8648,-3.9201,-4.0234,-4.1773,-4.2385,-4.3292,-4.5051,-4.588,-4.6498,-4.7079,-4.7567,-4.7985,-4.8368,-4.8302,-4.8199,-4.8207,-4.8365,-4.8483,-4.8529,-4.8584,-4.8938,-4.9694,-4.947,-4.93,-4.9331,-4.9493,-4.9613,-4.9613,-4.9812,-4.9892,-4.9892,-4.9892,-4.9892,-4.9892,-4.9693,-4.9196,-4.853,-4.8465,-4.8324,-4.8128,-4.7938,-4.8057,-4.8373,-4.8545,-4.8914,-4.9367,-4.9407,-4.9228,-4.913,0.0,0.0,0.0,0.0,0.0,0.0,0.0,0.0,0.0,-2.0884,-2.1904,-2.3104,-2.4795,-2.5911,-2.7175,-2.8699,-2.9471,-3.1198,-3.435,-3.733,-3.9832,-4.1629,-4.4096,-4.5524,-4.5717,-4.5666,-4.6187,-4.7424,-4.5608,-4.4936,-4.5295,-4.3353,-4.2716,-4.3138,-4.2205,-4.1949,-4.2187,-4.1753,-4.1324,-4.0962,-4.0792,-4.0631,-4.0314,-3.9575,-3.8912,-3.8274,-3.7704,-3.6954,0.0,-3.6885,-3.6726,-3.6384,-3.7026,-3.6697,-3.609,-3.6085,-3.5563,-3.4978,-3.4667,-3.4969,-3.5527,-3.603,-3.7133,-3.8151,-3.8394,-3.9505,-4.0461,-4.0315,-4.0904,-4.1795,-4.2917,-4.3711,-4.4452,-4.5112,-4.5929,-4.6689,-4.7242,-4.7579,-4.7905,-4.8223,-4.8047,-4.8137,-4.8823,-4.8965,-4.9094,-4.9332,-4.9253,-4.9339,-4.9701,-4.9573,-4.9452,-4.9331,-4.9613,-4.9733,-4.9613,-4.9812,-4.9892,-4.9892,-4.9892,-4.9892,-4.9892,-4.9812,-4.9615,-4.9332,-4.8757,-4.896,-4.9712,-4.96,-4.968,-4.981,-5.005,-5.0105,-4.9939,-5.001,-5.0065,-5.0254,0.0,0.0,0.0,0.0,0.0,0.0,0.0,0.0,0.0,0.0,-2.1261,-2.2306,-2.4022,-2.5366,-2.66,-2.7816,-2.8621,-3.0366,-3.3493,-3.6597,-3.8956,-4.0505,-4.3484,-4.5081,-4.5035,-4.505,-4.5567,-4.6604,-4.5367,-4.4867,-4.5006,-4.3811,-4.3421,-4.3686,-4.2272,-4.1828,-4.2129,-4.1518,-4.1039,-4.0737,-4.0403,-4.0362,-4.038,-3.9112,-3.8354,-3.7891,-3.752,-3.6711,-3.5953,-3.6404,-3.6266,-3.6029,-3.6839,-3.6688,-3.6224,-3.6286,-3.6117,-3.5937,-3.5674,-3.626,-3.7099,-3.7639,-3.8895,-3.9955,-4.0064,-4.104,-4.1893,-4.1901,-4.2509,-4.3256,-4.3935,-4.5038,-4.5715,-4.5333,-4.6324,-4.7169,-4.7303,-4.7651,-4.7875,-4.7893,-4.77,-4.7966,-4.8827,-4.901,-4.9273,-4.986,-4.9733,-4.9653,-4.9693,-4.9533,-4.9412,-4.9381,-4.9582,-4.9733,-4.9693,-4.9852,-4.9892,-4.9892,-4.9892,-4.9892,-4.986,-4.971,-4.9742,-4.9829,-4.9048,-4.9473,-5.0803,-5.0803,-5.0938,-5.1218,-5.1542,-5.1383,-5.0952,-5.0753,-5.085,-5.119,0.0,0.0,0.0,0.0,0.0,0.0,0.0,0.0,0.0,0.0,0.0,0.0,0.0,-2.4282,-2.5289,-2.636,-2.7866,-2.9852,-3.2456,-3.5339,-3.7915,-4.0042,-4.232,-4.3789,-4.4219,-4.4778,-4.523,-4.5561,-4.5504,-4.5293,-4.4908,-4.4269,-4.3806,-4.3588,-4.2667,-4.2113,-4.1773,-4.1498,-4.1221,-4.0943,-4.0192,-4.0007,-4.0015,-3.8996,-3.7668,-3.6285,-3.5708,-3.5426,-3.5318,-3.5192,-3.5276,-3.5664,-3.7063,-3.6934,-3.6362,-3.6604,-3.6221,-3.5884,-3.6641,-3.7323,-3.8109,-3.9098,-4.0344,-4.14,-4.1595,-4.2466,-4.3349,-4.381,-4.4316,-4.469,-4.4919,-4.6224,-4.6936,-4.6022,-4.7354,-4.8245,-4.7425,-4.805,-4.8327,-4.7681,-4.7619,-4.77,-4.8004,-4.8204,-4.8764,-4.9829,-4.9733,-4.9693,-4.9892,-4.9331,-4.92,-4.9573,-4.9381,-4.9501,-4.9892,-4.9892,-4.9892,-4.9892,-4.9892,-4.9892,-4.99,-4.9236,-4.9299,-4.9829,-4.9173,-4.9679,-5.0974,-5.0974,-5.1628,-5.2629,-5.2669,-5.2757,-5.2788,-5.1884,-5.1581,-5.1518,0.0,0.0,0.0,0.0,0.0,0.0,0.0,0.0,0.0,0.0,0.0,0.0,0.0,0.0,0.0,0.0,-2.7016,-2.8625,-3.1105,-3.3618,-3.5992,-3.8288,-4.0485,-4.2109,-4.3113,-4.2681,-4.281,-4.3632,-4.281,-4.2451,-4.2538,-4.178,-4.168,-4.2095,-4.1085,-4.0744,-4.0852,-4.0793,-4.0332,-3.9545,-3.9207,-3.8996,-3.8841,-3.7693,-3.6862,-3.6182,0.0,-3.4621,-3.4477,-3.5065,-3.5085,-3.4951,-3.5825,-3.6003,-3.6039,-3.6693,-3.712,-3.7453,-3.7857,-3.8325,-3.8977,-4.0179,-4.1023,-4.1814,-4.2755,-4.3358,-4.368,-4.3411,-4.3944,-4.4248,-4.3783,-4.5061,-4.6085,-4.576,-4.6616,-4.7455,-4.805,-4.804,-4.8019,-4.8235,-4.7865,-4.77,-4.7973,-4.8053,-4.8533,-4.963,-4.9653,-4.9882,-5.0595,-5.0073,-5.0002,-5.0515,-5.0303,-5.001,-4.9701,-5.001,-5.001,-4.9701,-4.9852,-4.9892,-4.9931,-5.0153,-5.0445,-5.0627,-5.0848,-5.1512,-5.2396,-5.2396,-5.2771,-5.3373,-5.3373,-5.2917,-5.2248,-5.1913,-5.2019,-5.2165,0.0,0.0,0.0,0.0,0.0,0.0,0.0,0.0,0.0,0.0,0.0,0.0,0.0,0.0,0.0,0.0,0.0,-2.7609,-2.9618,-3.1739,-3.3914,-3.606,-3.803,-3.9419,-4.0153,-3.9794,-3.9834,-4.0412,-3.9834,-3.9834,-4.044,-3.9757,-3.986,-4.0584,-3.9426,-3.9114,-3.9494,-3.9486,-3.9102,-3.853,-3.8038,-3.7903,-3.7757,-3.6443,-3.5802,0.0,-3.4473,-3.3919,-3.3808,-3.4506,-3.4756,-3.4806,-3.5435,-3.576,-3.6069,-3.6694,-3.748,-3.824,-3.876,-3.9483,-4.0284,-4.1418,-4.1795,-4.2173,-4.3254,-4.3586,-4.3419,-4.2582,-4.3396,-4.3953,-4.2954,-4.4358,-4.5665,-4.5626,-4.6436,-4.7423,-4.845,-4.845,-4.8419,-4.8604,-4.8235,-4.7906,-4.7852,-4.7852,-4.8373,-4.951,-4.9613,-5.0016,-5.0943,-5.0359,-5.0295,-5.0983,-5.0509,-5.005,-4.9733,-5.001,-5.0137,-5.0111,-5.0199,-5.0311,-5.0311,-5.1037,-5.1195,-5.1046,-5.1701,-5.2428,-5.3123,-5.3123,-5.347,-5.4109,-5.3994,-5.3574,-5.2981,-5.2684,-5.2717,-5.2754,0.0,0.0,0.0,0.0,0.0,0.0,0.0,0.0,0.0,0.0,0.0,0.0,0.0,0.0,0.0,0.0,0.0,0.0,-2.8092,-2.9944,-3.1774,-3.3541,-3.5153,-3.5929,-3.5791,-3.6364,-3.651,-3.6257,-3.6867,-3.7631,-3.8517,-3.8185,-3.8347,-3.8928,-3.771,-3.737,-3.7709,-3.7526,-3.7554,-3.7646,-3.6798,-3.6603,-3.6665,-3.5237,-3.4558,-3.425,-3.3449,-3.3206,-3.3304,-3.357,-3.4311,-3.5257,-3.582,-3.6196,-3.6475,-3.6635,-3.736,-3.8356,-3.9499,-4.0721,-4.1942,-4.2735,-4.265,-4.2487,-4.3104,-4.3107,-4.2659,-4.1509,-4.2897,-4.3876,-4.2561,-4.4339,-4.5889,-4.5727,-4.6956,-4.814,-4.8646,-4.9323,-4.9508,-4.885,-4.8727,-4.845,-4.7835,-4.7742,-4.8273,-4.9533,-4.9613,-5.0007,-5.0943,-5.0151,-5.0048,-5.0943,-5.0119,-4.9733,-4.9892,-4.9923,-5.0311,-5.1015,-5.1046,-5.1078,-5.1078,-5.1764,-5.1701,-5.1173,-5.1828,-5.2523,-5.3155,-5.3155,-5.3787,-5.4771,-5.4465,-5.4601,-5.4902,-5.3999,-5.3537,-5.3226,0.0,0.0,0.0,0.0,0.0,0.0,0.0,0.0,0.0,0.0,0.0,0.0,0.0,0.0,0.0,0.0,0.0,0.0,-2.7997,-2.8866,-3.0214,-3.2269,-3.3157,-3.412,-3.5245,-3.5091,-3.5236,-3.57,-3.5512,-3.5527,-3.5742,-3.5639,-3.5623,-3.5689,-3.559,-3.5423,-3.5319,-3.5432,-3.5436,-3.5304,-3.4634,-3.4396,-3.439,-3.3569,-3.3035,-3.2702,-3.2632,-3.2794,-3.3124,-3.3916,-3.4911,-3.5849,-3.6188,-3.6552,-3.7003,-3.7854,-3.8784,-3.978,-4.0726,-4.155,-4.2204,-4.243,-4.2674,-4.2797,-4.2626,-4.2659,-4.244,-4.1473,-4.275,-4.3698,-4.2725,-4.4898,-4.6835,-4.6796,-4.7986,-4.9284,-5.0244,-5.0246,-5.0339,-5.0864,-5.0623,-5.0263,-4.9928,-4.9466,-4.9345,-4.9864,-4.9693,-4.9967,-5.0731,-5.0382,-5.0367,-5.0983,-5.043,-4.9971,-4.9693,-5.0228,-5.0655,-5.1015,-5.1512,-5.1764,-5.1764,-5.2491,-5.2744,-5.2586,-5.3281,-5.366,-5.385,-5.385,-5.4115,-5.4465,-5.3871,-5.3732,-5.3751,-5.3172,-5.3154,-5.3321,0.0,0.0,0.0,0.0,0.0,0.0,0.0,0.0,0.0,0.0,0.0,0.0,0.0,0.0,0.0,0.0,0.0,0.0,0.0,-2.6903,-2.7913,-2.958,-3.0341,-3.1241,-3.2348,-3.2195,-3.2503,-3.3433,-3.2979,-3.3077,-3.3704,-3.3279,-3.3296,-3.3722,-3.3417,-3.3391,-3.3614,-3.3732,-3.3656,0.0,0.0,-3.2561,-3.2294,-3.1963,-3.1675,-3.1514,-3.1634,-3.2559,-3.3888,-3.5207,-3.6172,-3.6934,-3.7433,-3.7855,-3.8235,-3.905,-3.9952,-4.0881,-4.1727,-4.2341,-4.2765,-4.2751,-4.2535,-4.2231,-4.1698,-4.1617,-4.1398,-4.0222,-4.1344,-4.239,-4.1811,-4.4054,-4.6247,-4.7076,-4.8215,-4.9622,-5.1367,-5.1109,-5.1036,-5.1734,-5.1574,-5.1277,-5.087,-5.0499,-5.0325,-5.0452,-5.0009,-5.0163,-5.1089,-5.0704,-5.073,-5.1417,-5.0588,-5.0169,-5.0214,-5.0938,-5.1483,-5.1922,-5.2302,-5.2491,-5.2523,-5.3218,-5.3376,-5.3155,-5.3818,-5.4103,-5.4103,-5.4103,-5.42,-5.4317,-5.3555,-5.345,-5.365,-5.3159,-5.3391,-5.384,0.0,0.0,0.0,0.0,0.0,0.0,0.0,0.0,0.0,0.0,0.0,0.0,0.0,0.0,0.0,0.0,0.0,0.0,0.0,0.0,-2.5621,-2.6725,-2.7574,-2.8246,-2.873,-2.8966,-2.9549,-3.0573,-3.0219,-3.0773,-3.2137,-3.1278,-3.1367,-3.2244,-3.1317,-3.1375,-3.2165,-3.1993,-3.1848,-3.174,-3.1454,-3.1021,-3.0526,0.0,-3.0486,-3.0571,-3.0833,-3.2482,-3.481,-3.6648,-3.7589,-3.816,-3.8979,-3.9463,-3.9819,-4.0144,-4.0956,-4.1911,-4.2677,-4.3107,-4.3343,-4.3337,-4.2419,-4.1325,-4.0738,-4.0467,-3.9943,-3.8608,-3.9653,-4.0783,-4.0712,-4.2864,-4.5217,-4.691,-4.7997,-4.951,-5.1976,-5.1778,-5.1557,-5.212,-5.2244,-5.1996,-5.1406,-5.1208,-5.1177,-5.1177,-5.0607,-5.0652,-5.1612,-5.1089,-5.1118,-5.1859,-5.069,-5.0342,-5.1015,-5.1764,-5.2491,-5.3123,-5.3186,-5.325,-5.325,-5.3818,-5.3787,-5.3281,-5.385,-5.4103,-5.4103,-5.4103,-5.42,-5.4306,-5.3429,-5.3502,-5.4051,-5.3523,-5.3798,-5.4454,0.0,0.0,0.0,0.0,0.0,0.0,0.0,0.0,0.0,0.0,-2.2238,-2.2349,0.0,0.0,0.0,0.0,0.0,0.0,0.0,0.0,0.0,-2.6573,-2.6894,-2.7338,-2.7989,-2.8484,-2.8969,-2.9395,-2.9692,-3.0051,-3.0425,-3.025,-3.0232,-3.0278,-2.9601,-2.9581,-3.0098,-2.9582,-2.9585,-3.0031,-2.9967,-2.982,-2.9609,-2.9449,0.0,0.0,-3.1257,-3.2532,-3.3859,-3.636,-3.7841,-3.8716,-3.9293,-4.0196,-4.1063,-4.0966,-4.2192,-4.3586,-4.3723,-4.3659,-4.3572,-4.3576,-4.2186,-4.0795,-4.0628,-3.9637,-3.8722,-3.8494,-3.9854,-4.1021,-4.1021,-4.3521,-4.5918,-4.6945,-4.8105,-4.96,-5.1767,-5.1956,-5.2167,0.0,-5.3352,-5.3365,-5.2991,-5.2492,-5.218,-5.218,-5.1809,-5.1573,-5.1392,-5.1643,-5.1565,-5.1164,-5.0911,-5.0848,-5.1015,-5.227,-5.2997,-5.3123,-5.366,-5.3913,-5.3913,-5.404,-5.404,-5.3913,-5.404,-5.4103,-5.4103,-5.4103,-5.4146,-5.4051,-5.3376,-5.3502,-5.4008,-5.3387,-5.3672,-5.4412,0.0,0.0,0.0,0.0,0.0,0.0,0.0,-2.2519,-2.2678,-2.3071,-2.3127,-2.2902,-2.2277,-2.2142,-2.227,0.0,0.0,0.0,0.0,0.0,0.0,0.0,0.0,0.0,-2.7341,-2.7655,-2.8137,-2.8792,0.0,-2.9152,-2.9535,-2.9365,-2.9369,-2.9507,-2.9153,-2.8995,-2.9002,-2.9188,-2.9169,-2.9016,-2.9258,-2.9303,-2.924,0.0,0.0,0.0,0.0,-3.2211,-3.393,-3.5966,-3.766,-3.906,-3.9978,-4.1006,-4.1864,-4.1779,-4.2739,-4.3788,-4.3775,-4.3714,-4.3556,-4.3296,-4.1994,-4.0613,-3.9883,-3.8917,-3.8115,-3.8075,-3.9146,-4.0249,-4.0758,-4.3324,-4.5782,-4.6902,-4.8306,-5.0048,-5.2372,-5.2403,-5.2564,-5.3613,-5.3789,-5.3746,-5.3627,-5.3432,-5.3244,-5.3114,-5.3212,-5.2824,-5.1923,-5.2219,-5.2072,-5.1379,-5.185,-5.2039,-5.1883,-5.305,-5.3629,-5.3629,-5.3945,-5.4103,-5.4103,-5.4103,-5.4103,-5.4103,-5.4103,-5.4103,-5.4103,-5.4103,-5.4103,-5.404,-5.3471,-5.3545,-5.3942,-5.3936,-5.4031,-5.4134,0.0,0.0,0.0,0.0,0.0,0.0,0.0,-2.3198,-2.3553,-2.4002,-2.4075,-2.366,-2.2606,-2.2163,-2.1918,0.0,0.0,0.0,0.0,0.0,0.0,0.0,0.0,0.0,0.0,0.0,0.0,-2.7938,-2.7742,0.0,0.0,0.0,0.0,0.0,-2.8599,-2.8471,-2.831,-2.9108,-2.9092,0.0,0.0,-2.9275,0.0,0.0,0.0,0.0,0.0,-3.168,-3.3851,-3.5317,-3.7049,-3.8792,-4.0079,-4.1448,-4.2496,-4.242,-4.313,-4.3944,-4.3793,-4.3541,-4.3328,-4.297,-4.1553,-4.0036,-3.9126,-3.8065,-3.7316,-3.7465,-3.809,-3.8998,-4.0166,-4.2673,-4.5097,-4.6725,-4.827,-5.0231,-5.2954,-5.2736,-5.2771,-5.3999,-5.3974,0.0,-5.3876,-5.4017,-5.4017,-5.3876,-5.4146,-5.3807,-5.2758,-5.2699,-5.247,-5.1937,-5.2681,-5.3007,-5.2807,-5.367,-5.4103,-5.4103,-5.4103,-5.4103,-5.4103,-5.4103,-5.4103,-5.4103,-5.4103,-5.4103,-5.4103,-5.4103,-5.4103,-5.4082,-5.3756,-5.3851,-5.4226,-5.4794,-5.4592,-5.4258,0.0,0.0,0.0,0.0,0.0,0.0,0.0,-2.3294,-2.3871,-2.423,-2.4271,-2.4051,-2.3436,-2.2606,-2.1975,0.0,0.0,0.0,0.0,0.0,0.0,0.0,0.0,0.0,0.0,0.0,0.0,-2.6158,-2.5933,0.0,0.0,0.0,0.0,0.0,0.0,-2.7314,-2.7786,-2.8168,0.0,0.0,0.0,0.0,0.0,0.0,0.0,0.0,0.0,-3.0955,-3.2674,-3.414,-3.5741,-3.7325,-3.8507,-4.0913,-4.3091,-4.2503,-4.3654,-4.5013,-4.4411,-4.3462,-4.2738,-4.2879,-4.0557,-3.8371,-3.8793,-3.7036,-3.5552,-3.6569,-3.7032,-3.7684,-3.9377,-4.1562,-4.3894,-4.6352,-4.779,-4.9641,-5.262,-5.262,-5.2813,-5.4211,0.0,0.0,-5.406,-5.4103,-5.4103,-5.406,-5.3962,-5.3801,-5.3695,-5.3067,-5.2659,-5.2627,-5.2934,-5.3123,-5.305,-5.3755,-5.4103,-5.4103,-5.4103,-5.4103,-5.4103,-5.4103,-5.4103,-5.4103,-5.4103,-5.4103,-5.4103,-5.4103,-5.4103,-5.4114,-5.4264,-5.4719,-5.5355,-5.5655,-5.557,-5.5343,0.0,0.0,0.0,0.0,0.0,0.0,-2.3062,-2.4072,-2.4817,-2.4946,-2.5303,-2.5052,-2.3642,-2.2881,-2.2279,-2.174,0.0,0.0,0.0,0.0,0.0,0.0,0.0,0.0,0.0,0.0,-2.5328,-2.5467,-2.568,0.0,0.0,0.0,0.0,0.0,0.0,-2.7839,-2.7781,-2.8973,0.0,0.0,0.0,0.0,0.0,0.0,0.0,0.0,0.0,0.0,-3.3124,-3.3847,-3.5422,-3.7166,-3.7649,-3.9291,-4.1098,-4.1625,-4.294,-4.4266,-4.4151,-4.3669,-4.3119,-4.2781,-4.0786,-3.8861,-3.8705,-3.69,-3.5492,-3.6102,-3.6686,-3.7553,-3.8957,-4.1086,-4.3328,-4.5615,-4.7229,0.0,-5.1411,-5.1812,-5.2412,-5.3825,-5.3682,-5.366,-5.4071,-5.42,-5.4285,-5.4285,-5.3974,-5.3789,-5.3789,-5.3507,-5.335,-5.335,-5.3564,-5.3638,-5.351,-5.3891,-5.4103,-5.4103,-5.4103,-5.4103,-5.4103,-5.4103,-5.4103,-5.4103,-5.4103,-5.4103,-5.4103,-5.4103,-5.4103,-5.4146,-5.4327,-5.4571,-5.4932,-5.5762,-5.5336,-5.4534,0.0,0.0,0.0,0.0,0.0,-2.2091,-2.2974,-2.4154,-2.4957,-2.5054,-2.5561,-2.5377,-2.3899,-2.3119,-2.2485,-2.1907,-2.1436,0.0,0.0,0.0,0.0,0.0,0.0,0.0,0.0,0.0,-2.4962,-2.5076,-2.5273,-2.5437,0.0,0.0,-2.6087,-2.6529,0.0,0.0,0.0,0.0,0.0,0.0,0.0,0.0,0.0,0.0,0.0,0.0,0.0,0.0,0.0,0.0,0.0,-3.6379,-3.6712,0.0,0.0,-4.0631,-4.2132,-4.3396,-4.377,-4.3615,-4.3187,-4.2725,-4.0909,-3.9031,-3.8385,-3.663,-3.5273,-3.5509,-3.606,-3.7046,-3.8661,-4.0602,-4.2784,-4.52,0.0,-4.8699,-5.072,-5.1353,-5.2021,-5.3277,-5.3216,-5.3281,-5.3755,-5.4105,-5.4327,-5.4327,-5.406,-5.3876,-5.3876,-5.3876,-5.3876,-5.3789,-5.3974,-5.4017,-5.3876,-5.4017,-5.4103,-5.4103,-5.4103,-5.4103,-5.4103,-5.4103,-5.4103,-5.4103,-5.4103,-5.3976,-5.3818,-5.4008,-5.3976,-5.3861,-5.4232,-5.4582,-5.4921,-5.5772,-5.5346,-5.4407,0.0,0.0,0.0,0.0,0.0,0.0,-2.2171,-2.3135,-2.3934,-2.4287,-2.4621,-2.4686,-2.432,-2.3345,-2.2548,-2.2222,-2.1597,0.0,0.0,0.0,0.0,0.0,0.0,0.0,0.0,0.0,-2.4677,-2.482,-2.4339,-2.4177,-2.4313,-2.4313,-2.4669,-2.5356,0.0,0.0,0.0,0.0,0.0,0.0,0.0,0.0,0.0,0.0,0.0,0.0,0.0,0.0,0.0,0.0,0.0,0.0,0.0,0.0,0.0,0.0,-4.1489,-4.2756,-4.3402,-4.3125,-4.2633,-4.2602,-4.0539,-3.8354,-3.7677,-3.5922,-3.4534,-3.468,-3.4854,-3.5739,-3.8321,-4.0064,-4.2141,-4.5271,-4.7054,0.0,-5.0876,-5.143,-5.1861,0.0,-5.293,-5.3123,-5.3123,-5.3724,-5.4103,-5.4103,-5.4103,-5.4103,-5.4103,-5.4103,-5.4017,-5.3789,-5.3974,-5.4103,-5.4103,-5.4103,-5.4103,-5.4103,-5.4103,-5.4103,-5.4103,-5.4103,-5.4103,-5.4103,-5.4103,-5.3724,-5.3155,-5.3818,-5.3724,-5.3186,-5.4073,-5.4953,-5.5805,-5.5805,-5.5805,-5.5719,0.0,0.0,0.0,0.0,0.0,0.0,0.0,-2.2979,-2.3747,-2.357,-2.4339,-2.476,-2.4287,-2.3803,-2.3304,-2.2725,-2.1777,0.0,0.0,0.0,0.0,0.0,0.0,0.0,0.0,0.0,-2.4548,-2.4856,-2.4789,-2.501,-2.5468,-2.5468,-2.5754,-2.6272,-2.7168,-2.7515,0.0,0.0,0.0,0.0,0.0,0.0,-3.0628,0.0,0.0,0.0,0.0,0.0,0.0,0.0,0.0,0.0,0.0,0.0,0.0,-3.7299,-3.9029,-4.0615,-4.0235,-4.0293,-4.0385,-3.9924,-3.8685,-3.7454,-3.6937,-3.5953,-3.4966,-3.4182,-3.494,-3.6292,-3.7812,-3.9452,-4.1528,-4.4625,-4.6309,-4.7831,0.0,0.0,0.0,-5.2509,-5.3311,-5.3787,-5.3787,-5.3976,-5.4103,-5.4103,-5.4103,-5.4103,-5.4103,-5.4103,-5.406,-5.4017,-5.406,-5.4103,-5.4103,-5.4103,-5.4103,-5.4103,-5.4103,-5.4103,-5.4103,-5.4103,-5.385,-5.3439,-5.3913,-5.3724,-5.3155,-5.3818,-5.3976,-5.3787,-5.4094,-5.4454,-5.4858,-5.4858,-5.4762,-5.4634,0.0,0.0,0.0,0.0,0.0,0.0,0.0,-2.2525,-2.3001,-2.2868,-2.3578,-2.406,-2.3831,-2.3781,-2.3599,-2.3185,-2.2262,0.0,0.0,0.0,0.0,0.0,0.0,0.0,-2.4096,-2.4514,-2.4777,-2.4905,-2.5357,-2.5708,-2.5985,-2.5861,-2.6078,-2.6566,-2.6947,-2.7108,0.0,0.0,0.0,0.0,0.0,0.0,-3.0278,0.0,0.0,0.0,0.0,0.0,0.0,0.0,0.0,0.0,0.0,0.0,0.0,0.0,-3.6874,-3.8546,-3.851,-3.8631,-3.8785,-3.8877,-3.7887,-3.6873,-3.6569,-3.5984,-3.5243,-3.4275,-3.5159,-3.6576,-3.7907,-3.9292,-4.1238,-4.4301,-4.5794,-4.7156,-4.8771,-4.9881,-5.0968,-5.2203,-5.3196,-5.3818,-5.4071,-5.4103,-5.4103,-5.4103,-5.4103,-5.4103,-5.4103,-5.4103,-5.4103,-5.4103,-5.4103,-5.4103,-5.4103,-5.4103,-5.4103,-5.4103,-5.4103,-5.4103,-5.4071,-5.385,-5.3502,-5.3123,-5.325,-5.306,0.0,-5.3439,-5.3724,-5.3755,-5.4008,-5.42,-5.4412,-5.4327,-5.4242,-5.42,0.0,0.0,0.0,0.0,0.0,0.0,0.0,-2.1917,-2.1956,-2.2197,-2.2506,-2.2818,-2.3095,-2.3429,-2.3666,-2.3695,0.0,0.0,0.0,0.0,0.0,0.0,0.0,0.0,-2.4099,-2.4972,-2.5263,-2.4988,-2.5924,-2.6277,-2.6095,-2.5829,-2.5955,-2.6365,-2.6038,-2.6202,-2.6788,-2.7239,-2.7619,-2.8052,-2.8767,-2.9317,0.0,0.0,0.0,0.0,0.0,0.0,0.0,0.0,0.0,0.0,0.0,0.0,0.0,0.0,0.0,0.0,0.0,-3.7768,-3.7646,-3.8877,-3.7769,-3.6415,-3.6415,-3.5984,0.0,-3.4804,-3.5416,-3.6617,-3.845,-3.9553,-4.1146,-4.4301,-4.5536,-4.6772,-4.8673,-4.9489,-5.0429,-5.1846,-5.2712,-5.3408,-5.404,-5.4103,-5.4103,-5.4103,-5.406,-5.406,-5.406,-5.406,-5.406,-5.406,-5.406,-5.4103,-5.4103,-5.4103,-5.4103,-5.4103,-5.4103,-5.4103,-5.4071,-5.3408,-5.3092,-5.2997,-5.2365,-5.2049,-5.208,-5.287,-5.3186,-5.325,-5.3871,-5.4263,-5.437,-5.422,-5.4263,-5.437,0.0,0.0,0.0,0.0,0.0,0.0,0.0,0.0,0.0,0.0,-2.2635,-2.3,-2.345,-2.3868,-2.4247,0.0,0.0,0.0,0.0,0.0,0.0,0.0,0.0,0.0,-2.4247,-2.4916,-2.5387,-2.5748,-2.6737,-2.7171,-2.7164,-2.7374,-2.7382,-2.7203,-2.695,-2.6573,-2.6104,-2.5867,-2.6467,-2.7617,-2.7696,-2.87,0.0,0.0,0.0,0.0,-3.1102,-3.1041,0.0,0.0,0.0,0.0,0.0,0.0,0.0,0.0,-3.4243,-3.4789,-3.4973,0.0,-3.5922,-3.5707,-3.5584,-3.5554,0.0,-3.5984,-3.5953,-3.4781,-3.5729,-3.7152,-3.8424,-3.9752,-4.1534,-4.4333,-4.5756,-4.6816,-4.7877,-4.9699,-5.128,-5.2136,-5.3207,-5.3859,-5.3844,-5.4017,-5.4017,-5.3876,-5.3876,-5.3876,-5.3876,-5.3671,-5.3671,-5.3876,-5.3876,-5.3931,-5.4103,-5.4103,-5.4103,-5.4103,-5.4103,-5.4103,-5.4071,-5.3408,-5.2807,-5.2302,-5.2681,-5.2523,-5.2112,-5.3344,-5.385,-5.3945,-5.4423,-5.4447,-5.4209,-5.4529,-5.4447,-5.4157,0.0,0.0,0.0,0.0,0.0,0.0,0.0,0.0,0.0,0.0,0.0,0.0,0.0,0.0,0.0,0.0,0.0,0.0,0.0,0.0,0.0,0.0,0.0,-2.3867,-2.4421,-2.5093,-2.5527,-2.5772,-2.7078,-2.7687,-2.7644,-2.8134,-2.8092,-2.7537,-2.6564,-2.5686,-2.4983,-2.4777,-2.532,-2.6431,-2.7041,0.0,0.0,0.0,0.0,0.0,-3.0133,-2.9839,0.0,-3.154,-3.2377,-3.2527,0.0,0.0,0.0,0.0,-3.4303,-3.4485,-3.4121,-3.4056,-3.4198,-3.4694,-3.4603,-3.4634,-3.5585,0.0,-3.5984,-3.5891,-3.6784,-3.8058,-3.9692,-4.0738,-4.2205,-4.4617,-4.5651,-4.658,-4.7854,-4.9643,-5.116,-5.2055,-5.2923,-5.3541,-5.3758,-5.3801,-5.3758,-5.3627,-5.3627,-5.3627,-5.3627,-5.3584,-5.3627,-5.3789,-5.3876,-5.3974,-5.4103,-5.4103,-5.4103,-5.4103,-5.4103,-5.3945,-5.3629,-5.2934,-5.2207,-5.1543,-5.1954,-5.208,-5.2112,-5.3186,-5.3818,-5.4123,-5.4631,-5.4473,-5.4025,-5.4455,-5.4267,-5.3833,0.0,0.0,0.0,0.0,0.0,0.0,0.0,0.0,0.0,0.0,0.0,0.0,0.0,0.0,0.0,0.0,0.0,0.0,0.0,0.0,0.0,0.0,-2.3751,-2.4044,-2.4802,-2.5427,-2.5804,-2.5901,-2.7269,-2.8009,-2.8029,-2.862,-2.8394,-2.7446,-2.5715,-2.455,-2.392,-2.4011,-2.4443,-2.5207,-2.6593,0.0,0.0,0.0,0.0,0.0,0.0,0.0,0.0,-2.985,-3.121,-3.2018,-3.163,0.0,0.0,0.0,0.0,0.0,-3.4395,-3.3417,-3.2972,-3.4758,-3.4482,-3.4266,-3.6042,-3.6167,-3.623,-3.7368,-3.7934,-3.8905,-4.1111,-4.169,-4.2587,-4.4891,-4.5573,-4.6474,-4.8243,-4.9623,-5.0803,-5.1859,-5.2503,-5.3098,-5.3683,-5.354,-5.3377,-5.3334,-5.3334,-5.3334,-5.3334,-5.3496,-5.3659,-5.3746,-5.3888,-5.406,-5.4103,-5.4103,-5.4103,-5.4103,-5.4008,-5.366,-5.3092,-5.2238,-5.1575,-5.1173,-5.1173,-5.1543,-5.2238,-5.2965,-5.366,-5.4281,-5.4788,-5.4606,-5.4241,-5.4559,-5.4327,-5.3827,0.0,0.0,0.0,0.0,0.0,0.0,0.0,0.0,0.0,0.0,0.0,0.0,0.0,0.0,0.0,0.0,0.0,0.0,0.0,0.0,0.0,-2.5702,-2.547,-2.5474,-2.5761,-2.5832,-2.6443,-2.7597,-2.784,-2.8265,-2.9012,-2.9404,-2.862,-2.6739,-2.5595,-2.4633,-2.3891,-2.3868,-2.4452,-2.5486,-2.6231,0.0,0.0,0.0,0.0,0.0,0.0,0.0,0.0,-2.9796,-3.0283,-3.0223,-3.1182,0.0,0.0,0.0,0.0,0.0,-3.524,-3.4304,-3.3412,-3.4851,-3.5369,-3.5914,-3.7309,-3.7717,-3.7849,0.0,-3.7926,-3.8494,-4.0747,-4.0852,-4.1555,-4.4554,-4.6088,-4.7394,-4.8853,-5.0129,-5.1141,-5.1922,-5.2975,-5.3577,-5.3465,-5.3421,-5.3365,-5.3144,-5.3175,-5.3175,-5.3175,-5.2966,-5.3055,-5.3452,-5.3465,-5.3683,-5.4103,-5.4103,-5.4103,-5.4103,-5.3534,-5.3218,-5.306,-5.1733,-5.1385,-5.1859,-5.1859,-5.227,-5.2997,-5.366,-5.4356,-5.5007,-5.548,-5.5745,-5.5879,-5.6119,-5.5886,-5.5489,0.0,0.0,0.0,0.0,0.0,0.0,0.0,0.0,0.0,0.0,0.0,0.0,0.0,0.0,0.0,0.0,0.0,0.0,0.0,0.0,-2.6303,-2.6382,-2.7008,-2.7139,-2.659,-2.6459,-2.6785,-2.7669,-2.8186,-2.8646,-2.9065,-2.916,-2.845,-2.7019,-2.5579,-2.4645,-2.4124,-2.3641,-2.3968,-2.4904,0.0,0.0,0.0,0.0,0.0,0.0,0.0,0.0,0.0,0.0,-2.9274,-2.9862,-3.069,0.0,0.0,0.0,0.0,0.0,-3.5297,-3.4481,-3.3638,-3.5545,-3.5394,-3.5152,-3.6421,-3.658,-3.6679,-3.741,-3.7952,-3.8832,-4.0608,-4.1531,-4.2802,-4.5263,-4.6207,-4.7215,-4.904,-4.9747,-5.0608,-5.2051,-5.2559,-5.2947,-5.3201,-5.31,-5.2966,-5.2908,-5.2877,-5.2877,-5.2877,-5.2877,-5.3042,-5.3233,-5.3334,-5.3584,-5.3931,-5.3962,-5.3816,-5.3566,-5.325,-5.2902,-5.2491,-5.1828,-5.1701,-5.2017,-5.2428,-5.2807,-5.3155,-5.3818,-5.4514,-5.5121,-5.5458,-5.5754,-5.5952,-5.5765,-5.5828,-5.5983,0.0,0.0,0.0,0.0,0.0,0.0,0.0,0.0,0.0,0.0,0.0,0.0,0.0,0.0,0.0,0.0,0.0,0.0,0.0,-2.5998,-2.64,-2.6711,-2.7889,-2.8115,-2.7281,-2.7118,-2.7343,-2.8001,-2.8431,-2.8816,-2.9126,-2.8828,-2.8252,-2.7324,-2.5661,-2.4702,-2.4264,-2.3649,-2.3701,-2.43,0.0,0.0,0.0,0.0,0.0,0.0,0.0,0.0,0.0,0.0,0.0,0.0,0.0,0.0,0.0,-3.3958,-3.3967,-3.3969,-3.5505,-3.4831,-3.4193,-3.6304,-3.5834,-3.5083,-3.5977,-3.6293,-3.6607,-3.7506,-3.8302,-3.9249,-4.0793,-4.2625,-4.4434,-4.5953,-4.6608,-4.7544,-4.9322,-4.9696,-5.0403,-5.2192,-5.2362,-5.2541,-5.3069,-5.2877,-5.2774,-5.2698,-5.2698,-5.2698,-5.2698,-5.2908,-5.3042,-5.3086,-5.3233,-5.3496,-5.3789,-5.3632,-5.3416,-5.3123,-5.3123,-5.2712,-5.2017,-5.2017,-5.2112,-5.2302,-5.287,-5.3186,-5.3376,-5.3882,-5.4565,-5.5298,-5.5489,-5.5851,-5.6133,-5.5797,-5.5953,-5.6215,0.0,0.0,0.0,0.0,0.0,0.0,0.0,0.0,0.0,0.0,0.0,0.0,0.0,0.0,0.0,0.0,0.0,0.0,0.0,-2.5945,-2.628,-2.7025,-2.7512,-2.7765,-2.7721,-2.7781,-2.8426,-2.9706,-2.8562,-2.8562,-2.9704,-2.9031,-2.8109,-2.6994,-2.5884,-2.4861,-2.4035,-2.4109,-2.4055,-2.406,-2.5349,0.0,0.0,0.0,0.0,0.0,0.0,0.0,0.0,0.0,0.0,0.0,0.0,0.0,-3.2895,-3.3421,-3.4928,-3.6438,-3.6562,-3.5848,-3.5406,-3.6811,-3.7391,-3.7606,-3.7659,-3.9038,-4.0197,-3.9921,-3.9247,-3.9355,-4.1535,-4.386,-4.5596,-4.6133,-4.7824,-4.9353,-5.0133,-5.0788,-5.1474,-5.2317,-5.2941,-5.3258,-5.31,-5.3086,-5.2997,-5.2729,-5.2698,-5.2698,-5.2698,-5.2729,-5.2833,-5.3086,-5.3131,-5.3352,-5.3789,-5.313,-5.2912,-5.3123,-5.3123,-5.2712,-5.2017,-5.2017,-5.2365,-5.3028,-5.3092,-5.3471,-5.404,-5.4071,-5.4762,-5.5781,-5.6023,-5.6629,-5.7386,-5.7339,-5.7086,-5.6765,0.0,0.0,0.0,0.0,0.0,0.0,0.0,0.0,0.0,0.0,0.0,0.0,0.0,0.0,0.0,0.0,0.0,0.0,0.0,-2.6081,-2.6474,-2.6956,-2.7803,-2.8365,-2.8672,-2.8557,-2.8937,-2.9856,-2.9174,-2.9059,-2.9535,-2.8847,-2.8214,-2.7637,-2.6298,-2.5615,-2.5435,-2.4823,-2.4622,-2.4708,-2.5037,-2.529,0.0,0.0,0.0,0.0,0.0,0.0,0.0,0.0,-2.8577,-2.8864,-3.0175,-3.0961,-3.1778,-3.3943,-3.4827,-3.5524,-3.728,-3.6264,-3.5146,-3.7092,-3.736,-3.7092,-3.6866,-3.799,-3.9104,-3.8852,-3.9738,-4.1096,-4.2887,-4.4067,-4.5295,-4.6832,-4.7738,-4.879,-5.0337,-5.077,-5.1358,-5.2471,-5.2812,-5.2922,-5.2863,-5.2863,-5.2788,-5.2729,-5.2698,-5.2698,-5.2698,-5.2698,-5.2774,-5.2863,-5.2863,-5.3055,-5.354,-5.3259,-5.3087,-5.3092,-5.2649,-5.227,-5.2017,-5.2491,-5.306,-5.3724,-5.3724,-5.3935,-5.4285,-5.4114,-5.4715,-5.5708,-5.6505,-5.7193,-5.7731,-5.759,-5.7401,-5.7211,0.0,0.0,0.0,0.0,0.0,0.0,0.0,0.0,0.0,0.0,0.0,0.0,0.0,0.0,0.0,0.0,0.0,0.0,-2.5884,-2.6087,-2.6356,-2.6659,-2.7656,-2.8346,-2.8743,-2.9074,-2.9538,-3.0108,-2.9849,-2.9518,-2.9029,-2.8725,-2.8273,-2.7754,-2.6367,-2.6089,-2.6593,-2.5257,-2.5039,-2.5551,-2.5062,-2.4998,0.0,0.0,0.0,0.0,0.0,0.0,0.0,0.0,-2.8816,-2.8998,-3.0339,-3.0959,-3.1599,-3.3465,-3.471,-3.5654,-3.6532,-3.5913,-3.5398,-3.6814,-3.6699,-3.6416,-3.7094,-3.8377,-3.9364,-3.9136,-4.0726,-4.2522,-4.3611,-4.4543,-4.5672,-4.7332,-4.8142,-4.9066,-5.0513,-5.0882,-5.1436,-5.2575,-5.2743,-5.2788,-5.2729,-5.2959,-5.3127,-5.3037,-5.3037,-5.3037,-5.3037,-5.2821,-5.2698,-5.2698,-5.2698,-5.2922,-5.3377,-5.319,-5.3063,-5.3092,-5.2586,-5.2365,-5.2365,-5.3092,-5.3703,-5.42,-5.42,-5.4327,-5.4497,-5.4285,-5.477,-5.5708,-5.6965,-5.7556,-5.7731,-5.759,-5.7448,-5.7353,0.0,0.0,0.0,0.0,0.0,0.0,0.0,0.0,0.0,0.0,0.0,0.0,0.0,0.0,0.0,0.0,0.0,0.0,-2.6362,-2.5897,-2.5771,-2.6175,-2.693,-2.7414,-2.7696,-2.9205,-3.0276,-3.0809,-3.0597,-2.9731,-2.8319,-2.8699,-2.8263,-2.7162,-2.5949,-2.6099,-2.7168,-2.5319,-2.5246,-2.6362,-2.5555,-2.5382,-2.5649,0.0,0.0,0.0,0.0,0.0,0.0,0.0,-2.9355,-2.7739,-3.0455,-3.1978,-3.2632,-3.178,-3.4695,-3.7469,-3.4114,-3.4766,-3.6315,-3.5913,-3.5512,-3.6015,-3.8978,-4.089,-4.1991,-4.1517,-4.2446,-4.3359,-4.3399,-4.5384,-4.7128,-4.7538,-4.9343,-5.0697,-5.0697,-5.1282,-5.1959,-5.2637,-5.2953,-5.2997,-5.2729,-5.3571,-5.3987,-5.3745,-5.3714,-5.3714,-5.3714,-5.3098,-5.2698,-5.2698,-5.2698,-5.2922,-5.3377,-5.2753,-5.2625,-5.3123,-5.3123,-5.3123,-5.3123,-5.3787,-5.42,-5.4412,-5.4412,-5.4539,-5.4771,-5.4497,-5.498,-5.5956,-5.7337,-5.7731,-5.7495,-5.7495,-5.7322,-5.7084,0.0,0.0,0.0,0.0,0.0,0.0,0.0,0.0,0.0,0.0,0.0,0.0,0.0,0.0,0.0,0.0,0.0,0.0,-2.6011,-2.6149,-2.6163,-2.598,-2.6832,-2.7779,-2.8803,-2.9813,-3.0432,-3.0688,-2.9808,-2.9036,-2.827,-2.7496,-2.6907,-2.642,-2.6311,-2.6703,-2.7516,-2.7143,-2.7052,-2.7137,-2.6896,-2.6522,-2.6092,0.0,0.0,0.0,0.0,0.0,0.0,0.0,0.0,0.0,-3.1477,-3.1928,-3.2237,-3.2945,-3.4547,-3.5769,-3.4717,-3.5017,-3.6012,-3.7234,-3.7166,-3.7557,-4.066,-4.1022,-4.1302,-4.3129,-4.3777,-4.4398,-4.5697,-4.6527,-4.7463,-4.887,-4.9589,-5.0328,-5.1282,-5.1559,-5.1959,-5.2637,-5.2743,-5.3004,-5.3375,-5.3667,-5.3975,-5.4345,-5.3991,-5.3714,-5.3714,-5.3203,-5.2908,-5.2729,-5.2877,-5.31,-5.3377,-5.319,-5.3357,-5.3787,-5.3787,-5.3566,-5.3123,-5.3787,-5.42,-5.4412,-5.4242,-5.4528,-5.5021,-5.5293,-5.5727,-5.6385,-5.7123,-5.7694,-5.8043,-5.7825,-5.7637,-5.7401,0.0,0.0,0.0,0.0,0.0,0.0,0.0,0.0,0.0,0.0,0.0,0.0,0.0,0.0,0.0,0.0,0.0,0.0,0.0,-2.6263,-2.6253,-2.5761,-2.6877,-2.8193,-2.9636,-2.9997,-3.0485,-3.1096,-2.9824,-2.8864,-2.8186,-2.7698,-2.7354,-2.7101,-2.6698,-2.7223,-2.8405,-2.7495,-2.7584,-2.8248,-2.7446,-2.7112,-2.7033,0.0,0.0,0.0,0.0,0.0,0.0,0.0,0.0,0.0,-3.1596,-3.1917,-3.1981,-3.249,-3.4158,-3.5555,-3.4306,-3.5339,-3.7024,-3.8065,-3.8438,-3.9253,-4.1769,-4.2129,-4.2566,-4.4713,-4.5095,-4.5507,-4.6852,-4.7486,-4.8243,-4.9524,-5.0168,-5.0716,-5.1427,-5.1884,-5.2267,-5.2667,-5.2698,-5.2975,-5.3607,-5.3914,-5.4252,-5.4652,-5.4407,-5.4083,-5.3745,-5.3324,-5.3042,-5.2833,-5.3042,-5.3264,-5.354,-5.3584,-5.3758,-5.4103,-5.4103,-5.3882,-5.3502,-5.3913,-5.4274,-5.4571,-5.4581,-5.4822,-5.5136,-5.5718,-5.5932,-5.6017,-5.6987,-5.7484,-5.7726,-5.787,-5.7731,-5.7495,0.0,0.0,0.0,0.0,0.0,0.0,0.0,0.0,0.0,0.0,-2.6919,0.0,0.0,0.0,0.0,0.0,0.0,0.0,0.0,-2.6294,-2.6178,-2.5522,-2.7001,-2.8545,-3.0114,-2.9849,-3.0361,-3.1661,-3.0319,-2.9126,-2.8161,-2.8681,-2.8747,-2.8441,-2.7088,-2.7718,-2.9566,-2.7211,-2.7471,-2.9343,-2.7666,-2.7486,-2.813,-2.6943,0.0,0.0,0.0,0.0,0.0,0.0,0.0,0.0,-3.1108,-3.1852,-3.1895,-3.1019,-3.3565,-3.6077,-3.3196,-3.5552,-3.8745,-3.846,-3.9639,-4.1219,-4.268,-4.3916,-4.5099,-4.5998,-4.6292,-4.6591,-4.7306,-4.8283,-4.9252,-4.9938,-5.0975,-5.1625,-5.1434,-5.2164,-5.2698,-5.2698,-5.2698,-5.3006,-5.3699,-5.4283,-5.4652,-5.4775,-5.4885,-5.4591,-5.3745,-5.3324,-5.3086,-5.3086,-5.3131,-5.3352,-5.3746,-5.3789,-5.3919,-5.4103,-5.4103,-5.4103,-5.4103,-5.4146,-5.4359,-5.4813,-5.5237,-5.5319,-5.5178,-5.5886,-5.5794,-5.5316,-5.6899,-5.7214,-5.6929,-5.7604,-5.7668,-5.7495,0.0,0.0,0.0,0.0,0.0,0.0,0.0,0.0,0.0,0.0,0.0,0.0,0.0,0.0,0.0,0.0,0.0,0.0,0.0,-2.6233,-2.6028,-2.5522,-2.7059,-2.8499,-2.9694,-2.9785,-3.0119,-3.0779,-2.9786,-2.9354,-2.9379,-2.8031,-2.7524,-2.7723,-2.7503,-2.8323,-2.9825,-2.9491,-2.9389,-2.952,-2.9729,-2.9022,-2.7825,-2.7848,-2.8018,0.0,0.0,0.0,0.0,0.0,0.0,0.0,-3.0518,-3.1597,-3.2353,-3.0825,-3.2807,-3.4944,-3.2458,-3.4909,-3.8283,-3.9061,-4.1711,-4.4369,-4.5122,-4.5868,-4.6248,-4.5693,-4.6394,-4.7396,-4.8447,-4.8832,-4.9448,-5.0812,-5.1414,-5.1854,-5.2332,-5.2561,-5.2698,-5.2698,-5.2698,-5.3191,-5.4345,-5.4129,-5.436,-5.5407,-5.4561,-5.3914,-5.3714,-5.3324,-5.2997,-5.2788,-5.3144,-5.3377,-5.3496,-5.3702,-5.3919,-5.4103,-5.4103,-5.4103,-5.4103,-5.4242,-5.4528,-5.4813,-5.5237,-5.5319,-5.5178,-5.5854,-5.5932,-5.5729,-5.6459,-5.6905,-5.7141,-5.7298,-5.74,-5.7495,0.0,0.0,0.0,0.0,0.0,0.0,0.0,0.0,0.0,0.0,0.0,0.0,0.0,0.0,0.0,0.0,0.0,0.0,0.0,0.0,-2.667,-2.6791,-2.7699,-2.8575,-2.9495,-2.9838,-3.0178,-3.0484,-3.0174,-2.9943,-2.9774,-2.8158,-2.7616,-2.7919,-2.7483,-2.8158,-2.9534,-2.9315,-2.9568,-3.0191,-3.0153,-2.9598,-2.883,-2.8651,-2.8319,-2.7887,-2.7604,0.0,0.0,0.0,0.0,0.0,0.0,0.0,-3.1983,-3.1038,-3.2825,-3.4829,-3.376,-3.5942,-3.8827,-4.0434,-4.3065,-4.5352,-4.575,-4.6486,-4.697,-4.6411,-4.707,-4.8055,-4.8966,-4.9505,-5.0108,-5.1243,-5.1742,-5.2119,-5.2457,-5.2608,-5.2698,-5.2698,-5.2698,-5.3252,-5.456,-5.4068,-5.4145,-5.5161,-5.4391,-5.3682,-5.3252,-5.3138,-5.3055,-5.3055,-5.3246,-5.3509,-5.3726,-5.3888,-5.3974,-5.4103,-5.4103,-5.4146,-5.4242,-5.437,-5.4539,-5.4813,-5.5113,-5.5278,-5.5237,-5.5592,-5.5628,-5.5515,-5.6007,-5.6257,-5.6449,-5.7024,-5.7132,-5.7059,0.0,0.0,0.0,0.0,0.0,0.0,0.0,0.0,0.0,0.0,0.0,0.0,0.0,0.0,0.0,0.0,0.0,0.0,0.0,0.0,0.0,-2.814,-2.8296,-2.8722,-2.9505,-3.0039,-3.0434,-3.0662,-3.0782,-3.0574,-3.0071,-2.8899,-2.8444,-2.8612,-2.7881,-2.8217,-2.9233,-2.8724,-2.9341,-3.0637,-2.9973,-2.9833,-2.9926,-2.9202,-2.8381,-2.7635,-2.784,-2.7994,-2.8169,-2.8521,0.0,0.0,0.0,0.0,-3.1466,-3.1164,-3.2963,-3.499,-3.5059,-3.711,-3.9756,-4.1712,-4.3696,-4.5215,-4.5365,-4.6261,-4.713,-4.713,-4.7758,-4.8476,-4.9179,-5.002,-5.0819,-5.1574,-5.2033,-5.2306,-5.2352,-5.2563,-5.2698,-5.2698,-5.2698,-5.3191,-5.4406,-5.3914,-5.3837,-5.4468,-5.4113,-5.354,-5.2729,-5.2908,-5.31,-5.3246,-5.3334,-5.3596,-5.3974,-5.406,-5.4103,-5.4103,-5.4103,-5.4157,-5.437,-5.437,-5.4528,-5.4813,-5.5031,-5.5237,-5.5328,-5.5369,-5.5246,-5.5136,-5.5505,-5.5613,-5.5609,-5.6657,-5.6818,-5.6637,0.0,0.0,0.0,0.0,0.0,0.0,0.0,0.0,0.0,0.0,0.0,0.0,0.0,0.0,0.0,0.0,0.0,0.0,0.0,0.0,0.0,-2.793,-2.8112,-2.8757,-2.9891,-3.0165,-3.0654,-3.1364,-3.0788,-3.0783,-3.1315,-3.0218,-2.9693,-2.9653,-3.0153,-3.0053,-2.9609,-3.0214,-3.0284,-2.9969,-3.0392,-3.0141,-2.9574,-2.9327,-2.8743,-2.8031,-2.8066,-2.7723,-2.7354,-2.8047,-2.8596,0.0,0.0,0.0,-3.1348,-3.052,-3.2486,-3.4718,-3.3552,-3.6541,-4.0246,-4.1548,-4.3289,-4.4655,-4.4512,-4.546,-4.6399,-4.6399,-4.7429,-4.8476,-4.9179,-5.002,-5.091,-5.1789,-5.2155,-5.2397,-5.2608,-5.2653,-5.2698,-5.2698,-5.2698,-5.3006,-5.373,-5.3252,-5.3129,-5.376,-5.3221,-5.2821,-5.2729,-5.2698,-5.2743,-5.2788,-5.3157,-5.3421,-5.3465,-5.3931,-5.4103,-5.4103,-5.4103,-5.4103,-5.4146,-5.4146,-5.4359,-5.4813,-5.5196,-5.5278,-5.5155,-5.5328,-5.5246,-5.5072,-5.4992,-5.5155,-5.5545,-5.6119,-5.6514,-5.6837,0.0,0.0,0.0,0.0,0.0,0.0,0.0,0.0,0.0,0.0,0.0,0.0,0.0,0.0,0.0,0.0,0.0,0.0,0.0,0.0,0.0,-2.8261,-2.8384,-2.8922,-2.9997,-3.0356,-3.0737,-3.1158,-3.1213,-3.1352,-3.1532,-3.1516,-3.1112,-3.0425,-3.0522,-3.0394,-3.0162,-2.9782,-2.9802,-3.0085,-2.9637,-2.9227,-2.8896,-2.8805,-2.8389,-2.7875,-2.8309,-2.8412,-2.8341,-2.862,-2.9041,-2.9412,-2.9318,0.0,0.0,0.0,-3.1965,-3.3517,-3.4497,-3.7181,-3.9955,-4.1104,-4.2674,-4.3983,-4.4206,-4.5364,-4.6279,-4.6279,-4.7369,-4.8476,-4.9179,-5.0321,-5.1333,-5.1895,-5.22,-5.2397,-5.2653,-5.2698,-5.2698,-5.2698,-5.2698,-5.2975,-5.3607,-5.3098,-5.3006,-5.3683,-5.3098,-5.2698,-5.2698,-5.2698,-5.2743,-5.2908,-5.3201,-5.3465,-5.3627,-5.3931,-5.4103,-5.4103,-5.4103,-5.4103,-5.4103,-5.4359,-5.4603,-5.4813,-5.4989,-5.5155,-5.5278,-5.5237,-5.5278,-5.5237,-5.4781,-5.4804,-5.5144,-5.5467,-5.5852,-5.6364,0.0,0.0,0.0,0.0,0.0,0.0,0.0,0.0,0.0,0.0,0.0,0.0,0.0,0.0,0.0,0.0,0.0,0.0,0.0,0.0,0.0,-2.8687,-2.8557,-2.8959,-2.992,-3.0418,-3.0747,-3.0788,-3.1523,-3.1797,-3.1585,-3.2502,-3.2705,-3.2322,-3.1675,-3.1201,-3.0813,-2.9899,-2.9948,-3.0477,-2.9391,-2.8939,-2.8889,-2.8707,-2.8337,-2.8028,-2.8673,-2.9045,-2.9234,-2.9399,-2.9794,-3.0133,-2.9866,-3.0032,0.0,0.0,0.0,-3.2578,-3.5093,-3.7198,-3.8949,-4.0218,-4.1671,-4.3,-4.3658,-4.4855,-4.5831,-4.6022,-4.713,-4.8237,-4.894,-5.0125,-5.1136,-5.144,-5.1592,-5.1939,-5.2532,-5.2594,-5.2686,-5.2978,-5.2886,-5.2978,-5.35,-5.2917,-5.2733,-5.3254,-5.2825,-5.261,-5.2794,-5.2655,-5.279,-5.3155,-5.3295,-5.3496,-5.3702,-5.3974,-5.4103,-5.4103,-5.4114,-5.4189,-5.4189,-5.4603,-5.4813,-5.4896,-5.4896,-5.5031,-5.5287,-5.5155,-5.5237,-5.5328,-5.4749,-5.4613,-5.4793,-5.5023,-5.533,-5.5732,0.0,0.0,0.0,0.0,0.0,0.0,0.0,0.0,0.0,0.0,0.0,0.0,-2.9372,-2.9346,-2.9328,-2.9486,0.0,0.0,0.0,0.0,0.0,-2.8871,-2.8511,0.0,-2.9792,-3.0364,-3.0593,-3.0447,-3.1422,-3.1862,-3.181,-3.2986,-3.4559,-3.627,-3.4922,-3.3352,-3.1655,-3.193,-3.1665,-3.1035,-3.0458,-3.0228,-3.0227,-2.9527,-2.91,-2.8937,-2.9135,-2.9192,-2.9328,-3.021,-3.0786,-3.101,-3.0364,-3.0455,-3.0725,0.0,0.0,0.0,-3.4175,-3.5659,-3.7037,-3.8523,-4.0226,-4.1654,-4.2351,-4.3479,-4.4586,-4.5214,-4.6411,-4.7549,-4.8207,-4.894,-4.9554,-5.0031,-5.012,-5.0634,-5.2108,-5.2291,-5.2734,-5.3719,-5.3354,-5.299,-5.302,-5.2443,-5.2048,-5.2078,-5.2078,-5.2321,-5.2959,-5.2582,-5.2612,-5.3284,-5.3365,-5.3421,-5.3421,-5.3856,-5.4103,-5.4103,-5.4285,-5.4412,-5.4412,-5.4655,-5.4896,-5.5072,-5.5072,-5.5113,-5.5113,-5.5113,-5.5237,-5.5369,-5.4948,-5.4771,-5.4793,-5.5023,-5.5102,-5.5228,0.0,0.0,0.0,0.0,0.0,0.0,0.0,0.0,0.0,0.0,0.0,0.0,0.0,-3.0749,-3.0616,-3.0352,-3.0023,0.0,0.0,0.0,0.0,-2.9457,-2.8864,-2.9171,-3.0521,-3.0408,-3.0831,-3.1947,-3.1787,-3.2288,-3.3357,-3.3525,-3.4565,-3.6259,-3.5359,-3.4629,-3.413,-3.286,-3.2189,-3.1914,-3.1035,-3.0687,-3.0634,-3.0378,-3.0163,-3.0019,-3.0033,-3.0037,-3.0084,-3.0319,-3.0432,-3.0446,-3.0431,-3.0776,-3.1189,-3.1073,-3.1673,-3.2618,-3.3991,-3.4988,-3.622,-3.8597,-3.9659,-4.0516,-4.2051,-4.306,-4.3947,-4.5065,-4.6022,-4.686,-4.7549,-4.8669,-4.9568,-4.9702,-5.0012,-5.0479,-5.1348,-5.156,-5.1941,-5.2579,-5.2488,-5.2366,-5.2366,-5.2123,-5.2002,-5.2002,-5.2002,-5.2367,-5.3146,-5.3024,-5.33,-5.4144,-5.439,-5.4501,-5.4505,-5.481,-5.4846,-5.456,-5.4613,-5.4655,-5.4655,-5.4864,-5.5031,-5.5113,-5.5113,-5.5196,-5.5246,-5.5155,-5.5237,-5.5328,-5.4749,-5.4655,-5.4761,-5.4559,-5.5051,-5.5841,0.0,0.0,0.0,0.0,0.0,0.0,0.0,0.0,0.0,-3.1943,0.0,0.0,0.0,0.0,-3.1633,-3.1669,-3.114,-3.0904,-3.1212,-3.046,-3.0138,-3.0477,-2.9697,-2.9742,-3.0663,-3.0458,-3.0976,-3.2305,-3.1893,-3.2326,-3.3529,-3.3516,-3.4339,-3.5818,-3.5473,-3.5582,-3.5869,-3.449,-3.3589,-3.3061,-3.2212,-3.1747,-3.1477,-3.1564,-3.1406,-3.111,-3.1094,-3.0998,-3.0894,-3.0801,-3.0692,-3.061,-3.0813,-3.1076,-3.1236,0.0,0.0,0.0,-3.3551,-3.4157,-3.5115,-3.7485,-3.8422,-3.92,-4.0965,-4.2222,-4.3329,-4.4407,-4.5364,-4.6172,-4.686,-4.8009,-4.8862,-4.8906,-4.93,-4.987,-5.0848,-5.1105,-5.15,-5.2425,-5.2271,-5.2074,-5.2074,-5.1892,-5.1741,-5.1741,-5.1741,-5.2136,-5.3006,-5.313,-5.3698,-5.4792,-5.5101,-5.5156,-5.5014,-5.5233,-5.5143,-5.4655,-5.4771,-5.4854,-5.4938,-5.5113,-5.5196,-5.5196,-5.5196,-5.5278,-5.5369,-5.5196,-5.5237,-5.5328,-5.4749,-5.4655,-5.4729,-5.4274,-5.4672,-5.5525,0.0,0.0,0.0,0.0,0.0,0.0,0.0,0.0,-3.229,-3.229,0.0,0.0,0.0,0.0,0.0,-3.3492,-3.2779,-3.2846,-3.4135,-3.2345,-3.1424,-3.1856,0.0,0.0,-3.0127,-3.0474,-3.091,-3.1362,-3.1706,-3.2027,-3.2287,-3.2971,-3.4005,-3.5286,-3.5652,-3.6148,-3.6709,-3.6807,-3.5919,-3.4524,-3.4179,-3.3608,-3.2934,-3.3126,-3.2835,-3.229,-3.2357,-3.2129,-3.1747,-3.1737,-3.1715,-3.1667,-3.1442,-3.1278,0.0,0.0,0.0,0.0,0.0,0.0,0.0,-3.5096,-3.6447,-3.7734,-3.9074,-4.0905,-4.25,-4.314,-4.4347,-4.5454,-4.613,-4.683,-4.7322,-4.7508,-4.7794,-4.8663,-5.0666,-5.0864,-5.15,-5.326,-5.269,-5.2157,-5.2127,-5.1588,-5.1229,-5.1229,-5.1229,-5.1623,-5.2567,-5.2893,-5.3743,-5.5117,-5.5393,-5.5354,-5.4813,-5.5046,-5.4885,-5.4412,-5.4697,-5.4938,-5.5113,-5.5287,-5.5409,-5.5409,-5.5409,-5.5409,-5.5369,-5.5196,-5.5237,-5.5369,-5.4948,-5.4813,-5.4729,-5.4274,-5.4134,-5.4261,0.0,0.0,0.0,0.0,0.0,0.0,-3.4553,-3.4608,-3.4594,0.0,0.0,0.0,-3.4073,-3.3327,-3.2863,-3.2869,-3.2681,-3.2464,-3.2358,-3.2269,-3.1918,-3.1218,-3.0976,-3.0813,-3.0738,-3.0722,-3.1409,-3.2809,-3.2182,-3.2541,-3.3845,-3.3316,-3.3767,-3.4963,-3.592,-3.6687,-3.7299,-3.757,-3.7658,-3.754,-3.7508,-3.6871,-3.5984,-3.6029,-3.5327,-3.4306,-3.4331,-3.3525,-3.2506,-3.2777,-3.199,-3.0969,-3.1367,0.0,0.0,0.0,0.0,0.0,-3.2661,0.0,0.0,0.0,0.0,0.0,-3.902,-3.9828,-4.0816,-4.2871,-4.3589,-4.4227,-4.5364,-4.6142,-4.6591,-4.6634,-4.7237,-4.8028,-4.8908,-4.9583,-5.0095,-5.0439,-5.1066,-5.1319,-5.0794,-5.1003,-5.1229,-5.1229,-5.1229,-5.1686,-5.2802,-5.4216,-5.5374,-5.6272,-5.6699,-5.6511,-5.5548,-5.5917,-5.562,-5.4697,-5.4906,-5.5031,-5.5113,-5.5287,-5.5409,-5.5409,-5.5409,-5.5409,-5.5409,-5.5328,-5.5328,-5.5369,-5.5113,-5.4938,-5.4771,-5.4444,-5.4865,-5.5651,0.0,0.0,0.0,0.0,0.0,-3.4504,-3.5095,-3.5097,-3.5029,0.0,0.0,0.0,-3.4365,-3.4153,-3.3869,-3.3314,-3.3211,-3.315,-3.3168,-3.2661,-3.2294,-3.2145,-3.1718,-3.1348,-3.1123,-3.1156,-3.1898,-3.3393,-3.2863,-3.3434,-3.5035,-3.4326,-3.4339,-3.4948,-3.5663,-3.6611,-3.7696,-3.8241,-3.867,-3.8968,-3.8994,-3.8582,-3.8015,-3.7921,-3.7087,-3.5953,-3.5927,-3.4945,-3.3608,-3.3557,-3.2349,-3.0918,-3.0803,-3.1145,0.0,0.0,0.0,0.0,0.0,0.0,0.0,0.0,0.0,0.0,-3.7793,-3.8841,-3.9881,-4.1705,-4.2722,-4.3529,-4.4347,-4.5244,-4.5903,-4.5903,-4.6286,-4.7061,-4.8293,-4.8862,-4.9267,-4.9404,-5.0034,-5.0361,-5.0196,-5.0524,-5.0883,-5.1199,-5.1229,-5.1884,-5.3368,-5.4752,-5.5927,-5.6779,-5.7258,-5.7059,-5.6088,-5.627,-5.5927,-5.5059,-5.4909,-5.4864,-5.4948,-5.5196,-5.5246,-5.5246,-5.5369,-5.5409,-5.5409,-5.5409,-5.5409,-5.5369,-5.5196,-5.4948,-5.4771,-5.4497,-5.4792,-5.5399,0.0,0.0,0.0,-3.4874,-3.4725,-3.4711,-3.5476,-3.5057,-3.4664,0.0,-3.436,-3.4073,-3.397,-3.4631,-3.4844,-3.4312,-3.4028,-3.4276,-3.5159,-3.3414,-3.281,-3.3706,-3.2874,-3.2117,-3.1521,-3.1794,-3.2462,-3.3473,-3.3641,-3.4401,-3.575,-3.5467,-3.5263,-3.51,-3.5373,-3.642,-3.8018,-3.8945,-3.9485,-3.9633,-3.9563,-3.9511,-3.9433,-3.912,-3.8427,-3.7526,-3.7407,-3.634,-3.4841,-3.4003,-3.2775,-3.1402,-3.022,-3.0546,-3.1378,-3.1689,-3.2507,0.0,0.0,0.0,0.0,0.0,-3.3867,0.0,-3.6118,-3.7759,-3.9284,-4.0127,-4.1645,-4.2901,-4.305,-4.4097,-4.4934,-4.4975,-4.5035,-4.5837,-4.7929,-4.8303,-4.8544,-4.9056,-4.9149,-4.9374,-4.9927,-5.0106,-5.0465,-5.1169,-5.1289,-5.2154,-5.3988,-5.4853,-5.5735,-5.673,-5.7211,-5.7183,-5.6528,-5.6266,-5.5929,-5.545,-5.4762,-5.4571,-5.4813,-5.5031,-5.5155,-5.5155,-5.5287,-5.5369,-5.5369,-5.5369,-5.5369,-5.5369,-5.5196,-5.4989,-5.4771,-5.4539,-5.4348,-5.443,0.0,0.0,-3.3973,-3.5391,-3.5297,-3.5529,-3.7016,-3.6844,-3.6513,-3.6343,-3.5911,-3.5732,-3.6085,-3.51,-3.4463,-3.4639,-3.4196,-3.3919,-3.3891,-3.4372,-3.4104,-3.2928,-3.3767,-3.3793,-3.2671,-3.2893,-3.3356,-3.4047,-3.4218,-3.4753,-3.5548,-3.529,-3.5141,-3.5168,-3.632,-3.7437,-3.8584,-4.0321,-4.1497,-4.2135,-4.1697,-4.1356,-4.1074,-4.0592,-4.0123,-3.9732,-3.9259,-3.8105,-3.6289,-3.3582,-3.2735,-3.2567,-3.1218,-3.1447,-3.2252,-3.2605,-3.3115,0.0,0.0,0.0,0.0,-3.3472,-3.4063,0.0,-3.5574,-3.6287,-3.7352,-3.9224,-3.9771,-4.0301,-4.1526,-4.2285,-4.2783,-4.294,-4.3359,-4.4227,-4.5705,-4.6394,-4.6574,-4.6196,-4.7532,-4.8536,-4.8656,-4.9613,-5.0465,-5.1169,-5.1927,-5.2941,-5.4443,-5.5001,-5.5687,-5.6439,-5.6923,-5.6964,-5.6528,-5.6085,-5.5632,-5.5158,-5.4879,-5.4771,-5.4813,-5.5196,-5.5328,-5.5328,-5.5237,-5.5155,-5.5155,-5.5155,-5.5246,-5.5409,-5.5369,-5.5113,-5.4771,-5.4771,-5.4953,-5.5248,0.0,0.0,-3.4096,-3.5421,-3.6079,-3.6743,-3.7572,-3.7849,-3.7919,-3.7833,-3.7384,-3.7191,-3.7445,-3.6186,-3.5217,-3.4835,-3.4868,-3.4744,-3.4441,-3.4605,-3.4522,-3.4107,-3.462,-3.4588,-3.3845,-3.4352,-3.4592,-3.4497,-3.5383,-3.606,-3.6481,-3.6554,-3.6891,-3.7416,-3.7585,-3.8424,-3.9803,-4.1022,-4.1976,-4.2706,-4.2387,-4.2247,-4.2172,-4.1812,-4.1293,-4.0739,-4.0329,-3.8912,-3.6887,-3.4894,-3.3726,-3.297,-3.2164,-3.2019,-3.2224,-3.2833,-3.3297,-3.3624,-3.3826,-3.4068,-3.4087,-3.3606,-3.3962,0.0,0.0,-3.58,-3.6633,-3.8118,-3.859,-3.9092,-4.018,-4.086,-4.139,-4.1833,-4.2132,-4.2581,-4.324,-4.4496,-4.5304,-4.5304,-4.6172,-4.707,-4.7728,-4.8386,-4.9464,-5.1109,-5.2252,-5.3387,-5.4526,-5.528,-5.5908,-5.6372,-5.6875,-5.6977,-5.6808,-5.6495,-5.6001,-5.5474,-5.513,-5.4836,-5.4613,-5.4948,-5.5155,-5.5237,-5.5155,-5.5155,-5.5237,-5.5155,-5.5237,-5.5409,-5.5409,-5.5237,-5.498,-5.498,-5.5037,-5.5208,0.0,0.0,0.0,-3.5538,-3.6804,-3.7696,-3.7767,-3.8336,-3.873,-3.8483,-3.8337,-3.8199,-3.811,-3.722,-3.6306,-3.5498,-3.5672,-3.5802,-3.5675,-3.4917,-3.4775,-3.5399,-3.5248,-3.5001,-3.4741,-3.552,-3.5652,-3.5141,-3.6599,-3.7407,-3.7648,-3.8098,-3.8769,-3.9601,-3.8976,-3.9555,-4.1086,-4.177,-4.2358,-4.2846,-4.3003,-4.3123,-4.3182,-4.2782,-4.2269,-4.17,-4.1024,-3.9547,-3.7664,-3.66,-3.5214,-3.3776,-3.3203,-3.2644,-3.2372,-3.2897,-3.3333,-3.3709,-3.4196,-3.4089,-3.3817,-3.3732,-3.3888,-3.4224,0.0,0.0,0.0,-3.6905,-3.7506,-3.8107,-3.8794,-3.945,-4.0047,-4.0509,-4.0689,-4.0778,-4.0816,-4.2282,-4.3658,-4.4436,-4.4766,-4.5394,-4.6621,-4.7189,-4.8536,-5.102,-5.2306,-5.3451,-5.4458,-5.5417,-5.6028,-5.6323,-5.673,-5.6988,-5.7084,-5.6856,-5.6444,-5.5799,-5.5374,-5.494,-5.4497,-5.4739,-5.4948,-5.5155,-5.5113,-5.5196,-5.5328,-5.5155,-5.526,-5.5481,-5.5433,-5.5246,-5.5113,-5.5113,-5.4948,-5.4963,-3.4628,-3.4735,0.0,0.0,-3.7156,-3.7784,-3.796,-3.8396,-3.8316,-3.729,-3.791,-3.8171,-3.7466,-3.722,-3.7236,-3.751,-3.6348,-3.6035,-3.6911,-3.6174,-3.5444,-3.4906,-3.5273,-3.5284,-3.4824,-3.5378,-3.5881,-3.633,-3.7183,-3.7765,-3.8038,-3.863,-3.906,-3.939,-4.0323,-4.1164,-4.1971,-4.3492,-4.409,-4.4037,-4.4831,-4.4869,-4.4339,-4.3526,-4.3512,-4.3612,-4.1586,-4.0574,-3.9842,-3.7762,-3.6962,-3.6463,-3.4354,-3.3806,-3.3847,-3.3414,-3.3431,-3.3675,-3.4025,-3.4206,-3.4234,-3.3817,-3.4043,-3.4268,-3.394,0.0,-3.5058,-3.5678,0.0,-3.6389,-3.7074,0.0,0.0,-3.7729,-3.8115,-3.8537,-3.8721,-3.9439,-4.0427,-4.1683,-4.2851,-4.3798,-4.4586,-4.68,-4.9015,-5.1079,-5.1887,-5.2875,-5.4181,-5.512,-5.578,-5.6028,-5.6323,-5.6682,-5.7084,-5.6747,-5.6292,-5.5799,-5.5581,-5.5229,-5.4771,-5.4948,-5.5196,-5.5369,-5.5196,-5.5113,-5.5113,-5.5113,-5.5342,-5.5729,-5.5504,-5.5246,-5.5113,-5.5113,-5.4948,-5.4909,-3.4796,-3.4931,0.0,0.0,-3.775,-3.8838,-3.8219,-3.9077,-3.9706,-3.9486,-3.9406,-3.9491,-3.9773,-3.8921,-3.8418,-3.8635,-3.7772,-3.7353,-3.7776,-3.699,0.0,-3.6612,-3.6778,-3.6849,-3.6568,-3.7219,-3.7342,-3.6999,-3.8113,-3.8441,-3.8145,-3.9195,-3.9997,-4.0604,-4.1635,-4.252,-4.3354,-4.4332,-4.4627,-4.4566,-4.5183,-4.542,-4.5348,-4.494,-4.4566,-4.4032,-4.278,-4.1723,-4.0667,-3.9112,-3.8286,-3.7545,-3.5521,-3.4674,-3.4383,-3.3807,-3.3684,-3.3813,-3.4025,-3.4524,-3.484,-3.4268,-3.4554,-3.4874,-3.4401,-3.4426,-3.4622,-3.4986,0.0,0.0,0.0,0.0,0.0,0.0,-3.7227,-3.7623,-3.8221,-3.8519,-3.9211,-4.0666,-4.1624,-4.2611,-4.3618,-4.5813,-4.7818,-4.9404,-5.0481,-5.1798,-5.3533,-5.4499,-5.5338,-5.5979,-5.6274,-5.6567,-5.6923,-5.7026,-5.6575,-5.5573,-5.5784,-5.5525,-5.4813,-5.4896,-5.5113,-5.5369,-5.5196,-5.5422,-5.5892,-5.5767,-5.6186,-5.684,-5.6718,-5.6288,-5.5693,-5.5274,-5.5288,-5.5611,-3.5361,0.0,0.0,0.0,-3.8371,-3.9744,-3.9429,-4.0056,-4.0759,-4.1168,-4.0748,-4.0628,-4.1173,-4.0481,-3.9939,-3.9762,-3.9222,-3.8917,-3.8865,-3.7866,-3.7475,-3.7874,-3.7717,-3.7639,-3.7665,-3.8111,-3.8113,-3.7543,-3.8774,-3.9051,-3.8541,-3.9996,-4.1012,-4.166,-4.2708,-4.3595,-4.4365,-4.4946,-4.5079,-4.5014,-4.5605,-4.6036,-4.6315,-4.604,-4.5354,-4.4508,-4.4036,-4.3089,-4.1877,-4.0856,-3.992,-3.8799,-3.6834,-3.5898,-3.5319,-3.4502,-3.4284,-3.4326,-3.4368,-3.4922,-3.5328,-3.4796,-3.4981,-3.5207,-3.484,-3.4545,-3.4428,-3.4462,-3.4563,0.0,0.0,0.0,0.0,0.0,0.0,-3.6738,-3.7278,-3.752,-3.8275,-3.9911,-4.0696,-4.1624,-4.294,-4.4515,-4.6052,-4.7369,-4.8865,-5.0571,-5.2546,-5.3639,-5.4756,-5.5948,-5.6176,-5.647,-5.681,-5.7258,-5.6903,-5.5717,-5.6028,-5.5915,-5.5357,-5.5005,-5.5118,-5.5578,-5.5527,-5.5859,-5.6427,-5.657,-5.7054,-5.7753,-5.7644,-5.7258,-5.6691,-5.595,-5.5973,-5.636,-3.701,-3.6518,0.0,-3.7705,-3.8869,-4.0228,-4.207,-4.1334,-4.0703,-4.0978,-4.125,-4.1159,-4.0313,-4.1486,-4.1989,-4.1117,-4.0562,-4.0348,-4.0509,-3.8978,-3.7959,-3.7802,-3.7325,-3.7037,-3.7037,-3.7037,-3.7344,-3.7874,-3.8978,-3.9474,-3.9474,-4.1147,-4.1951,-4.2032,-4.3539,-4.4365,-4.4719,-4.5594,-4.5789,-4.5665,-4.6496,-4.7002,-4.7153,-4.6291,-4.5788,-4.5415,-4.5139,-4.4628,-4.395,-4.3079,-4.2147,-4.0968,-3.8519,-3.7648,-3.7207,-3.562,-3.5272,-3.5317,-3.5207,-3.5419,-3.5638,-3.5427,-3.5253,-3.5037,-3.4832,-3.4589,-3.4327,-3.3985,-3.4191,-3.4361,-3.4191,0.0,0.0,0.0,0.0,0.0,0.0,-3.5852,-3.7049,-3.9194,-4.0038,-4.0935,-4.2291,-4.303,-4.3947,-4.5304,-4.7219,-4.9194,-5.1169,-5.2516,-5.4097,-5.5948,-5.6028,-5.6274,-5.681,-5.7258,-5.7152,-5.6466,-5.628,-5.6423,-5.6765,-5.5421,-5.5291,-5.6186,-5.6395,-5.6353,-5.6282,-5.7171,-5.7839,-5.8247,-5.7753,-5.7872,-5.8172,-5.7388,-5.7002,-5.7,0.0,0.0,0.0,-3.7954,-3.8895,-4.0206,-4.1981,-4.1648,-4.1338,-4.1572,-4.1723,-4.1989,-4.2475,-4.3167,-4.3486,-4.324,-4.2195,-4.1107,-4.0076,-3.8431,-3.7577,-3.7672,-3.7493,-3.7711,-3.8475,-3.8616,-3.8742,-3.895,-3.9512,-3.9853,-4.0067,-4.1173,-4.1835,-4.2032,-4.3108,-4.4135,-4.4993,-4.5463,-4.5962,-4.6444,-4.661,-4.6692,-4.6769,-4.6654,-4.6267,-4.5848,-4.5921,-4.5335,-4.4434,-4.371,-4.3121,-4.2383,-4.0695,-3.9869,-3.9215,-3.8006,-3.7473,-3.7165,-3.6702,-3.7053,-3.7434,-3.6968,-3.69,-3.6827,-3.6322,-3.551,-3.4796,-3.4552,-3.4272,-3.402,-3.3813,0.0,0.0,0.0,0.0,0.0,0.0,-3.6353,-3.7276,-3.7968,-3.9157,-4.0064,-4.0367,-4.1528,-4.2698,-4.3898,-4.5424,-4.7189,-4.9164,-5.1536,-5.3368,-5.4643,-5.5719,-5.6421,-5.681,-5.7067,-5.7011,-5.6497,-5.657,-5.6599,-5.6611,-5.6164,-5.6187,-5.6702,-5.6745,-5.7088,-5.7624,-5.7936,-5.8539,-5.9197,-5.8851,-5.8795,-5.8848,-5.7657,-5.7485,-5.7868,-3.681,-3.7712,-3.8501,-3.8407,-3.9703,-4.1221,-4.2372,-4.2229,-4.2185,-4.2813,-4.2631,-4.2863,-4.3806,-4.4434,-4.4643,-4.4305,-4.3361,-4.2216,-4.0798,-3.9424,-3.8668,-3.8743,-3.8386,-3.8581,-3.9488,-3.9139,-3.9029,-3.9236,-3.9804,-4.0197,-4.0511,-4.148,-4.2112,-4.2501,-4.3581,-4.4425,-4.5144,-4.5962,-4.6495,-4.6744,-4.6587,-4.6482,-4.6535,-4.691,-4.6794,-4.6377,-4.6503,-4.6044,-4.5216,-4.4757,-4.4409,-4.3884,-4.2219,-4.1625,-4.1227,-3.983,-3.9268,-3.8968,-3.8492,-3.8642,-3.8859,-3.8274,-3.8086,-3.7806,-3.7177,-3.6343,-3.5561,-3.5024,-3.4552,-3.4047,-3.3454,0.0,0.0,0.0,0.0,0.0,0.0,-3.6111,-3.6716,-3.6716,-3.7987,-3.8958,-3.9127,-4.0214,-4.1385,-4.2629,-4.4118,-4.5813,-4.7848,-5.0246,-5.2195,-5.358,-5.4701,-5.5568,-5.6053,-5.626,-5.645,-5.6497,-5.6196,-5.6465,-5.7211,-5.6479,-5.6535,-5.7177,-5.7233,-5.7533,-5.8069,-5.8414,-5.89,-5.9452,-5.9241,-5.9197,-5.91,-5.8169,-5.8137,-5.8574,-3.872,-3.8821,-3.8909,-3.9222,-4.1338,-4.311,-4.3358,-4.2971,-4.3169,-4.4489,-4.398,-4.3736,-4.4294,-4.534,-4.5494,-4.4436,-4.4112,-4.3555,-4.2536,-4.171,-4.1114,-4.0794,-3.9772,-3.95,-4.0056,-3.8783,-3.8367,-3.8905,-3.9959,-4.0586,-4.0852,-4.1972,0.0,0.0,-4.4787,-4.5288,-4.5226,-4.6916,-4.7208,-4.6535,-4.6535,-4.6482,-4.6589,-4.7187,-4.721,-4.6928,-4.6928,-4.6727,-4.6436,-4.6154,-4.5967,-4.5434,-4.3238,-4.3064,-4.3227,-4.1112,-4.0668,-4.0813,-4.0498,-4.018,-3.9802,-3.935,-3.8768,-3.8156,-3.7512,-3.7177,-3.6654,-3.5453,-3.5052,-3.4517,-3.3225,-3.334,0.0,0.0,0.0,0.0,0.0,0.0,-3.5519,-3.5549,-3.6626,-3.7683,-3.8546,-3.9127,-4.0021,-4.1528,-4.3199,-4.5065,-4.707,-4.8667,-5.0593,-5.2822,-5.3176,-5.3775,-5.4683,-5.4962,-5.5534,-5.6435,-5.5364,-5.6163,-5.8501,-5.6499,-5.6308,-5.7656,-5.7847,-5.7803,-5.7719,-5.8627,-5.9004,-5.9004,-5.9004,-5.9004,-5.9004,-5.9004,-5.9004,-5.8959,-3.851,-3.9685,-4.0834,-4.1834,-4.2743,-4.3173,-4.2858,-4.3593,-4.4189,-4.4381,-4.4883,-4.5508,-4.618,-4.6611,-4.6663,-4.6223,-4.5329,-4.4156,-4.2668,-4.142,-4.0681,-4.0572,-4.0103,-4.0325,-4.1248,-4.0895,-4.0591,-4.0389,-4.0824,-4.0976,-4.0913,0.0,0.0,0.0,-4.3759,-4.4678,-4.547,-4.6344,-4.6901,-4.7029,-4.6692,-4.6482,-4.6589,-4.7187,-4.7376,-4.7293,-4.7293,-4.7237,-4.7099,-4.6766,-4.6448,-4.6173,-4.5752,-4.5602,-4.5296,-4.377,-4.3424,-4.3273,-4.2256,-4.1803,-4.1558,-4.1396,-4.0696,-3.9887,-3.9578,-3.8887,-3.8016,-3.6978,-3.6548,-3.6006,-3.4574,-3.4285,-3.4094,0.0,0.0,0.0,0.0,0.0,-3.5699,-3.6178,-3.6537,-3.7019,-3.7683,-3.8898,-3.992,-4.068,-4.2051,-4.3588,-4.5281,-4.7794,-4.9951,-5.1697,-5.2963,-5.396,-5.4683,-5.4776,-5.5302,-5.6202,-5.5624,-5.6273,-5.8072,-5.7168,-5.7259,-5.8113,-5.8173,-5.8264,-5.8355,-5.8592,-5.8837,-5.9004,-5.8792,-5.8701,-5.8746,-5.8959,-5.8882,-5.8701,-3.9579,-4.108,-4.2322,-4.2882,-4.3545,-4.3861,-4.3546,-4.439,-4.5135,-4.5227,-4.5764,-4.6313,-4.6803,-4.6993,-4.6925,-4.6644,-4.5791,-4.4802,-4.3713,-4.2698,-4.1959,-4.1569,-4.1057,-4.1085,-4.1681,-4.1471,-4.1225,-4.0895,-4.1337,-4.1363,-4.1097,0.0,0.0,0.0,0.0,-4.4442,-4.552,-4.6302,-4.6995,-4.7493,-4.7073,-4.7025,0.0,-4.7893,-4.8138,-4.8138,-4.8138,-4.7785,-4.735,-4.7183,-4.6977,-4.6735,-4.6537,-4.6556,-4.6504,-4.5377,-4.5144,-4.5015,-4.4059,-4.349,-4.3072,-4.2701,-4.201,-4.1275,-4.0656,-4.004,-3.9264,-3.8058,-3.7613,-3.694,-3.5482,-3.5053,-3.4625,0.0,0.0,0.0,0.0,-3.5096,-3.563,-3.6417,-3.6716,-3.7135,-3.7793,-3.8617,-3.9565,-4.0594,-4.1468,-4.2797,-4.4739,-4.6648,-4.8517,-5.038,-5.1703,-5.2729,-5.3406,-5.3714,-5.4314,-5.5194,-5.4816,-5.5573,-5.7447,-5.6983,-5.7326,-5.8321,-5.8321,-5.8367,-5.8473,-5.8473,-5.8473,-5.8473,-5.8335,-5.8289,-5.8335,-5.8596,-5.8701,-5.8792,-4.0925,-4.2294,-4.3153,-4.3049,-4.3906,-4.4661,-4.4817,-4.5309,-4.5738,-4.6155,-4.6385,-4.6627,-4.7036,-4.6951,-4.6831,-4.6642,-4.6043,-4.5538,-4.5181,-4.4659,-4.3961,-4.3201,-4.2344,-4.1916,-4.1972,-4.1462,-4.1121,-4.0969,-4.1594,-4.1621,-4.1174,-4.1655,0.0,0.0,0.0,0.0,-4.5746,-4.659,-4.7282,-4.7777,-4.7511,-4.7703,-4.8246,-4.8842,-4.9114,-4.9142,-4.9223,-4.8545,-4.7621,-4.754,-4.7503,-4.7264,-4.6535,-4.6772,-4.7157,-4.6342,-4.6224,-4.6279,-4.5633,-4.5071,-4.4462,-4.3585,-4.3108,-4.2514,-4.1247,-4.0953,-4.052,-3.9041,-3.85,-3.7856,-3.6313,-3.5662,-3.505,0.0,0.0,-3.3512,-3.446,-3.4905,-3.5499,-3.6384,-3.7071,0.0,-3.8417,-3.8512,-3.9163,-4.0661,-4.1152,-4.2355,-4.4625,-4.5546,-4.6965,-4.9139,-5.0119,-5.0944,-5.1682,-5.2298,-5.3065,-5.4033,-5.3588,-5.4559,-5.6789,-5.6325,-5.6857,-5.8228,-5.8228,-5.8228,-5.8274,-5.8274,-5.8136,-5.7871,-5.7918,-5.7918,-5.7918,-5.8228,-5.855,-5.8869,-4.0582,-4.1471,-4.2253,-4.3114,-4.3802,-4.4566,-4.5482,-4.5755,-4.5661,-4.5073,-4.6206,-4.7342,-4.8197,-4.781,-4.7733,-4.8163,-4.7197,-4.6415,-4.6115,-4.5291,-4.4824,-4.4665,-4.3681,-4.3198,-4.3457,-4.2942,-4.2162,-4.1232,-4.2087,-4.1713,-4.0364,-4.2008,0.0,0.0,0.0,0.0,-4.6703,-4.705,-4.7438,-4.7777,-4.7511,-4.7703,-4.8246,-4.8842,-4.9114,-4.9196,-4.9684,-4.9413,-4.8735,-4.8572,-4.8265,-4.8086,-4.8132,-4.8052,-4.7802,-4.7185,-4.6988,-4.6926,-4.6307,-4.6075,-4.5774,-4.4897,-4.4349,-4.377,-4.2703,-4.2328,-4.1796,-4.032,-4.0252,-3.9898,-3.8071,-3.6458,-3.4978,-3.3628,-3.3305,-3.3368,-3.3817,-3.4482,-3.527,-3.6153,-3.7283,-3.8234,-3.8888,-3.9122,-3.9349,-3.9661,-4.0733,-4.2002,-4.3297,-4.5029,-4.6834,-4.8675,-4.9497,-5.0451,-5.1682,-5.1836,-5.2483,-5.376,-5.3352,-5.4231,-5.6249,-5.5825,-5.6355,-5.7637,-5.7871,-5.7965,-5.7965,-5.8228,-5.8136,-5.7918,-5.8136,-5.8089,-5.7918,-5.8228,-5.8367,-5.8459,-4.2146,-4.2643,-4.3006,-4.3225,-4.4034,-4.4661,-4.4911,-4.5714,-4.6144,-4.5806,-4.6882,-4.7701,-4.788,-4.788,-4.7905,-4.788,-4.7232,-4.6847,-4.6945,-4.6165,-4.572,-4.5924,-4.5003,-4.4543,-4.47,-4.4029,-4.3346,-4.2645,-4.2783,-4.2098,-4.0746,-4.1854,-4.2267,-4.2264,0.0,-4.5516,-4.5813,-4.6528,-4.7183,-4.7812,-4.765,-4.8191,-4.9196,-4.9494,-4.9576,-4.963,-4.9901,-4.982,-4.9494,-4.9063,-4.8489,-4.8096,-4.8664,-4.8399,-4.7931,-4.8111,-4.7937,-4.7544,-4.7074,-4.6855,-4.6588,-4.597,-4.5324,-4.4659,-4.3836,-4.3194,-4.2513,-4.1485,-4.1112,-4.0348,-3.8396,-3.6493,-3.5018,-3.4193,-3.3431,-3.3221,-3.3972,-3.4397,-3.497,-3.5921,-3.6902,-3.776,-3.8411,-3.8948,-3.9337,-3.9553,-4.0381,-4.1558,-4.3046,-4.4613,-4.6255,-4.8009,-4.9127,-5.0174,-5.1159,-5.1528,-5.2206,-5.3191,-5.3447,-5.4295,-5.5566,-5.5906,-5.6559,-5.7495,-5.7637,-5.7684,-5.7684,-5.7684,-5.759,-5.7495,-5.7778,-5.7731,-5.7543,-5.7918,-5.8011,-5.7918,-4.3408,-4.3523,-4.353,-4.3357,-4.4107,-4.466,-4.4606,-4.5732,-4.6673,-4.6854,-4.7622,-4.8007,-4.7675,-4.7991,-4.8128,-4.7795,-4.7265,-4.7186,-4.7719,-4.696,-4.6622,-4.6863,-4.6094,-4.5632,-4.5598,-4.4783,-4.4173,-4.3764,-4.3377,-4.2509,-4.1233,-4.1672,-4.2113,-4.2682,-4.4644,-4.5388,-4.5234,-4.6112,-4.7109,-4.7996,-4.7996,-4.8727,-4.9897,-4.9953,-5.001,-5.0037,-5.0146,-5.0118,-4.9956,-4.963,-4.879,-4.8104,-4.8892,-4.8523,-4.7953,-4.8738,-4.8644,-4.8167,-4.7913,-4.7637,-4.7334,-4.6861,-4.6276,-4.5597,-4.4959,-4.4125,-4.3296,-4.2711,-4.1696,-4.0376,-3.8585,-3.6917,-3.5602,-3.4945,-3.3952,-3.3465,-3.4062,-3.4443,-3.5009,-3.5952,-3.6717,-3.7451,-3.8171,-3.8921,-3.9384,-3.9553,-4.0231,-4.1317,-4.2938,-4.4439,-4.5858,-4.7292,-4.8881,-4.9989,-5.058,-5.1331,-5.2052,-5.2729,-5.3433,-5.4235,-5.5039,-5.5752,-5.6575,-5.7353,-5.7401,-5.7448,-5.7495,-5.7275,-5.7132,-5.7132,-5.7401,-5.7353,-5.7132,-5.7637,-5.7684,-5.759,-4.2769,-4.2504,-4.2445,-4.3337,-4.382,-4.4512,-4.5724,-4.6328,-4.6736,-4.6993,-4.7814,-4.8593,-4.905,-4.8942,-4.9051,-4.9512,-4.8284,-4.7744,-4.8303,-4.754,-4.7054,-4.7054,-4.6527,-4.5974,-4.554,-4.4903,-4.4187,-4.3462,-4.3639,-4.278,-4.0972,-4.2014,-4.2982,-4.3782,-4.5023,-4.6009,-4.6679,-4.6786,-4.7567,-4.8615,-4.8615,-4.9048,-4.967,-4.9897,-5.001,-5.0091,-5.0634,-5.0471,-5.0091,-5.058,-4.9799,-4.8652,-4.8976,-4.8641,-4.8273,-4.8798,-4.8798,-4.8586,-4.8813,-4.8647,-4.8154,-4.7362,-4.7264,-4.7185,-4.63,-4.544,-4.4634,-4.404,-4.2278,-4.0581,-3.955,-3.8713,-3.7486,-3.5246,-3.5057,-3.4668,-3.3398,-3.4587,-3.5813,-3.6476,-3.7448,-3.8402,-3.927,-3.9764,-3.978,-3.9185,-4.0502,-4.1543,-4.2075,-4.4543,-4.6052,-4.6416,-4.8552,-4.9904,-5.0332,-5.1256,-5.2052,-5.2698,-5.279,-5.3468,-5.473,-5.4838,-5.5577,-5.6906,-5.7067,-5.7306,-5.7495,-5.7495,-5.7353,-5.7132,-5.7401,-5.7353,-5.7132,-5.7448,-5.7543,-5.7495,-4.376,-4.3555,-4.3493,-4.4295,-4.4818,-4.5431,-4.6158,-4.669,-4.7224,-4.7887,-4.8384,-4.8636,-4.8785,-4.8985,-4.9135,-4.9219,-4.8538,-4.8328,-4.8824,-4.8094,-4.7668,-4.7853,-4.714,-4.6708,-4.6544,-4.5599,-4.5036,-4.4903,-4.4187,-4.3243,-4.2145,-4.2435,-4.2866,-4.3431,-4.4935,-4.5704,-4.5941,-4.6614,-4.7418,-4.8163,-4.8359,-4.8932,-4.9613,-4.9897,-5.001,-5.0037,-5.0281,-5.02,-5.0064,-5.0281,-4.9713,-4.8982,-4.931,-4.8758,-4.8094,-4.8618,-4.867,-4.8586,-4.8481,-4.8635,-4.8629,-4.7909,-4.7659,-4.7468,-4.6947,-4.6412,-4.5765,-4.4841,-4.3128,-4.1489,-4.0542,-3.9388,-3.8311,-3.7238,-3.6252,-3.5508,-3.5289,-3.5861,-3.6421,-3.6722,-3.7849,-3.8717,-3.9054,-3.9702,-4.0011,-3.9862,-4.1292,-4.2108,-4.2014,-4.4691,-4.6203,-4.6284,-4.8521,-4.9904,-5.0289,-5.1212,-5.2052,-5.2729,-5.3529,-5.416,-5.4714,-5.5592,-5.6238,-5.681,-5.6906,-5.6971,-5.7067,-5.7067,-5.7019,-5.6923,-5.7163,-5.7115,-5.6923,-5.7211,-5.7163,-5.7129,-4.4888,-4.4761,-4.4785,-4.523,-4.5814,-4.6279,-4.6728,-4.7255,-4.7938,-4.8787,-4.9007,-4.8925,-4.8649,-4.9014,-4.928,-4.915,-4.8759,-4.8724,-4.928,-4.8586,-4.8284,-4.8471,-4.778,-4.7262,-4.7189,-4.6238,-4.5766,-4.5918,-4.4634,-4.3721,-4.3129,-4.2764,-4.2805,-4.3201,-4.4756,-4.5627,-4.5853,-4.6664,-4.7446,-4.8087,-4.8342,-4.8809,-4.9442,-4.9783,-4.9953,-5.0064,-5.0417,-5.0308,-5.0064,-5.0417,-5.0037,-4.9414,-4.9583,-4.8818,-4.8051,-4.8581,-4.8548,-4.8378,-4.8243,-4.843,-4.8514,-4.8195,-4.7919,-4.7709,-4.7609,-4.7179,-4.6559,-4.558,-4.4081,-4.2711,-4.2056,-4.0714,-3.9593,-3.9117,-3.7934,-3.7102,-3.7044,-3.7167,-3.7376,-3.7777,-3.8435,-3.9047,-3.951,-3.9996,-4.0321,-4.0393,-4.2108,-4.2853,-4.213,-4.4664,-4.6123,-4.6203,-4.8569,-4.9947,-5.0232,-5.1308,-5.2239,-5.287,-5.3822,-5.4497,-5.4896,-5.6142,-5.6664,-5.6713,-5.6761,-5.681,-5.681,-5.681,-5.681,-5.681,-5.6971,-5.6923,-5.681,-5.6971,-5.6923,-5.6902,-4.5846,-4.5846,-4.5846,-4.591,-4.6343,-4.6964,-4.7675,-4.8207,-4.8837,-4.9461,-4.959,-4.9436,-4.9112,-4.9371,-4.959,-4.9565,-4.9063,-4.8987,-4.954,-4.9063,-4.8761,-4.8825,-4.8209,-4.7657,-4.7129,-4.6577,-4.6144,-4.5918,-4.5011,-4.4155,-4.3381,-4.2848,-4.2899,-4.3462,-4.466,-4.5957,-4.7252,-4.7252,-4.7822,-4.8663,-4.8663,-4.8837,-4.9125,-4.9442,-4.9783,-5.0173,-5.1367,-5.1041,-5.02,-5.1394,-5.1014,-4.9958,-4.9665,-4.8954,-4.8328,-4.8922,-4.8509,-4.7936,-4.8461,-4.8172,-4.7778,-4.8032,-4.8134,-4.8156,-4.8431,-4.7828,-4.701,-4.642,-4.5077,-4.4162,-4.4322,-4.3146,-4.1781,-4.0582,-4.0343,-3.9787,-3.809,-3.8237,-3.8824,-3.9828,-3.9294,-3.9448,-4.1112,-4.0904,-4.0596,-4.0383,-4.2822,-4.3718,-4.244,-4.4499,-4.5787,-4.6001,-4.8602,-4.9998,-4.9998,-5.1499,-5.2612,-5.3284,-5.3299,-5.4002,-5.5333,-5.6036,-5.6421,-5.6421,-5.6664,-5.681,-5.681,-5.681,-5.681,-5.681,-5.681,-5.681,-5.681,-5.681,-5.681,-5.6902,-4.5287,-4.5352,-4.5644,-4.6484,-4.6807,-4.7059,-4.7496,-4.7731,-4.8026,-4.842,-4.8772,-4.8967,-4.9072,-4.9396,-4.959,-4.959,-4.9439,-4.9414,-4.959,-4.9439,-4.9163,-4.8786,-4.8209,-4.7657,-4.7093,-4.6602,-4.6285,-4.6144,-4.5556,-4.4878,-4.4206,-4.4029,-4.4055,-4.4288,-4.5247,-4.6052,-4.6727,-4.7322,-4.7899,-4.8373,-4.8606,-4.8837,-4.9125,-4.9469,-4.9783,-5.0118,-5.0905,-5.0932,-5.0688,-5.1068,-5.0932,-5.0525,-5.0041,-4.9276,-4.8541,-4.8518,-4.83,-4.819,-4.8807,-4.8933,-4.9005,-4.9318,-4.9188,-4.898,-4.8826,-4.7988,-4.715,-4.6954,-4.6084,-4.5351,-4.5399,-4.4081,-4.2877,-4.2602,-4.1387,-4.0482,-4.0419,-4.0244,-4.0324,-4.1025,-4.1047,-4.1327,-4.2028,-4.2149,-4.2124,-4.1885,-4.319,-4.3749,-4.305,-4.5283,-4.6736,-4.7075,-4.897,-5.0122,-5.0411,-5.1516,-5.2444,-5.3113,-5.357,-5.4609,-5.6036,-5.6299,-5.6519,-5.6664,-5.6761,-5.681,-5.681,-5.681,-5.681,-5.681,-5.681,-5.681,-5.681,-5.681,-5.681,-5.6902,-4.5133,-4.5402,-4.5853,-4.665,-4.7032,-4.7298,-4.763,-4.7828,-4.8026,-4.8355,-4.8772,-4.9097,-4.9267,-4.9461,-4.959,-4.959,-4.959,-4.9654,-4.9783,-4.9654,-4.9504,-4.9304,-4.8397,-4.7757,-4.7431,-4.6702,-4.6301,-4.6301,-4.5748,-4.5196,-4.4618,-4.4618,-4.4744,-4.497,-4.559,-4.6104,-4.6568,-4.7372,-4.7821,-4.8055,-4.8489,-4.8837,-4.9125,-4.9469,-4.9918,-5.0417,-5.1041,-5.1258,-5.1285,-5.1502,-5.1285,-5.0824,-5.0357,-4.9559,-4.8798,-4.8596,-4.8299,-4.811,-4.8514,-4.8971,-4.9375,-4.9442,-4.9535,-4.9521,-4.9089,-4.8297,-4.7644,-4.7544,-4.6917,-4.6398,-4.6398,-4.5316,-4.4394,-4.424,-4.2906,-4.1892,-4.2105,-4.1779,-4.1598,-4.1824,-4.2112,-4.2379,-4.2562,-4.2683,-4.2773,-4.2811,-4.3705,-4.4251,-4.418,-4.5633,-4.6713,-4.7232,-4.8755,-5.002,-5.0969,-5.1802,-5.2681,-5.362,-5.4256,-5.511,-5.6127,-5.6225,-5.6421,-5.6664,-5.6761,-5.681,-5.681,-5.6713,-5.6713,-5.681,-5.6713,-5.6713,-5.681,-5.681,-5.681,-5.6902,-4.5393,-4.5936,-4.6452,-4.6429,-4.7032,-4.7563,-4.7894,-4.8313,-4.8641,-4.9007,-4.9332,-4.9525,-4.959,-4.959,-4.959,-4.959,-4.959,-4.9719,-5.0065,-4.9783,-4.9719,-5.0129,-4.8699,-4.7908,-4.7845,-4.6792,-4.624,-4.624,-4.5799,-4.5271,-4.4744,-4.4744,-4.502,-4.5547,-4.5818,-4.6239,-4.6866,-4.7409,-4.7703,-4.7762,-4.8431,-4.8837,-4.9125,-4.9496,-5.0131,-5.0987,-5.1665,-5.1882,-5.1964,-5.2479,-5.1909,-5.0902,-5.0559,-4.9809,-4.9133,-4.9079,-4.8486,-4.7864,-4.7945,-4.8566,-4.9081,-4.8844,-4.9382,-4.9764,-4.923,-4.8788,-4.8409,-4.8241,-4.7684,-4.7263,-4.7263,-4.6757,-4.6118,-4.5501,-4.4741,-4.3984,-4.3324,-4.3017,-4.2783,-4.2512,-4.2708,-4.2904,-4.2951,-4.2785,-4.2874,-4.3364,-4.4367,-4.5171,-4.5622,-4.5711,-4.6073,-4.6725,-4.8223,-4.9865,-5.16,-5.2309,-5.3272,-5.4616,-5.5249,-5.5631,-5.5631,-5.5929,-5.6176,-5.6421,-5.6664,-5.6761,-5.6761,-5.647,-5.6519,-5.6761,-5.6519,-5.6567,-5.681,-5.6761,-5.6761,-5.6902,-4.6357,-4.6494,-4.6719,-4.6835,-4.6965,-4.7232,-4.7563,-4.7696,-4.7984,-4.8641,-4.8772,-4.9032,-4.9525,-4.959,-4.959,-4.959,-4.959,-4.9719,-5.0065,-4.9783,-4.9719,-5.0129,-4.8699,-4.7783,-4.762,-4.6487,-4.5939,-4.5939,-4.6055,-4.605,-4.5924,-4.5924,-4.5974,-4.6125,-4.6185,-4.6415,-4.6806,-4.7172,-4.7442,-4.7762,-4.8114,-4.8663,-4.9178,-4.9721,-5.0309,-5.1041,-5.2126,-5.2506,-5.2452,-5.2154,-5.1855,-5.139,-5.0182,-4.9462,-4.9041,-4.8851,-4.8486,-4.8311,-4.9249,-4.9639,-4.9854,-5.0253,-4.9795,-4.9342,-4.9679,-4.8944,-4.8297,-4.8724,-4.828,-4.7909,-4.7909,-4.7225,-4.665,-4.646,-4.5706,-4.5025,-4.4634,-4.4526,-4.449,-4.4386,-4.465,-4.4927,-4.515,-4.4689,-4.4706,-4.5331,-4.5492,-4.5671,-4.6035,-4.6836,-4.762,-4.8343,-4.9651,-5.081,-5.1739,-5.2636,-5.3481,-5.4321,-5.518,-5.5681,-5.5929,-5.6176,-5.647,-5.6713,-5.6567,-5.6519,-5.647,-5.6225,-5.6274,-5.647,-5.6421,-5.6567,-5.6761,-5.6567,-5.6616,-5.6792,-4.645,-4.647,-4.6578,-4.6678,-4.7032,-4.7298,-4.7497,-4.763,-4.796,-4.851,-4.8706,-4.9032,-4.9525,-4.959,-4.959,-4.959,-4.959,-4.9719,-5.0065,-4.9783,-4.9654,-4.9847,-4.8723,-4.7832,-4.7269,-4.6365,-4.5883,-4.5817,-4.5999,-4.612,-4.6301,-4.6301,-4.6301,-4.6301,-4.6301,-4.6361,-4.6601,-4.69,-4.7172,-4.7501,-4.7997,-4.8489,-4.8979,-4.9587,-5.017,-5.0841,-5.1607,-5.2072,-5.2262,-5.1936,-5.1638,-5.1227,-5.029,-4.9569,-4.9068,-4.8779,-4.8656,-4.8759,-4.9266,-4.9911,-5.0574,-5.1173,-5.0578,-4.996,-5.035,-4.9651,-4.8977,-4.8981,-4.8729,-4.842,-4.8111,-4.7925,-4.7623,-4.7063,-4.6823,-4.6389,-4.5525,-4.5669,-4.5708,-4.5246,-4.5718,-4.5968,-4.574,-4.563,-4.5822,-4.632,-4.6291,-4.6526,-4.7057,-4.8097,-4.8792,-4.9136,-5.0129,-5.132,-5.2694,-5.3674,-5.4281,-5.467,-5.53,-5.5731,-5.6028,-5.6274,-5.647,-5.6616,-5.647,-5.6323,-5.6225,-5.5929,-5.5979,-5.6225,-5.6077,-5.6225,-5.6421,-5.6421,-5.6421,-5.647,-4.6496,-4.6536,-4.6567,-4.6563,-4.7098,-4.7497,-4.7563,-4.7828,-4.8158,-4.8641,-4.8902,-4.9137,-4.9461,-4.9525,-4.9525,-4.9525,-4.9525,-4.9654,-5.0001,-4.9719,-4.9525,-4.9525,-4.8629,-4.77,-4.6826,-4.6214,-4.5859,-4.5696,-4.5757,-4.5939,-4.6301,-4.6301,-4.6301,-4.6301,-4.6301,-4.6301,-4.6301,-4.6686,-4.6959,-4.7205,-4.788,-4.8315,-4.869,-4.932,-4.9956,-5.0555,-5.0783,-5.125,-5.1711,-5.1602,-5.1165,-5.0705,-5.0305,-4.964,-4.901,-4.8721,-4.8837,-4.9076,-4.8908,-4.9772,-5.1017,-5.1649,-5.1253,-5.0829,-5.0972,-5.0519,-4.9848,-4.9398,-4.9178,-4.8925,-4.8336,-4.8644,-4.8616,-4.7544,-4.7797,-4.764,-4.6293,-4.6606,-4.6696,-4.5857,-4.6506,-4.6723,-4.5968,-4.6203,-4.6594,-4.6914,-4.7099,-4.7559,-4.8471,-4.9378,-4.9863,-4.9974,-5.0618,-5.1935,-5.4012,-5.4809,-5.5229,-5.5229,-5.5531,-5.578,-5.6077,-5.6323,-5.6421,-5.6421,-5.6372,-5.6176,-5.5929,-5.5631,-5.5681,-5.5929,-5.5681,-5.578,-5.6028,-5.6274,-5.6176,-5.6077,-4.8141,-4.7782,-4.7488,-4.737,-4.7431,-4.763,-4.7894,-4.796,-4.8223,-4.8942,-4.8837,-4.8837,-4.9137,-4.9202,-4.9202,-4.9202,-4.9202,-4.9332,-4.9654,-4.9332,-4.9202,-4.9202,-4.7848,-4.69,-4.6509,-4.5535,-4.5098,-4.5392,-4.5635,-4.5939,-4.6301,-4.6301,-4.6301,-4.6301,-4.6301,-4.6301,-4.6301,-4.6686,-4.6806,-4.69,-4.7527,-4.7997,-4.8367,-4.9191,-4.9898,-5.0551,-5.08,-5.1159,-5.1336,-5.0532,-5.0233,-5.0014,-4.9186,-4.8859,-4.8663,-4.8373,-4.8663,-4.9156,-4.9392,-4.9966,-5.0708,-5.1592,-5.0944,-5.0435,-5.1421,-5.0829,-5.0125,-5.0494,-5.0185,-4.9623,-4.8953,-4.8925,-4.8757,-4.8106,-4.8078,-4.783,-4.7101,-4.755,-4.764,-4.7023,-4.75,-4.7836,-4.7701,-4.7297,-4.7483,-4.8467,-4.8109,-4.8574,-5.0211,-5.0444,-5.1025,-5.2115,-5.2687,-5.3583,-5.4979,-5.5149,-5.528,-5.5531,-5.583,-5.6077,-5.6372,-5.6616,-5.6616,-5.6372,-5.6176,-5.5929,-5.5631,-5.5381,-5.5431,-5.5631,-5.5631,-5.578,-5.6028,-5.6028,-5.6028,-5.6028,-4.8431,-4.7973,-4.7585,-4.7479,-4.7497,-4.763,-4.796,-4.8026,-4.8289,-4.9007,-4.8942,-4.9032,-4.9332,-4.9396,-4.9396,-4.9396,-4.9202,-4.8948,-4.865,-4.8794,-4.8624,-4.8133,-4.7449,-4.6801,-4.6126,-4.5064,-4.4925,-4.5711,-4.5601,-4.5817,-4.6301,-4.6301,-4.6301,-4.6301,-4.6301,-4.6301,-4.6301,-4.6506,-4.6626,-4.6806,-4.7078,-4.7409,-4.7729,-4.8518,-4.9001,-4.9346,-4.9759,-5.0041,-5.0072,-4.9689,-4.9525,-4.9414,-4.9032,-4.8837,-4.8663,-4.8489,-4.8779,-4.924,-4.9924,-5.038,-5.0822,-5.1402,-5.1257,-5.1084,-5.1646,-5.1337,-5.0944,-5.0888,-5.0716,-5.0322,-4.9651,-4.9792,-4.982,-4.9202,-4.9117,-4.9005,-4.8724,-4.864,-4.864,-4.8696,-4.8949,-4.9169,-4.9324,-4.9093,-4.924,-5.0083,-4.9904,-5.014,-5.1149,-5.1497,-5.2013,-5.2594,-5.3459,-5.4243,-5.5006,-5.5158,-5.533,-5.5581,-5.588,-5.6127,-5.6421,-5.6664,-5.6567,-5.6176,-5.6077,-5.578,-5.5381,-5.5229,-5.528,-5.5381,-5.5381,-5.5481,-5.5581,-5.588,-5.583,-5.5631,-4.8319,-4.7858,-4.7497,-4.7497,-4.7497,-4.763,-4.8092,-4.8158,-4.8355,-4.9007,-4.9007,-4.9072,-4.9332,-4.9357,-4.9357,-4.9357,-4.9137,-4.859,-4.77,-4.7963,-4.7767,-4.6948,-4.6803,-4.6408,-4.5742,-4.4765,-4.4922,-4.608,-4.5724,-4.5759,-4.6301,-4.6451,-4.6426,-4.6301,-4.6301,-4.6301,-4.6301,-4.6301,-4.6446,-4.6686,-4.6746,-4.69,-4.7172,-4.7821,-4.8114,-4.8257,-4.8721,-4.8952,-4.901,-4.8952,-4.8895,-4.8895,-4.8895,-4.8721,-4.8606,-4.8606,-4.8837,-4.9297,-5.015,-5.0655,-5.0962,-5.1321,-5.1596,-5.1787,-5.1787,-5.1787,-5.1646,-5.1169,-5.1084,-5.0888,-5.0322,-5.0604,-5.0716,-5.0125,-5.0125,-5.0182,-5.0041,-4.9679,-4.9595,-4.9985,-5.0013,-5.0118,-5.0379,-5.0432,-5.0691,-5.1126,-5.1257,-5.1468,-5.1817,-5.231,-5.2681,-5.2775,-5.3707,-5.4385,-5.4803,-5.4976,-5.528,-5.5581,-5.588,-5.6127,-5.6421,-5.6664,-5.6519,-5.5979,-5.5979,-5.5681,-5.5179,-5.5179,-5.5179,-5.5179,-5.5179,-5.5179,-5.5229,-5.578,-5.5681,-5.5381,-4.8387,-4.7858,-4.7497,-4.7497,-4.7497,-4.772,-4.8445,-4.86,-4.8706,-4.9072,-4.8837,-4.8666,-4.8666,-4.8641,-4.8641,-4.8641,-4.8641,-4.8224,-4.7337,-4.7012,-4.66,-4.6006,-4.5525,-4.5237,-4.5125,-4.4573,-4.4922,-4.608,-4.6068,-4.6167,-4.6326,-4.6828,-4.6803,-4.6301,-4.6301,-4.6301,-4.6301,-4.6301,-4.6301,-4.6361,-4.6686,-4.6806,-4.6925,-4.7527,-4.7938,-4.8172,-4.8257,-4.8489,-4.8663,-4.8373,-4.8257,-4.8257,-4.8257,-4.823,-4.8257,-4.8257,-4.8663,-4.924,-4.984,-5.046,-5.0962,-5.1321,-5.1596,-5.1787,-5.1787,-5.1787,-5.1787,-5.1731,-5.1731,-5.1534,-5.0916,-5.0885,-5.0716,-5.0125,-5.0491,-5.066,-5.0097,-5.0463,-5.0604,-5.0069,-5.0013,-5.0118,-5.0379,-5.0588,-5.0898,-5.1206,-5.141,-5.1824,-5.2455,-5.2594,-5.2833,-5.3442,-5.3733,-5.4178,-5.4803,-5.4803,-5.5108,-5.5581,-5.588,-5.6127,-5.6421,-5.6664,-5.6519,-5.5979,-5.5979,-5.5681,-5.5179,-5.5179,-5.5179,-5.5179,-5.5179,-5.5179,-5.5229,-5.578,-5.583,-5.5631,-4.7839,-4.7442,-4.7232,-4.7431,-4.7696,-4.796,-4.8535,-4.8772,-4.9007,-4.9396,-4.9267,-4.9227,-4.9227,-4.9227,-4.9162,-4.8967,-4.8451,-4.7832,-4.7248,-4.6585,-4.6126,-4.5934,-4.5678,-4.5766,-4.6102,-4.5221,-4.5281,-4.6256,-4.614,-4.6242,-4.6523,-4.6906,-4.7029,-4.6803,-4.6476,-4.6301,-4.6301,-4.6301,-4.6301,-4.6301,-4.6446,-4.6506,-4.6541,-4.6959,-4.729,-4.7619,-4.7821,-4.8114,-4.8373,-4.8257,-4.8172,-4.8172,-4.8172,-4.8172,-4.8172,-4.8172,-4.8489,-4.8952,-4.9354,-5.0179,-5.0906,-5.1072,-5.1458,-5.1787,-5.1787,-5.1706,-5.1596,-5.1787,-5.1706,-5.1512,-5.1478,-5.145,-5.1365,-5.114,-5.0972,-5.0916,-5.1084,-5.0972,-5.0916,-5.1084,-5.1245,-5.1488,-5.1807,-5.2072,-5.2334,-5.2619,-5.2752,-5.2891,-5.3152,-5.3152,-5.3268,-5.35,-5.3605,-5.3919,-5.4487,-5.4671,-5.5078,-5.5581,-5.588,-5.6077,-5.6176,-5.6421,-5.6274,-5.5731,-5.5731,-5.5531,-5.5179,-5.5179,-5.5179,-5.5179,-5.5179,-5.5179,-5.5229,-5.5631,-5.5581,-5.5431,-4.7883,-4.7563,-4.7431,-4.7786,-4.7894,-4.8158,-4.8706,-4.8942,-4.9202,-4.9396,-4.9461,-4.9461,-4.9461,-4.9332,-4.9227,-4.8942,-4.8272,-4.7653,-4.7118,-4.6496,-4.6102,-4.5934,-4.5934,-4.6175,-4.6704,-4.5669,-4.5532,-4.6357,-4.6221,-4.6352,-4.6576,-4.7171,-4.7357,-4.7043,-4.6753,-4.6476,-4.6301,-4.6301,-4.6301,-4.6301,-4.6301,-4.6301,-4.6301,-4.6686,-4.6959,-4.7265,-4.756,-4.7938,-4.8172,-4.8172,-4.8172,-4.8172,-4.8172,-4.8172,-4.8172,-4.8172,-4.8431,-4.8721,-4.901,-4.984,-5.0683,-5.085,-5.1348,-5.1787,-5.1787,-5.1596,-5.1431,-5.1651,-5.1541,-5.1459,-5.1651,-5.1732,-5.1787,-5.1787,-5.159,-5.1534,-5.1759,-5.159,-5.1534,-5.1759,-5.2059,-5.2414,-5.2937,-5.3062,-5.3299,-5.3767,-5.3646,-5.35,-5.35,-5.35,-5.35,-5.35,-5.35,-5.371,-5.4149,-5.4487,-5.4875,-5.533,-5.5681,-5.588,-5.588,-5.6176,-5.6028,-5.5581,-5.5581,-5.5431,-5.5179,-5.5179,-5.5179,-5.5179,-5.5179,-5.5179,-5.5229,-5.5481,-5.5481,-5.5381,-4.8633,-4.8313,-4.8116,-4.8535,-4.8248,-4.8223,-4.9007,-4.9072,-4.9072,-4.9072,-4.9072,-4.9072,-4.9072,-4.8837,-4.86,-4.86,-4.8248,-4.761,-4.6752,-4.6704,-4.6487,-4.5958,-4.5934,-4.6175,-4.6704,-4.5694,-4.5532,-4.6382,-4.6357,-4.6469,-4.66,-4.778,-4.7832,-4.7068,-4.7068,-4.6828,-4.6301,-4.6301,-4.6301,-4.6301,-4.6301,-4.6301,-4.6301,-4.6686,-4.6959,-4.7265,-4.756,-4.7938,-4.8172,-4.8172,-4.8172,-4.8172,-4.8172,-4.8172,-4.8172,-4.8172,-4.8431,-4.8721,-4.901,-4.9556,-5.0123,-5.0739,-5.1348,-5.1787,-5.1787,-5.1596,-5.1404,-5.1404,-5.1404,-5.1404,-5.1404,-5.1651,-5.1787,-5.1787,-5.2293,-5.2489,-5.1871,-5.2321,-5.2461,-5.1871,-5.2059,-5.2585,-5.3483,-5.3321,-5.3501,-5.4405,-5.3878,-5.35,-5.35,-5.35,-5.35,-5.35,-5.35,-5.3605,-5.3919,-5.4149,-5.4487,-5.4803,-5.533,-5.5581,-5.5631,-5.588,-5.583,-5.5581,-5.5581,-5.5431,-5.5179,-5.5179,-5.5179,-5.5179,-5.5179,-5.5179,-5.5229,-5.5481,-5.5581,-5.5581,-4.8633,-4.8313,-4.8116,-4.8535,-4.851,-4.8576,-4.9007,-4.9072,-4.9202,-4.9396,-4.9461,-4.9461,-4.9461,-4.9332,-4.9097,-4.8666,-4.8142,-4.7524,-4.6728,-4.7064,-4.7185,-4.704,-4.7016,-4.7112,-4.7257,-4.6223,-4.5958,-4.6593,-4.6488,-4.6606,-4.7018,-4.7873,-4.7968,-4.7309,-4.7182,-4.6828,-4.6301,-4.6301,-4.6301,-4.6301,-4.6301,-4.6301,-4.6301,-4.6421,-4.6661,-4.6959,-4.7265,-4.756,-4.788,-4.8114,-4.8172,-4.8172,-4.8172,-4.8172,-4.8172,-4.8172,-4.8257,-4.8431,-4.8721,-4.924,-4.9897,-5.0683,-5.1183,-5.1541,-5.1541,-5.1266,-5.1017,-5.1017,-5.1017,-5.1155,-5.1321,-5.1651,-5.1787,-5.1787,-5.1927,-5.2012,-5.1815,-5.1927,-5.1983,-5.1815,-5.2221,-5.263,-5.2937,-5.3222,-5.3511,-5.3791,-5.3434,-5.3319,-5.35,-5.3319,-5.3319,-5.35,-5.35,-5.3553,-5.3605,-5.4045,-5.4487,-5.4803,-5.533,-5.5481,-5.533,-5.5581,-5.5581,-5.533,-5.533,-5.528,-5.5179,-5.5179,-5.5179,-5.5179,-5.5179,-5.5179,-5.5179,-5.528,-5.533,-5.533,-4.9001,-4.8682,-4.8551,-4.8902,-4.8902,-4.8902,-4.9072,-4.9202,-4.9332,-4.9396,-4.9525,-4.959,-4.959,-4.9461,-4.9227,-4.8666,-4.7996,-4.7474,-4.7016,-4.7329,-4.7563,-4.7696,-4.7696,-4.7696,-4.7696,-4.698,-4.6714,-4.6899,-4.6779,-4.6907,-4.7248,-4.805,-4.8075,-4.737,-4.7395,-4.7029,-4.6301,-4.6301,-4.6301,-4.6301,-4.6301,-4.6301,-4.6301,-4.6301,-4.6506,-4.6806,-4.6993,-4.7231,-4.756,-4.788,-4.8055,-4.8172,-4.8172,-4.8172,-4.8172,-4.8172,-4.8172,-4.8257,-4.8606,-4.9068,-4.9556,-5.0348,-5.085,-5.1211,-5.1211,-5.0989,-5.0767,-5.0767,-5.085,-5.0962,-5.1155,-5.1709,-5.2152,-5.2152,-5.2042,-5.2154,-5.2489,-5.2014,-5.179,-5.2124,-5.25,-5.2766,-5.3023,-5.3452,-5.3781,-5.3881,-5.3596,-5.3535,-5.3666,-5.3381,-5.3434,-5.3907,-5.3907,-5.4023,-5.4255,-5.4416,-5.4547,-5.4619,-5.5078,-5.5229,-5.5179,-5.5381,-5.533,-5.5179,-5.5179,-5.5179,-5.5179,-5.5179,-5.5179,-5.5179,-5.5179,-5.5179,-5.5179,-5.5179,-5.5179,-5.5289,-4.9651,-4.9332,-4.9267,-4.9525,-4.9332,-4.9137,-4.9137,-4.9396,-4.9525,-4.9202,-4.9461,-4.9654,-4.9654,-4.9332,-4.8942,-4.8666,-4.7918,-4.7497,-4.7497,-4.7497,-4.763,-4.796,-4.8026,-4.8092,-4.8092,-4.7881,-4.7636,-4.7296,-4.7248,-4.7183,-4.7256,-4.8159,-4.8139,-4.7394,-4.7746,-4.7244,-4.6301,-4.6301,-4.6301,-4.6301,-4.6301,-4.6301,-4.6301,-4.6301,-4.6506,-4.6746,-4.6806,-4.6959,-4.7205,-4.756,-4.788,-4.8172,-4.8172,-4.8172,-4.8172,-4.8172,-4.8172,-4.8257,-4.8548,-4.8837,-4.9183,-4.9783,-5.0348,-5.0795,-5.0906,-5.0711,-5.0543,-5.0487,-5.0767,-5.0934,-5.0906,-5.1878,-5.2658,-5.2659,-5.2491,-5.2631,-5.3529,-5.2436,-5.1877,-5.2658,-5.2812,-5.2994,-5.3511,-5.3812,-5.4096,-5.4423,-5.4185,-5.4003,-5.4028,-5.3752,-5.3912,-5.4575,-5.4546,-5.4807,-5.5387,-5.5017,-5.4638,-5.434,-5.4649,-5.4875,-5.5128,-5.5128,-5.5179,-5.5179,-5.5179,-5.5179,-5.5179,-5.5179,-5.5179,-5.5179,-5.5179,-5.5179,-5.5179,-5.5179,-5.5239,-5.5359,-4.9791,-4.9525,-4.9525,-4.959,-4.9332,-4.9202,-4.9461,-4.9525,-4.9654,-4.9847,-4.9912,-5.0001,-5.0001,-4.9461,-4.8942,-4.8666,-4.7918,-4.7497,-4.7497,-4.7497,-4.763,-4.796,-4.8313,-4.8576,-4.8877,-4.8139,-4.7807,-4.7856,-4.7442,-4.7247,-4.7461,-4.7911,-4.7727,-4.6992,-4.737,-4.7084,-4.6301,-4.6301,-4.6301,-4.6301,-4.6301,-4.6301,-4.6301,-4.6301,-4.6361,-4.6446,-4.6686,-4.6866,-4.6959,-4.7527,-4.7762,-4.788,-4.8114,-4.8172,-4.8172,-4.8172,-4.8172,-4.8257,-4.8315,-4.8548,-4.8837,-4.924,-4.9556,-5.0066,-5.0739,-5.085,-5.0739,-5.0543,-5.0934,-5.1294,-5.1287,-5.1875,-5.2435,-5.2652,-5.2678,-5.279,-5.3244,-5.3049,-5.2966,-5.3445,-5.3465,-5.3343,-5.3295,-5.3514,-5.3706,-5.3794,-5.4192,-5.4273,-5.4086,-5.4457,-5.4851,-5.5213,-5.4749,-5.4807,-5.5387,-5.4338,-5.4118,-5.4785,-5.4517,-5.459,-5.4905,-5.4905,-5.5006,-5.5179,-5.5179,-5.5179,-5.5179,-5.5179,-5.5179,-5.5179,-5.5179,-5.5179,-5.5179,-5.5179,-5.5508,-5.6047,-4.9816,-4.959,-4.959,-4.959,-4.959,-4.959,-4.959,-4.9847,-5.0104,-5.0129,-5.0129,-5.0065,-4.9847,-4.9396,-4.8877,-4.8379,-4.7828,-4.7497,-4.7497,-4.7497,-4.763,-4.796,-4.8182,-4.851,-4.8837,-4.8411,-4.8215,-4.8313,-4.802,-4.7758,-4.7497,-4.7828,-4.7532,-4.67,-4.6992,-4.6798,-4.619,-4.5942,-4.5966,-4.619,-4.5917,-4.5939,-4.6059,-4.6059,-4.618,-4.6351,-4.6783,-4.7243,-4.7551,-4.7317,-4.7529,-4.7888,-4.7957,-4.7938,-4.7997,-4.8114,-4.8172,-4.8172,-4.8172,-4.8431,-4.8721,-4.8837,-4.9454,-5.0162,-5.0598,-5.0711,-5.0738,-5.0927,-5.1015,-5.1321,-5.1779,-5.2202,-5.2624,-5.3088,-5.2997,-5.3165,-5.376,-5.3462,-5.3356,-5.3834,-5.4118,-5.4304,-5.4286,-5.4315,-5.4344,-5.4488,-5.4629,-5.4684,-5.4537,-5.4703,-5.5013,-5.5632,-5.5207,-5.5322,-5.6095,-5.514,-5.4877,-5.5387,-5.4855,-5.4805,-5.5248,-5.5248,-5.5224,-5.5179,-5.5179,-5.5179,-5.5179,-5.5179,-5.5179,-5.5179,-5.5179,-5.5179,-5.5179,-5.5179,-5.5598,-5.6308,-4.9816,-4.9654,-4.9654,-4.9654,-4.9873,-4.9976,-4.9783,-5.0206,-5.0525,-5.0295,-5.0232,-5.004,-4.9719,-4.9202,-4.8616,-4.796,-4.763,-4.7497,-4.7497,-4.7497,-4.7696,-4.8092,-4.8092,-4.8313,-4.8772,-4.8772,-4.8641,-4.851,-4.851,-4.8133,-4.7353,-4.7617,-4.7256,-4.6299,-4.6616,-4.656,-4.6155,-4.5773,-4.5896,-4.634,-4.5896,-4.5907,-4.6091,-4.6091,-4.6213,-4.6531,-4.6982,-4.768,-4.8216,-4.7389,-4.7494,-4.8,-4.787,-4.7755,-4.7762,-4.8114,-4.8172,-4.8172,-4.8172,-4.8431,-4.8632,-4.8795,-4.96,-5.039,-5.0671,-5.0759,-5.0953,-5.1446,-5.1287,-5.14,-5.2182,-5.252,-5.2887,-5.3402,-5.3394,-5.3586,-5.4405,-5.393,-5.3689,-5.4276,-5.4743,-5.5104,-5.5423,-5.5112,-5.5024,-5.5299,-5.5279,-5.5111,-5.4998,-5.4855,-5.5165,-5.5961,-5.5679,-5.5936,-5.688,-5.616,-5.59,-5.6129,-5.5467,-5.5336,-5.5715,-5.5768,-5.5597,-5.5308,-5.5359,-5.5299,-5.5179,-5.5179,-5.5179,-5.5179,-5.5179,-5.5179,-5.5209,-5.5329,-5.5718,-5.6308,-4.9881,-4.9847,-5.004,-5.004,-4.9847,-4.9847,-5.0397,-5.0525,-5.0652,-5.0931,-5.0741,-5.0423,-5.0065,-4.8877,-4.796,-4.763,-4.7497,-4.7497,-4.7497,-4.7497,-4.7762,-4.851,-4.851,-4.8837,-4.9461,-4.9461,-4.9007,-4.8092,-4.8092,-4.7676,-4.6824,-4.6824,-4.644,-4.574,-4.6053,-4.634,-4.6576,-4.6747,-4.7145,-4.7658,-4.7608,-4.7396,-4.7171,-4.7171,-4.7234,-4.7234,-4.7308,-4.7608,-4.8007,-4.8128,-4.7922,-4.7749,-4.8215,-4.8092,-4.7762,-4.8114,-4.8172,-4.8172,-4.8172,-4.823,-4.842,-4.9179,-4.954,-4.9993,-5.13,-5.1874,-5.2075,-5.2157,-5.2075,-5.2038,-5.2188,-5.2442,-5.2778,-5.3133,-5.3362,-5.3691,-5.4134,-5.4323,-5.4654,-5.5239,-5.5109,-5.5055,-5.5026,-5.4826,-5.4682,-5.4709,-5.542,-5.5593,-5.5026,-5.5738,-5.6194,-5.6337,-5.5794,-5.5936,-5.688,-5.5728,-5.5781,-5.7102,-5.649,-5.6042,-5.5811,-5.6078,-5.5989,-5.5656,-5.5914,-5.5718,-5.5179,-5.5179,-5.5179,-5.5179,-5.5179,-5.5179,-5.5269,-5.5837,-5.6107,-5.6308,-5.0371,-5.0295,-5.0359,-5.0359,-5.0423,-5.055,-5.0867,-5.0867,-5.0931,-5.1057,-5.0487,-4.9912,-4.959,-4.8486,-4.763,-4.7497,-4.7497,-4.7497,-4.7497,-4.7497,-4.763,-4.7984,-4.7984,-4.8092,-4.842,-4.8616,-4.8355,-4.7696,-4.7865,-4.7597,-4.6964,-4.648,-4.599,-4.558,-4.558,-4.5813,-4.6182,-4.6078,-4.6483,-4.7219,-4.7115,-4.7055,-4.7143,-4.7394,-4.7558,-4.7683,-4.7683,-4.8209,-4.8825,-4.8508,-4.8356,-4.8306,-4.8282,-4.8077,-4.7939,-4.7925,-4.8055,-4.8172,-4.8172,-4.8433,-4.8806,-4.9186,-4.9917,-5.0604,-5.0943,-5.1928,-5.2783,-5.2811,-5.2513,-5.2365,-5.2902,-5.2821,-5.2854,-5.3329,-5.347,-5.3652,-5.3773,-5.4254,-5.4908,-5.5903,-5.5591,-5.5421,-5.5766,-5.5392,-5.5102,-5.5102,-5.5472,-5.5616,-5.5276,-5.5676,-5.5961,-5.6193,-5.5764,-5.5822,-5.6365,-5.5823,-5.5993,-5.6794,-5.6705,-5.6578,-5.6376,-5.6485,-5.6456,-5.6258,-5.6006,-5.5833,-5.5718,-5.5329,-5.5179,-5.5179,-5.5179,-5.5179,-5.5239,-5.5508,-5.5628,-5.5718]},{"header":{"parameterUnit":"m.s-1","parameterCategory":1,"la1":30.6,"la2":28.766,"lo1":-90.7593,"lo2":-88.6598,"dy":0.0162,"dx":0.0183,"nx":116,"ny":114,"refTime":"2023-04-20T06:00:00:Z","depth":0,"parameterNumber":3,"parameterNumberName":"V-component_of_WINDS"},"data":[0.0,0.0,0.0,0.0,0.0,0.0,0.0,0.0,0.0,0.0,0.0,0.0,0.0,0.0,0.0,0.0,0.0,0.0,0.0,0.0,0.0,0.0,0.0,0.0,0.0,0.0,0.0,0.0,0.0,0.0,0.0,0.0,0.0,0.0,0.0,0.0,0.0,0.0,0.0,0.0,0.0,0.0,0.0,0.0,0.0,0.0,0.0,0.0,0.0,0.0,0.0,0.0,0.0,0.0,0.0,0.0,0.0,0.0,0.0,0.0,0.0,0.0,0.0,0.0,0.0,0.0,0.0,0.0,0.0,0.0,0.0,0.0,0.0,0.0,0.0,0.0,0.0,0.0,0.0,0.0,0.0,0.0,0.0,0.0,0.0,0.0,0.0,0.0,0.0,0.0,0.0,0.0,0.0,0.0,0.0,0.0,0.0,0.0,0.0,0.0,0.0,0.0,0.0,0.0,0.0,0.0,0.0,0.0,0.0,0.0,0.0,0.0,0.0,0.0,0.0,0.0,0.0,0.0,0.0,0.0,0.0,0.0,0.0,0.0,0.0,0.0,0.0,0.0,0.0,0.0,0.0,0.0,0.0,0.0,0.0,0.0,0.0,0.0,0.0,0.0,0.0,0.0,0.0,0.0,0.0,0.0,0.0,0.0,0.0,0.0,0.0,0.0,0.0,0.0,0.0,0.0,0.0,0.0,0.0,0.0,0.0,0.0,0.0,0.0,0.0,0.0,0.0,0.0,0.0,0.0,0.0,0.0,0.0,0.0,0.0,0.0,0.0,0.0,0.0,0.0,0.0,0.0,0.0,0.0,0.0,0.0,0.0,0.0,0.0,0.0,0.0,0.0,0.0,0.0,0.0,0.0,0.0,0.0,0.0,0.0,0.0,0.0,0.0,0.0,0.0,0.0,0.0,0.0,0.0,0.0,0.0,0.0,0.0,0.0,0.0,0.0,0.0,0.0,0.0,0.0,0.0,0.0,0.0,0.0,0.0,0.0,0.0,0.0,0.0,0.0,0.0,0.0,0.0,0.0,0.0,0.0,0.0,0.0,0.0,0.0,0.0,0.0,0.0,0.0,0.0,0.0,0.0,0.0,0.0,0.0,0.0,0.0,0.0,0.0,0.0,0.0,0.0,0.0,0.0,0.0,0.0,0.0,0.0,0.0,0.0,0.0,0.0,0.0,0.0,0.0,0.0,0.0,0.0,0.0,0.0,0.0,0.0,0.0,0.0,0.0,0.0,0.0,0.0,0.0,0.0,0.0,0.0,0.0,0.0,0.0,0.0,0.0,0.0,0.0,0.0,0.0,0.0,0.0,0.0,0.0,0.0,0.0,0.0,0.0,0.0,0.0,0.0,0.0,0.0,0.0,0.0,0.0,0.0,0.0,0.0,0.0,0.0,0.0,0.0,0.0,0.0,0.0,0.0,0.0,0.0,0.0,0.0,0.0,0.0,0.0,0.0,0.0,0.0,0.0,0.0,0.0,0.0,0.0,0.0,0.0,0.0,0.0,0.0,0.0,0.0,0.0,0.0,0.0,0.0,0.0,0.0,0.0,0.0,0.0,0.0,0.0,0.0,0.0,0.0,0.0,0.0,0.0,0.0,0.0,0.0,0.0,0.0,0.0,0.0,0.0,0.0,0.0,0.0,0.0,0.0,0.0,0.0,0.0,0.0,0.0,0.0,0.0,0.0,0.0,0.0,0.0,0.0,0.0,0.0,0.0,0.0,0.0,0.0,0.0,0.0,0.0,0.0,0.0,0.0,0.0,0.0,0.0,0.0,0.0,0.0,0.0,0.0,0.0,0.0,0.0,0.0,0.0,0.0,0.0,0.0,0.0,0.0,0.0,0.0,0.0,0.0,0.0,0.0,0.0,0.0,0.0,0.0,0.0,0.0,0.0,0.0,0.0,0.0,0.0,0.0,0.0,0.0,0.0,0.0,0.0,0.0,0.0,0.0,0.0,0.0,0.0,0.0,0.0,0.0,0.0,0.0,0.0,0.0,0.0,0.0,0.0,0.0,0.0,0.0,0.0,0.0,0.0,0.0,0.0,0.0,0.0,0.0,0.0,0.0,0.0,0.0,0.0,0.0,0.0,0.0,0.0,0.0,0.0,0.0,0.0,0.0,0.0,0.0,0.0,0.0,0.0,0.0,0.0,0.0,0.0,0.0,0.0,0.0,0.0,0.0,0.0,0.0,0.0,0.0,0.0,0.0,0.0,0.0,0.0,0.0,0.0,0.0,0.0,0.0,0.0,0.0,0.0,0.0,0.0,0.0,0.0,0.0,0.0,0.0,0.0,0.0,0.0,0.0,0.0,0.0,0.0,0.0,0.0,0.0,0.0,0.0,0.0,0.0,0.0,0.0,0.0,0.0,0.0,0.0,0.0,0.0,0.0,0.0,0.0,0.0,0.0,0.0,0.0,0.0,0.0,0.0,0.0,0.0,0.0,0.0,0.0,0.0,0.0,0.0,0.0,0.0,0.0,0.0,0.0,0.0,0.0,0.0,0.0,0.0,0.0,0.0,0.0,0.0,0.0,0.0,0.0,0.0,0.0,0.0,0.0,0.0,0.0,0.0,0.0,0.0,0.0,0.0,0.0,0.0,0.0,0.0,0.0,0.0,0.0,0.0,0.0,0.0,0.0,0.0,0.0,0.0,0.0,0.0,0.0,0.0,0.0,0.0,0.0,0.0,0.0,0.0,0.0,0.0,0.0,0.0,0.0,0.0,0.0,0.0,0.0,0.0,0.0,0.0,0.0,0.0,0.0,0.0,0.0,0.0,0.0,0.0,0.0,0.0,0.0,0.0,0.0,0.0,0.0,0.0,0.0,0.0,0.0,0.0,0.0,0.0,0.0,0.0,0.0,0.0,0.0,0.0,0.0,0.0,0.0,0.0,0.0,0.0,0.0,0.0,0.0,0.0,0.0,0.0,0.0,0.0,0.0,0.0,0.0,0.0,0.0,0.0,0.0,0.0,0.0,0.0,0.0,0.0,0.0,0.0,0.0,0.0,0.0,0.0,0.0,0.0,0.0,0.0,0.0,0.0,0.0,0.0,0.0,0.0,0.0,0.0,0.0,0.0,0.0,0.0,0.0,0.0,0.0,0.0,0.0,0.0,0.0,0.0,0.0,0.0,0.0,0.0,0.0,0.0,0.0,0.0,0.0,0.0,0.0,0.0,0.0,0.0,0.0,0.0,0.0,0.0,0.0,0.0,0.0,0.0,0.0,0.0,0.0,0.0,0.0,0.0,0.0,0.0,0.0,0.0,0.0,0.0,0.0,0.0,0.0,0.0,0.0,0.0,0.0,0.0,0.0,0.0,0.0,0.0,0.0,0.0,0.0,0.0,0.0,0.0,0.0,0.0,0.0,0.0,0.0,0.0,0.0,0.0,0.0,0.0,0.0,0.0,0.0,0.0,0.0,0.0,0.0,0.0,0.0,0.0,0.0,0.0,0.0,0.0,0.0,0.0,0.0,0.0,0.0,0.0,0.0,0.0,0.0,0.0,0.0,0.0,0.0,0.0,0.0,0.0,0.0,0.0,0.0,0.0,0.0,0.0,0.0,0.0,0.0,0.0,0.0,0.0,0.0,0.0,0.0,0.0,0.0,0.0,0.0,0.0,0.0,0.0,0.0,0.0,0.0,0.0,0.0,0.0,0.0,0.0,0.0,0.0,0.0,0.0,0.0,0.0,0.0,0.0,0.0,0.0,0.0,0.0,0.0,0.0,0.0,0.0,0.0,0.0,0.0,0.0,0.0,0.0,0.0,0.0,0.0,0.0,0.0,0.0,0.0,0.0,0.0,0.0,0.0,0.0,0.0,0.0,0.0,0.0,0.0,0.0,0.0,0.0,0.0,0.0,0.0,0.0,0.0,0.0,0.0,0.0,0.0,0.0,0.0,0.0,0.0,0.0,0.0,0.0,0.0,0.0,0.0,0.0,0.0,0.0,0.0,0.0,0.0,0.0,0.0,0.0,0.0,0.0,0.0,0.0,0.0,0.0,0.0,0.0,0.0,0.0,0.0,0.0,0.0,0.0,0.0,0.0,0.0,0.0,0.0,0.0,0.0,0.0,0.0,0.0,0.0,0.0,0.0,0.0,0.0,0.0,0.0,0.0,0.0,0.0,0.0,0.0,0.0,0.0,0.0,0.0,0.0,0.0,0.0,0.0,0.0,0.0,0.0,0.0,0.0,0.0,0.0,0.0,0.0,0.0,0.0,0.0,0.0,0.0,0.0,0.0,0.0,0.0,0.0,0.0,0.0,0.0,0.0,0.0,0.0,0.0,0.0,0.0,0.0,0.0,0.0,0.0,0.0,0.0,0.0,0.0,0.0,0.0,0.0,0.0,0.0,0.0,0.0,0.0,0.0,0.0,0.0,0.0,0.0,0.0,0.0,0.0,0.0,0.0,0.0,0.0,0.0,0.0,0.0,0.0,0.0,0.0,0.0,0.0,0.0,0.0,0.0,0.0,0.0,0.0,0.0,0.0,0.0,0.0,0.0,0.0,0.0,0.0,0.0,0.0,0.0,0.0,0.0,0.0,0.0,0.0,0.0,0.0,0.0,0.0,0.0,0.0,0.0,0.0,0.0,0.0,0.0,0.0,0.0,0.0,0.0,0.0,0.0,0.0,0.0,0.0,0.0,0.0,0.0,0.0,0.0,0.0,0.0,0.0,0.0,0.0,0.0,0.0,0.0,0.0,0.0,0.0,0.0,0.0,0.0,0.0,0.0,0.0,0.0,0.0,0.0,0.0,0.0,0.0,0.0,0.0,0.0,0.0,0.0,0.0,0.0,0.0,0.0,0.0,0.0,0.0,0.0,0.0,0.0,0.0,0.0,0.0,0.0,0.0,0.0,0.0,0.0,0.0,0.0,0.0,0.0,0.0,0.0,0.0,0.0,0.0,0.0,0.0,0.0,0.0,0.0,0.0,0.0,0.0,0.0,0.0,0.0,0.0,0.0,0.0,0.0,0.0,0.0,0.0,0.0,0.0,0.0,0.0,0.0,0.0,0.0,0.0,0.0,0.0,0.0,0.0,0.0,0.0,0.0,0.0,0.0,0.0,0.0,0.0,0.0,0.0,0.0,0.0,0.0,0.0,0.0,0.0,0.0,0.0,0.0,0.0,0.0,0.0,0.0,0.0,0.0,0.0,0.0,0.0,0.0,0.0,0.0,0.0,0.0,0.0,0.0,0.0,0.0,0.0,0.0,0.0,0.0,0.0,0.0,0.0,0.0,0.0,0.0,0.0,0.0,0.0,0.0,0.0,0.0,0.0,0.0,0.0,0.0,0.0,0.0,0.0,0.0,0.0,0.0,0.0,0.0,0.0,0.0,0.0,0.0,0.0,0.0,0.0,0.0,0.0,0.0,0.0,0.0,0.0,0.0,0.0,0.0,0.0,0.0,0.0,0.0,0.0,0.0,0.0,0.0,0.0,0.0,0.0,0.0,0.0,0.0,0.0,0.0,0.0,0.0,0.0,0.0,0.0,0.0,0.0,0.0,0.0,0.0,0.0,0.0,0.0,0.0,0.0,0.0,0.0,0.0,0.0,0.0,0.0,0.0,0.0,0.0,0.0,0.0,0.0,0.0,0.0,0.0,0.0,0.0,0.0,0.0,0.0,0.0,0.0,0.0,0.0,0.0,0.0,0.0,0.0,0.0,0.0,0.0,0.0,0.0,0.0,0.0,0.0,0.0,0.0,0.0,0.0,0.0,0.0,0.0,0.0,0.0,0.0,0.0,0.0,0.0,0.0,0.0,0.0,0.0,0.0,0.0,0.0,0.0,0.0,0.0,0.0,0.0,0.0,0.0,0.0,0.0,0.0,0.0,0.0,0.0,0.0,0.0,0.0,0.0,0.0,0.0,0.0,0.0,0.0,0.0,0.0,0.0,0.0,0.0,0.0,0.0,0.0,0.0,0.0,0.0,0.0,0.0,0.0,0.0,0.0,0.0,0.0,0.0,0.0,0.0,0.0,0.0,0.0,0.0,0.0,0.0,0.0,0.0,0.0,0.0,0.0,0.0,0.0,0.0,0.0,0.0,0.0,0.0,0.0,0.0,0.0,0.0,0.0,0.0,0.0,0.0,0.0,0.0,0.0,0.0,2.0561,2.0251,0.0,0.0,0.0,0.0,0.0,0.0,0.0,0.0,0.0,0.0,0.0,0.0,0.0,0.0,0.0,0.0,0.0,0.0,0.0,0.0,0.0,0.0,0.0,0.0,0.0,0.0,0.0,0.0,0.0,0.0,0.0,0.0,0.0,0.0,0.0,0.0,0.0,0.0,2.6294,2.6901,2.815,2.7782,2.7595,2.7507,0.0,0.0,0.0,0.0,0.0,0.0,0.0,0.0,0.0,0.0,0.0,0.0,0.0,0.0,0.0,0.0,0.0,0.0,0.0,0.0,0.0,0.0,0.0,0.0,0.0,0.0,0.0,0.0,0.0,0.0,0.0,0.0,0.0,0.0,0.0,0.0,0.0,0.0,0.0,0.0,0.0,0.0,0.0,0.0,0.0,0.0,0.0,0.0,0.0,0.0,0.0,0.0,0.0,0.0,0.0,0.0,0.0,0.0,0.0,0.0,0.0,0.0,0.0,0.0,0.0,0.0,0.0,0.0,0.0,0.0,2.2954,2.1997,0.0,0.0,0.0,0.0,0.0,0.0,0.0,0.0,0.0,0.0,0.0,0.0,0.0,0.0,0.0,0.0,0.0,0.0,0.0,0.0,0.0,0.0,0.0,2.7129,2.704,2.7261,2.7037,2.6863,0.0,0.0,0.0,0.0,0.0,0.0,0.0,2.5401,2.6213,2.7593,2.845,2.9588,3.102,3.1628,3.1232,2.9918,2.9643,0.0,0.0,0.0,0.0,0.0,0.0,0.0,0.0,0.0,0.0,0.0,0.0,0.0,0.0,0.0,0.0,0.0,0.0,0.0,0.0,0.0,0.0,0.0,0.0,0.0,0.0,0.0,0.0,0.0,0.0,0.0,0.0,0.0,0.0,0.0,0.0,0.0,0.0,0.0,0.0,0.0,0.0,0.0,0.0,0.0,0.0,0.0,0.0,0.0,0.0,0.0,0.0,0.0,0.0,0.0,0.0,0.0,0.0,0.0,0.0,0.0,0.0,0.0,2.6129,2.6502,2.7279,2.6748,2.6789,2.7146,2.5761,2.4355,2.3034,2.3337,0.0,0.0,0.0,0.0,0.0,0.0,0.0,0.0,0.0,0.0,0.0,0.0,0.0,0.0,0.0,0.0,0.0,0.0,0.0,0.0,0.0,2.8913,2.9065,2.9588,2.9095,2.8714,2.8678,0.0,0.0,0.0,0.0,0.0,2.5371,2.5937,2.6657,2.7418,3.0713,3.2554,3.2964,3.4467,3.4958,3.439,3.132,3.0407,3.1165,0.0,0.0,0.0,0.0,0.0,0.0,0.0,0.0,0.0,0.0,0.0,0.0,0.0,0.0,0.0,0.0,0.0,0.0,0.0,0.0,0.0,0.0,0.0,0.0,0.0,0.0,0.0,0.0,0.0,0.0,0.0,0.0,0.0,0.0,0.0,0.0,0.0,0.0,0.0,0.0,0.0,2.1726,2.1848,0.0,0.0,0.0,0.0,0.0,0.0,0.0,0.0,0.0,0.0,0.0,0.0,0.0,2.6265,2.6593,2.7155,2.754,2.784,2.8855,2.9308,2.9263,2.9375,2.9689,3.0108,2.9625,0.0,2.7432,2.7017,0.0,0.0,0.0,0.0,0.0,0.0,0.0,0.0,0.0,0.0,0.0,0.0,0.0,0.0,0.0,0.0,0.0,0.0,0.0,0.0,0.0,2.952,3.0083,3.111,3.052,3.0082,3.0137,2.9192,0.0,0.0,0.0,2.7144,2.7306,2.7786,2.9018,3.1054,3.3262,3.4678,3.5377,3.6335,3.6996,3.7213,3.5524,3.4302,3.3391,3.2269,0.0,0.0,0.0,0.0,0.0,0.0,0.0,0.0,0.0,0.0,0.0,0.0,0.0,0.0,0.0,0.0,0.0,0.0,0.0,0.0,0.0,0.0,0.0,0.0,0.0,0.0,0.0,0.0,0.0,0.0,0.0,0.0,0.0,0.0,0.0,0.0,0.0,0.0,0.0,2.3087,2.3329,2.3365,2.366,2.3719,0.0,0.0,0.0,0.0,0.0,0.0,0.0,0.0,0.0,2.7433,2.7786,2.8248,2.8864,2.9374,2.9806,3.0188,3.0468,3.0675,3.0813,3.0698,3.0882,3.1315,3.1748,3.1592,3.095,2.9475,2.8579,2.7888,0.0,0.0,0.0,0.0,2.6222,2.7122,0.0,0.0,0.0,0.0,0.0,0.0,0.0,0.0,0.0,0.0,0.0,0.0,3.0371,3.091,3.1774,3.3287,3.2476,3.1914,3.207,3.0954,3.0021,0.0,2.8884,2.8756,2.9173,2.9768,3.1443,3.4224,3.5455,3.6457,3.7219,3.8019,3.865,3.9119,3.9192,3.8001,3.5888,3.4932,3.3593,3.1977,0.0,0.0,0.0,0.0,0.0,0.0,0.0,0.0,0.0,0.0,0.0,0.0,0.0,0.0,0.0,0.0,0.0,0.0,0.0,0.0,0.0,0.0,0.0,0.0,0.0,0.0,0.0,0.0,0.0,0.0,0.0,0.0,0.0,0.0,0.0,0.0,0.0,2.4433,2.4834,2.4823,2.5467,2.5576,0.0,0.0,0.0,0.0,0.0,0.0,2.6902,2.7949,2.8753,2.923,2.9589,3.0117,3.0767,3.1367,3.1879,3.2298,3.2207,3.2324,3.258,3.2277,3.2371,3.279,3.3332,3.3606,3.3457,3.1544,3.0196,2.9326,2.8207,2.7883,2.7964,2.7802,2.8225,2.9086,0.0,0.0,0.0,0.0,0.0,0.0,0.0,0.0,0.0,0.0,0.0,3.061,3.345,3.4138,3.5088,3.6873,3.5609,3.48,3.5002,3.3396,3.229,3.1921,3.1357,3.0749,3.012,3.1533,3.3156,3.5045,3.6893,3.7854,3.8062,3.9751,4.0331,4.0002,4.0787,4.025,3.8682,3.7309,3.6068,3.482,3.2543,0.0,0.0,0.0,0.0,0.0,0.0,0.0,0.0,0.0,0.0,0.0,0.0,0.0,0.0,0.0,0.0,0.0,0.0,0.0,0.0,0.0,0.0,0.0,0.0,0.0,0.0,0.0,0.0,0.0,0.0,0.0,0.0,0.0,0.0,0.0,0.0,0.0,0.0,2.5717,2.6724,0.0,0.0,0.0,0.0,2.6604,2.7838,2.8391,2.8047,2.9874,3.0789,3.0533,3.1271,3.1783,3.1994,3.2769,3.3338,3.3624,3.4535,3.4848,3.4655,3.4897,3.5162,3.5377,3.465,3.4478,3.4613,3.3231,3.2087,3.1095,3.0284,3.0084,3.0184,2.9792,3.065,3.1997,0.0,0.0,0.0,0.0,0.0,0.0,0.0,0.0,2.9497,3.0047,3.1238,3.2816,3.482,3.604,3.7654,3.9879,3.854,3.7604,3.7752,3.5983,3.4481,3.3476,3.3186,3.3235,3.3539,3.4622,3.5797,3.7084,3.8004,3.8761,3.936,4.0659,4.1197,4.1163,4.2998,4.3118,4.1858,4.0105,3.8659,3.734,3.5462,3.3993,0.0,0.0,0.0,0.0,0.0,0.0,0.0,0.0,0.0,0.0,0.0,0.0,0.0,0.0,0.0,0.0,0.0,0.0,0.0,0.0,0.0,0.0,0.0,0.0,0.0,0.0,0.0,0.0,0.0,0.0,0.0,0.0,0.0,0.0,0.0,0.0,0.0,2.7584,2.8522,0.0,2.8648,2.8671,2.8639,2.8484,2.9371,2.9988,3.0193,3.1506,3.2105,3.1839,3.2734,3.3184,3.3038,3.3518,3.3953,3.4414,3.48,3.4872,3.4775,3.4872,3.4969,3.5066,3.4968,3.4797,3.4525,3.4195,3.3559,3.2678,3.1307,3.1083,3.1461,3.1614,3.2123,3.2867,0.0,0.0,0.0,0.0,0.0,0.0,0.0,0.0,3.0368,3.0779,3.2422,3.4303,3.6172,3.7657,3.9531,4.204,4.0444,3.9525,3.9985,3.7953,3.6278,3.5242,3.4975,3.5206,3.593,3.6967,3.7937,3.8808,3.9507,4.0112,4.0675,4.1507,4.1962,4.2195,4.3663,4.4269,4.4028,4.2333,4.0952,3.9807,3.7879,3.6467,3.5217,0.0,0.0,0.0,0.0,0.0,0.0,0.0,0.0,0.0,0.0,0.0,0.0,0.0,0.0,0.0,0.0,0.0,0.0,0.0,0.0,0.0,0.0,0.0,0.0,0.0,0.0,0.0,0.0,0.0,0.0,0.0,0.0,0.0,0.0,2.7305,2.8161,2.9077,3.0053,3.0505,3.0209,3.0221,3.0194,3.0098,3.0995,3.1567,3.1761,3.2976,3.3417,3.2886,3.3777,3.3991,3.3323,3.3892,3.4282,3.4546,3.4724,3.4967,3.5352,3.5331,3.5283,3.5186,3.5405,3.509,3.4533,3.4553,3.4358,3.3995,3.256,3.222,3.2581,3.2828,3.335,3.4042,0.0,0.0,0.0,0.0,0.0,0.0,0.0,2.9471,3.0459,3.1402,3.2959,3.5001,3.7667,3.9043,4.0812,4.3395,4.1412,4.048,4.1528,3.9179,3.7597,3.7189,3.6728,3.6702,3.7158,3.8477,3.9443,4.0095,4.1311,4.1937,4.1937,4.2345,4.2676,4.2915,4.2754,4.3666,4.5161,4.3872,4.2961,4.2145,3.9753,3.8331,3.7387,0.0,0.0,0.0,0.0,0.0,0.0,0.0,0.0,0.0,0.0,0.0,0.0,0.0,0.0,0.0,0.0,0.0,0.0,0.0,0.0,0.0,0.0,0.0,0.0,0.0,0.0,0.0,0.0,0.0,0.0,0.0,0.0,0.0,2.7327,2.8373,2.9417,3.0097,3.1288,3.196,3.1684,3.1478,3.1368,3.1368,3.2566,3.3089,3.2607,3.4249,3.4728,3.3665,3.4406,3.4186,3.2869,3.3866,3.4296,3.4078,3.457,3.5375,3.6386,3.638,3.6259,3.5988,3.5988,3.5549,3.4823,3.4246,3.4534,3.5065,3.3997,3.3584,3.3608,3.3401,3.4274,3.5646,0.0,0.0,0.0,0.0,0.0,0.0,0.0,2.9512,3.113,3.1951,3.4304,3.6646,3.8772,4.0598,4.2376,4.4148,4.2993,4.2038,4.1842,4.0238,3.9264,3.9208,3.8804,3.9304,4.087,4.077,4.1095,4.1887,4.2015,4.2272,4.2632,4.3037,4.3189,4.3237,4.4396,4.4792,4.4575,4.4482,4.4223,4.3745,4.2281,4.1143,4.0051,0.0,0.0,0.0,0.0,0.0,0.0,0.0,0.0,0.0,0.0,0.0,0.0,0.0,0.0,0.0,0.0,0.0,0.0,0.0,0.0,0.0,0.0,0.0,0.0,0.0,0.0,0.0,0.0,0.0,0.0,0.0,2.9116,2.9491,2.9169,3.0087,3.1107,3.1778,3.2511,3.3006,3.3098,3.2718,3.2549,3.2724,3.3211,3.3627,3.3843,3.51,3.5375,3.4503,3.5263,3.5212,3.4274,3.4531,3.483,3.5147,3.5314,3.5537,3.5821,3.6013,3.6093,3.6042,3.6194,3.6032,3.5647,3.5305,3.5186,3.5065,3.3881,3.3641,3.3955,3.4073,3.4838,3.5971,0.0,0.0,0.0,0.0,0.0,0.0,0.0,2.9895,3.1565,3.2365,3.4911,3.743,3.9561,4.1277,4.3053,4.4886,4.3783,4.2925,4.2804,4.128,4.0604,4.1104,4.0514,4.1043,4.295,4.2519,4.2488,4.2935,4.3052,4.316,4.3296,4.3636,4.3913,4.4097,4.4944,4.5258,4.5228,4.492,4.495,4.511,4.395,4.2852,4.1701,3.9853,3.8728,3.796,3.706,3.5914,3.4805,3.4648,0.0,0.0,0.0,0.0,0.0,0.0,0.0,0.0,0.0,0.0,0.0,0.0,0.0,0.0,0.0,0.0,0.0,0.0,0.0,0.0,0.0,0.0,0.0,0.0,3.1118,3.1743,3.1721,3.1847,3.2207,3.2913,3.3311,3.3539,3.3694,3.3314,3.3119,3.3319,3.3782,3.4182,3.4361,3.5387,3.5713,3.5149,3.5585,3.5428,3.4582,3.4814,3.5034,3.5264,3.545,3.5827,3.625,3.643,3.6518,3.6518,3.6696,3.6416,3.5815,3.5667,3.5354,3.4969,0.0,0.0,0.0,0.0,3.5721,3.6284,0.0,0.0,0.0,0.0,0.0,0.0,0.0,3.0412,3.1784,3.2511,3.4986,3.7557,3.9841,4.127,4.2934,4.5095,4.3831,4.3206,4.3797,4.2099,4.1622,4.289,4.2022,4.2234,4.3913,4.376,4.3618,4.35,4.4051,4.4208,4.4032,4.4162,4.4583,4.5201,4.4883,4.5359,4.63,4.5125,4.5138,4.5871,4.4802,4.3675,4.2659,4.1678,4.0891,4.0218,3.9833,3.8689,3.7255,3.6929,0.0,0.0,0.0,0.0,0.0,0.0,0.0,0.0,0.0,0.0,0.0,0.0,0.0,0.0,0.0,0.0,0.0,0.0,0.0,0.0,0.0,0.0,0.0,0.0,3.3068,3.3922,3.4483,3.3529,3.3078,3.3743,3.3777,3.3761,3.3761,3.3561,3.3411,3.3411,3.4257,3.4728,3.4597,3.5503,0.0,0.0,0.0,3.5364,3.4585,3.505,3.5175,3.4913,3.5392,3.6145,3.7012,3.7125,3.7172,3.7172,3.7276,3.6723,3.5835,3.5737,3.54,3.4871,3.4871,3.5017,3.543,3.6382,3.6651,3.6614,0.0,0.0,0.0,0.0,0.0,0.0,0.0,3.0593,3.1772,3.2014,3.4676,3.7092,3.8555,4.0288,4.1887,4.3057,4.272,4.2552,4.2839,4.2126,4.2557,4.4543,4.368,4.3732,4.5006,4.4381,4.4138,4.429,4.433,4.4659,4.5232,4.4743,4.4944,4.573,4.5479,4.528,4.5215,4.4789,4.4566,4.4534,4.4239,4.3921,4.3526,4.2496,4.1991,4.176,4.1242,4.0785,4.0344,3.9798,3.8322,3.6545,3.5689,3.3751,0.0,0.0,0.0,0.0,0.0,0.0,0.0,0.0,0.0,0.0,0.0,0.0,0.0,0.0,0.0,0.0,0.0,0.0,0.0,3.3321,3.4124,3.4745,3.5282,3.4962,3.4641,3.461,3.4404,3.4272,3.4272,3.4019,3.3968,3.4171,3.4544,3.5027,3.5643,3.6224,3.661,3.6784,3.657,3.641,3.6248,3.6141,3.6025,3.6008,3.6133,0.0,3.6495,3.6918,3.7139,3.7139,3.7618,3.7573,3.7176,3.6536,3.593,3.5423,3.5224,3.5423,3.5891,3.6301,3.6719,3.7091,0.0,0.0,0.0,0.0,0.0,0.0,0.0,3.0817,3.1637,3.2152,3.4156,3.6247,3.7961,3.9316,4.0519,4.1604,4.1648,4.2119,4.3196,4.2743,4.3358,4.5551,4.4415,4.4428,4.6007,4.4991,4.4579,4.4946,4.4152,4.3946,4.4322,4.3851,4.4008,4.4726,4.5269,4.5376,4.5194,4.5223,4.5043,4.4624,4.4608,4.4396,4.4095,4.3131,4.3156,4.3506,4.2425,4.1978,4.1765,4.1207,4.0001,3.8429,3.6997,3.5346,3.3579,0.0,0.0,0.0,0.0,0.0,0.0,0.0,0.0,0.0,0.0,0.0,0.0,0.0,0.0,3.0495,3.1317,0.0,3.379,3.5006,3.5545,3.5966,3.6354,3.5951,3.5548,3.5395,3.5141,3.4937,3.4783,3.468,3.4578,3.4601,3.4929,3.5373,3.5968,3.6433,3.682,3.7089,3.6874,3.6712,3.6712,3.644,3.6332,3.6332,3.644,3.6495,3.6495,3.6928,3.6949,3.6791,3.7346,3.7278,3.6771,3.6354,3.6141,3.5999,3.5679,3.6002,3.6587,3.6597,3.6936,3.7508,0.0,0.0,0.0,0.0,0.0,0.0,0.0,3.1011,3.1453,3.2062,3.354,3.5208,3.6997,3.7997,3.8933,4.0037,4.0292,4.131,4.3516,4.3403,4.4091,4.6072,4.4889,4.4892,4.6361,4.529,4.4897,4.5281,4.3998,4.3321,4.3109,4.2663,4.2806,4.3469,4.4573,4.5207,4.5458,4.564,4.5549,4.5276,4.5276,4.501,4.4586,4.3644,4.3874,4.4549,4.2979,4.2317,4.2147,4.1715,4.091,3.9715,3.7958,3.673,3.5427,3.2609,3.1349,0.0,0.0,0.0,0.0,0.0,0.0,0.0,0.0,3.0367,3.1084,3.1151,3.1749,3.2507,3.3388,3.4424,3.5453,3.6463,3.6752,3.6915,3.7215,3.6606,3.6193,3.6391,3.601,3.5681,3.5422,3.537,3.5289,3.505,3.5366,3.5726,3.6054,3.6533,3.6874,3.7089,3.6874,3.6712,3.6712,3.644,3.6332,3.6332,3.6549,3.6603,3.6657,3.6928,3.6754,3.6362,3.6761,3.6614,3.6094,3.6094,3.6196,3.6296,3.5993,3.6362,3.7087,3.6877,3.7109,3.7721,0.0,0.0,0.0,0.0,0.0,0.0,0.0,0.0,3.1252,3.0914,3.269,3.4069,3.4341,3.5765,3.6994,3.7772,3.8116,3.9541,4.253,4.3543,4.4602,4.5946,4.5802,4.5437,4.4952,4.4796,4.4759,4.4779,4.4257,4.3754,4.3251,4.2312,4.2352,4.3166,4.3296,4.4047,4.5155,4.5184,4.5413,4.5805,4.5805,4.5578,4.5084,4.3819,4.3557,4.3667,4.2115,4.1536,4.1477,4.1237,4.0572,3.9852,3.9934,3.8439,3.6532,3.6136,3.3998,3.1648,3.1332,3.0434,2.9736,3.0258,3.1344,3.2188,0.0,3.3219,3.4338,3.3301,3.3555,3.4211,3.5052,3.5173,3.5608,3.722,3.707,3.6986,3.7448,3.708,3.6987,3.7705,3.6896,3.632,3.6244,3.6034,3.5875,3.5746,3.5869,3.6047,3.6271,3.6773,3.7066,3.7089,3.6874,3.6712,3.6712,3.644,3.6332,3.6332,3.6332,3.6332,3.6332,3.6603,3.6486,3.6074,3.6356,3.6414,3.6349,3.6535,3.6378,3.5958,3.5922,3.6277,3.678,3.6727,3.7096,3.7613,0.0,0.0,0.0,0.0,0.0,0.0,0.0,0.0,0.0,3.0817,3.187,3.2844,3.3356,3.462,3.5819,3.6815,3.6802,3.827,4.1949,4.2286,4.3185,4.5035,4.4677,4.4348,4.4149,4.3525,4.3543,4.4223,4.2904,4.2364,4.261,4.1592,4.1521,4.2207,4.2482,4.3062,4.3973,4.4385,4.4412,4.4215,4.5007,4.4731,4.3803,4.2625,4.228,4.2228,4.1056,4.0683,0.0,4.0164,3.9992,3.9881,3.9017,3.8251,3.7372,3.6006,3.4644,3.3338,3.2186,3.1625,3.1293,3.1252,3.2066,3.28,3.2575,3.3741,3.4787,3.4356,3.4628,3.5148,3.5694,3.5713,3.5916,3.6776,3.6697,3.6807,3.7494,3.7256,3.7092,3.7254,3.7035,3.6854,3.6791,3.6731,3.6494,3.6171,3.6279,3.6425,3.6526,3.6766,3.6928,3.7089,3.6712,3.6549,3.6712,3.644,3.6332,3.6332,3.6332,3.6332,3.6332,3.644,3.6379,3.6171,3.6161,3.6477,3.7037,3.7122,3.7014,3.6773,3.6447,3.6237,3.62,3.6168,3.6625,3.7356,0.0,0.0,0.0,0.0,0.0,0.0,0.0,0.0,0.0,0.0,3.108,3.1782,3.2762,3.3661,3.4587,3.5522,3.5581,3.7083,4.0631,4.1004,4.1867,4.3627,4.3579,4.3345,4.3111,4.2472,4.2492,4.3269,4.1845,4.1293,4.1603,4.0765,4.0668,4.1185,4.136,4.192,4.2777,4.337,4.334,4.2927,4.4093,4.3759,4.2458,4.1668,4.104,4.0456,3.9625,3.9367,3.9322,3.853,3.8552,3.8721,3.7733,3.7334,3.7023,3.5581,3.4802,3.4029,3.2475,3.2292,3.2463,3.2076,3.2709,3.3452,3.3321,3.4285,3.5152,3.5082,3.5512,3.5896,3.6056,3.6309,3.6527,3.6628,3.6765,3.7019,3.7542,3.7481,3.732,3.6916,3.71,3.714,3.7045,3.6932,3.671,3.6309,3.6549,3.6657,3.6603,3.682,3.6982,3.6958,3.6688,3.6549,3.6603,3.6386,3.6332,3.6332,3.6332,3.6332,3.6309,3.6117,3.614,3.6286,3.5964,3.6441,3.7336,3.7336,3.7349,3.7298,3.6849,3.6398,3.5926,3.5869,3.6271,3.6937,0.0,0.0,0.0,0.0,0.0,0.0,0.0,0.0,0.0,0.0,0.0,0.0,0.0,3.2667,3.3032,3.3288,3.4182,3.5734,3.8085,4.0032,4.1286,4.1646,4.2972,4.2938,4.1416,4.1848,4.1993,4.1749,4.1696,4.1232,4.0435,3.986,3.979,4.0029,3.9701,4.0402,4.1864,4.2137,4.2407,4.2676,4.3384,4.2809,4.1618,4.1454,4.013,3.832,3.7629,3.7412,3.7299,3.6284,3.5819,3.582,3.6741,3.598,3.4885,3.5814,3.475,3.3171,3.2275,3.2444,3.2909,3.2953,3.3778,3.4585,3.4289,3.5319,3.6213,3.5715,3.6207,3.6676,3.6456,3.7016,3.7502,3.7267,3.7667,3.7863,3.764,3.7794,3.7757,3.7252,3.7204,3.71,3.6835,3.6572,3.6414,3.6286,3.6549,3.6603,3.6332,3.7089,3.7328,3.6766,3.6958,3.6796,3.6332,3.6332,3.6332,3.6332,3.6332,3.6332,3.6254,3.5772,3.5818,3.6286,3.5726,3.6094,3.7035,3.7035,3.6996,3.6937,3.6879,3.6684,3.6365,3.6161,3.6117,3.641,0.0,0.0,0.0,0.0,0.0,0.0,0.0,0.0,0.0,0.0,0.0,0.0,0.0,0.0,0.0,0.0,3.3363,3.4418,3.6824,3.7011,3.7844,3.9648,3.9612,3.9612,3.9853,3.911,3.9143,3.9981,3.9143,3.8899,3.915,3.8705,3.8698,3.8997,3.8819,3.9346,4.0409,4.1241,4.1583,4.1581,4.1953,4.1454,4.0308,3.9461,3.8255,3.69,0.0,3.5695,3.578,3.4761,3.4629,3.4875,3.4823,3.492,3.5108,3.5667,3.4995,3.3945,3.3493,3.3315,3.3216,3.3121,3.3816,3.4392,3.4161,3.5032,3.5688,3.5153,3.5426,3.5671,3.5376,3.5843,3.6249,3.6156,3.6584,3.716,3.7794,3.7617,3.7517,3.7685,3.7397,3.71,3.6811,3.6706,3.6655,3.6557,3.6657,3.6742,3.6759,3.6547,3.6579,3.687,3.6297,3.6168,3.6526,3.6168,3.6168,3.6526,3.6386,3.6332,3.6277,3.6438,3.6567,3.6782,3.6943,3.7425,3.8068,3.8068,3.7815,3.7372,3.7372,3.6796,3.5909,3.5846,3.6171,3.6781,0.0,0.0,0.0,0.0,0.0,0.0,0.0,0.0,0.0,0.0,0.0,0.0,0.0,0.0,0.0,0.0,0.0,3.2976,3.4602,3.4335,3.4966,3.6856,3.6645,3.6598,3.6955,3.6305,3.6262,3.6788,3.6262,3.6262,3.6814,3.6751,3.6927,3.7352,3.7332,3.7772,3.8558,3.94,3.9617,3.9466,3.9996,3.9422,3.8255,3.7573,3.6671,0.0,3.4248,3.3919,3.403,3.3322,3.3344,3.3685,3.348,3.4158,3.4908,3.4594,3.4495,3.4356,3.3768,3.3647,3.3727,3.3765,3.3921,3.4075,3.4098,3.4748,3.5081,3.4252,3.4673,3.504,3.4475,3.4969,3.5517,3.5567,3.6117,3.6884,3.7853,3.7853,3.7829,3.7974,3.7685,3.7344,3.6968,3.6968,3.6867,3.6719,3.6712,3.6757,3.7012,3.642,3.6374,3.6956,3.6278,3.6114,3.6549,3.6168,3.626,3.6827,3.6639,3.6553,3.6553,3.7081,3.7196,3.7002,3.7563,3.8091,3.8596,3.8596,3.8316,3.7887,3.7983,3.7426,3.6498,3.6378,3.6742,3.7369,0.0,0.0,0.0,0.0,0.0,0.0,0.0,0.0,0.0,0.0,0.0,0.0,0.0,0.0,0.0,0.0,0.0,0.0,3.1683,3.2111,3.2688,3.3468,3.417,3.4095,3.3157,3.3688,3.3529,3.2646,3.3195,3.3513,3.363,3.4007,3.4528,3.5051,3.5165,3.5696,3.6415,3.6716,3.6743,3.6593,3.7446,3.6924,3.564,3.5857,3.532,3.425,3.2727,3.2137,3.2092,3.1927,3.1995,3.2237,3.2895,3.3754,3.4313,3.2986,3.3639,3.446,3.3144,3.3568,3.4421,3.4684,3.423,3.3871,3.4287,3.4597,3.4468,3.3092,3.4046,3.4823,3.3778,3.4486,3.5292,3.5565,3.6275,3.7106,3.7921,3.8449,3.8593,3.8166,3.807,3.7853,3.7372,3.73,3.7125,3.682,3.6712,3.6835,3.7012,3.6772,3.678,3.7012,3.6749,3.6549,3.6332,3.6355,3.6553,3.6979,3.7002,3.7025,3.7025,3.7609,3.7563,3.7094,3.7655,3.816,3.8619,3.8619,3.8544,3.844,3.867,3.841,3.791,3.7635,3.7749,3.8053,0.0,0.0,0.0,0.0,0.0,0.0,0.0,0.0,0.0,0.0,0.0,0.0,0.0,0.0,0.0,0.0,0.0,0.0,3.1715,3.082,3.0881,3.2199,3.2019,3.2027,3.2366,3.2014,3.1796,3.1863,3.1487,3.1293,3.1345,3.1461,3.1656,3.1993,3.2683,3.3322,3.3885,3.4667,3.5052,3.5074,3.4861,3.4547,3.4166,3.3716,3.3035,3.2206,3.1719,3.1325,3.1091,3.1214,3.192,3.2921,3.382,3.4687,3.5346,3.5068,3.5384,3.5505,3.4477,3.471,3.5023,3.413,3.4944,3.5594,3.4135,3.4468,3.4675,3.3137,3.3475,3.3911,3.338,3.453,3.5534,3.5585,3.6407,3.7476,3.8728,3.8468,3.854,3.965,3.9196,3.883,3.9008,3.8647,3.8293,3.8003,3.7192,3.689,3.7368,3.6521,3.6342,3.6956,3.6388,3.6223,3.6603,3.6997,3.7142,3.6979,3.7425,3.7609,3.7609,3.8137,3.8321,3.8206,3.8711,3.8987,3.9124,3.9124,3.8957,3.867,3.8426,3.815,3.7988,3.7318,3.7479,3.8121,0.0,0.0,0.0,0.0,0.0,0.0,0.0,0.0,0.0,0.0,0.0,0.0,0.0,0.0,0.0,0.0,0.0,0.0,0.0,2.9231,2.9031,2.997,2.9816,2.9841,3.0033,2.9566,2.9459,2.971,2.8985,2.8754,2.9105,2.9057,2.9393,3.0032,3.0487,3.1206,3.2108,3.2717,3.3074,0.0,0.0,3.2846,3.2506,3.2173,3.1744,3.1241,3.0616,3.0495,3.0782,3.177,3.2857,3.3992,3.529,3.5923,3.6204,3.6019,3.6131,3.6089,3.5168,3.4981,3.5018,3.4851,3.5298,3.5357,3.3917,3.4078,3.3975,3.2138,3.2229,3.2601,3.252,3.3576,3.4692,3.5474,3.6168,3.7223,3.906,3.8689,3.8721,4.0057,3.9753,3.9435,3.9387,3.9101,3.8878,3.8713,3.7942,3.7543,3.7804,3.7008,3.6773,3.7356,3.6502,3.6283,3.6818,3.7349,3.7663,3.7724,3.7999,3.8137,3.816,3.8665,3.878,3.8619,3.9101,3.9308,3.9308,3.9308,3.9108,3.8744,3.8465,3.8478,3.8534,3.7743,3.7821,3.8403,0.0,0.0,0.0,0.0,0.0,0.0,0.0,0.0,0.0,0.0,0.0,0.0,0.0,0.0,0.0,0.0,0.0,0.0,0.0,0.0,2.7596,2.7735,2.7998,2.7879,2.7323,2.713,2.7018,2.7048,2.6327,2.6282,2.6907,2.6773,2.7327,2.8402,2.8384,2.913,3.0457,3.0694,3.0957,3.1123,3.1523,3.1292,3.0793,0.0,3.0887,3.0638,2.9646,2.983,3.0865,3.2854,3.4144,3.5198,3.6668,3.7123,3.697,3.6385,3.6475,3.6513,3.5494,3.4908,3.4864,3.6043,3.5437,3.437,3.3731,3.3507,3.2854,3.0779,3.0841,3.1294,3.1451,3.23,3.3459,3.5109,3.5678,3.6719,3.8901,3.884,3.8939,3.9812,3.9907,3.9718,3.9267,3.9204,3.9181,3.9181,3.8832,3.8516,3.8278,3.7804,3.7567,3.7678,3.6828,3.6576,3.6979,3.7609,3.8137,3.8596,3.8642,3.8688,3.8688,3.9101,3.9078,3.8711,3.9124,3.9308,3.9308,3.9308,3.9108,3.8826,3.8641,3.8872,3.918,3.8443,3.8462,3.8752,0.0,0.0,0.0,0.0,0.0,0.0,0.0,0.0,0.0,0.0,2.8528,2.8541,0.0,0.0,0.0,0.0,0.0,0.0,0.0,0.0,0.0,2.788,2.7789,2.7518,2.6911,2.633,2.5913,2.5666,2.5081,2.4772,2.4748,2.4715,2.4921,2.5294,2.5846,2.6576,2.7459,2.8072,2.8633,2.9127,2.9193,2.9176,2.9224,2.9385,0.0,0.0,2.9597,3.0007,3.0755,3.2882,3.4447,3.5632,3.6561,3.7483,3.8042,3.7048,3.7083,3.7143,3.5883,3.5591,3.5759,3.6001,3.5713,3.4997,3.3865,3.3039,3.2062,3.0482,3.0581,3.0982,3.0982,3.2204,3.3361,3.3874,3.487,3.6202,3.787,3.8009,3.8514,0.0,3.9931,3.9849,4.0022,3.9645,3.941,3.941,3.9575,3.9306,3.8639,3.804,3.755,3.7173,3.6989,3.6943,3.6979,3.7976,3.8504,3.8596,3.8987,3.917,3.917,3.9262,3.9262,3.917,3.9262,3.9308,3.9308,3.9308,3.9249,3.918,3.878,3.8872,3.9239,3.8699,3.8638,3.8812,0.0,0.0,0.0,0.0,0.0,0.0,0.0,2.8953,2.9027,2.9265,2.9271,2.9051,2.8449,2.8405,2.8504,0.0,0.0,0.0,0.0,0.0,0.0,0.0,0.0,0.0,2.6345,2.5959,2.5726,2.5641,0.0,2.457,2.4782,2.4315,2.4372,2.4815,2.5231,2.5766,2.6459,2.7578,2.8107,2.8266,2.8689,2.8922,2.8986,0.0,0.0,0.0,0.0,2.9258,3.0151,3.1681,3.3245,3.4786,3.6393,3.7411,3.7861,3.7371,3.6989,3.6661,3.6005,3.5399,3.5036,3.5295,3.4849,3.4003,3.2804,3.201,3.1141,2.9814,2.9834,3.0124,3.0159,3.1549,3.2883,3.3532,3.4456,3.5781,3.7702,3.7725,3.8103,3.9581,3.9802,3.9861,3.9954,3.9628,3.9488,3.9662,3.9465,3.9267,3.9038,3.864,3.8181,3.7673,3.7757,3.7895,3.8042,3.8631,3.8964,3.8964,3.9193,3.9308,3.9308,3.9308,3.9308,3.9308,3.9308,3.9308,3.9308,3.9308,3.9308,3.9262,3.8582,3.8813,3.9462,3.8739,3.8807,3.9331,0.0,0.0,0.0,0.0,0.0,0.0,0.0,2.9164,2.9281,2.9972,3.0064,2.9745,2.8935,2.8883,2.8824,0.0,0.0,0.0,0.0,0.0,0.0,0.0,0.0,0.0,0.0,0.0,0.0,2.5769,2.4706,0.0,0.0,0.0,0.0,0.0,2.4915,2.5356,2.5942,2.7322,2.785,0.0,0.0,2.8894,0.0,0.0,0.0,0.0,0.0,2.8213,2.9233,3.0164,3.1504,3.3132,3.5226,3.6509,3.7268,3.7119,3.6593,3.5984,3.586,3.4867,3.4004,3.4642,3.3724,3.2493,3.1754,3.0893,3.0017,2.9009,2.8964,2.9122,2.9316,3.0649,3.2094,3.3175,3.4035,3.5254,3.7424,3.7529,3.7815,3.9053,3.9485,0.0,3.9684,3.9426,3.9426,3.9684,3.9249,3.9183,3.9486,3.9173,3.8826,3.8431,3.8539,3.8689,3.8897,3.9173,3.9308,3.9308,3.9308,3.9308,3.9308,3.9308,3.9308,3.9308,3.9308,3.9308,3.9308,3.9308,3.9308,3.9203,3.8521,3.8857,3.9669,3.8814,3.903,3.9692,0.0,0.0,0.0,0.0,0.0,0.0,0.0,2.9088,2.9022,2.9788,2.9906,3.0033,3.0269,3.0067,2.9563,0.0,0.0,0.0,0.0,0.0,0.0,0.0,0.0,0.0,0.0,0.0,0.0,2.5096,2.4025,0.0,0.0,0.0,0.0,0.0,0.0,2.454,2.5183,2.6096,0.0,0.0,0.0,0.0,0.0,0.0,0.0,0.0,0.0,2.7087,2.7845,2.8774,2.966,3.0564,3.1955,3.4254,3.6398,3.5823,3.5906,3.5966,3.5405,3.4339,3.3617,3.4568,3.2843,3.1073,3.1484,2.9991,2.847,2.8315,2.8096,2.814,2.8674,2.9852,3.1021,3.2006,3.3153,3.4598,3.6334,3.7016,3.7758,3.8757,0.0,0.0,3.9367,3.9308,3.9308,3.9367,3.9567,3.972,3.9732,3.9268,3.8965,3.8942,3.8724,3.8596,3.8631,3.9055,3.9308,3.9308,3.9308,3.9308,3.9308,3.9308,3.9308,3.9308,3.9308,3.9308,3.9308,3.9308,3.9308,3.9226,3.8885,3.9121,3.9575,3.9152,3.9273,3.9658,0.0,0.0,0.0,0.0,0.0,0.0,2.9123,2.9008,2.925,3.0262,3.0626,3.0731,3.0603,3.0642,3.0455,2.9785,0.0,0.0,0.0,0.0,0.0,0.0,0.0,0.0,0.0,0.0,2.555,2.5411,2.4691,0.0,0.0,0.0,0.0,0.0,0.0,2.5066,2.5014,2.6549,0.0,0.0,0.0,0.0,0.0,0.0,0.0,0.0,0.0,0.0,2.7918,2.815,2.8941,2.9829,3.0351,3.1675,3.3355,3.462,3.4928,3.4897,3.5356,3.4581,3.3764,3.3877,3.237,3.0773,3.0719,2.9286,2.7854,2.7577,2.7582,2.7661,2.7787,2.8836,3.0128,3.1423,3.2384,0.0,3.5334,3.6195,3.7041,3.7952,3.8557,3.8987,3.9285,3.9108,3.899,3.899,3.9485,3.9802,3.9802,3.9593,3.9477,3.9477,3.9185,3.915,3.9325,3.9334,3.9308,3.9308,3.9308,3.9308,3.9308,3.9308,3.9308,3.9308,3.9308,3.9308,3.9308,3.9308,3.9308,3.9249,3.893,3.8925,3.9092,3.8864,3.9198,3.9712,0.0,0.0,0.0,0.0,0.0,2.879,2.9143,2.9042,2.9285,3.0325,3.0666,3.0717,3.0452,3.061,3.0595,3.0291,2.9571,0.0,0.0,0.0,0.0,0.0,0.0,0.0,0.0,0.0,2.5962,2.5797,2.5273,2.4942,0.0,0.0,2.4433,2.4416,0.0,0.0,0.0,0.0,0.0,0.0,0.0,0.0,0.0,0.0,0.0,0.0,0.0,0.0,0.0,0.0,0.0,2.8937,2.9333,0.0,0.0,3.3123,3.3814,3.3981,3.4894,3.446,3.3741,3.338,3.1961,3.0494,2.9989,2.8619,2.7373,2.7002,2.705,2.7163,2.7259,2.8232,2.9473,3.0992,0.0,3.3003,3.4615,3.5625,3.651,3.7305,3.8134,3.8711,3.9055,3.9039,3.893,3.893,3.9367,3.9684,3.9684,3.9684,3.9684,3.9802,3.9485,3.9426,3.9684,3.9426,3.9308,3.9308,3.9308,3.9308,3.9308,3.9308,3.9308,3.9308,3.9308,3.9216,3.9101,3.9239,3.9216,3.9043,3.8862,3.8843,3.8904,3.878,3.9115,3.962,0.0,0.0,0.0,0.0,0.0,0.0,2.9758,2.9215,2.897,2.9792,2.9669,2.9615,2.9966,2.9746,2.9719,2.9963,2.9454,0.0,0.0,0.0,0.0,0.0,0.0,0.0,0.0,0.0,2.6233,2.6098,2.5369,2.4927,2.4795,2.4795,2.5048,2.5522,0.0,0.0,0.0,0.0,0.0,0.0,0.0,0.0,0.0,0.0,0.0,0.0,0.0,0.0,0.0,0.0,0.0,0.0,0.0,0.0,0.0,0.0,3.2488,3.3404,3.3909,3.3693,3.3308,3.3284,3.1673,2.9965,2.9436,2.8065,2.686,2.6671,2.6444,2.6566,2.7334,2.8184,2.9166,3.068,3.1738,0.0,3.4316,3.5513,3.6398,0.0,3.7929,3.8596,3.8596,3.9033,3.9308,3.9308,3.9308,3.9308,3.9308,3.9308,3.9426,3.9802,3.9485,3.9308,3.9308,3.9308,3.9308,3.9308,3.9308,3.9308,3.9308,3.9308,3.9308,3.9308,3.9308,3.9033,3.8619,3.9101,3.9033,3.8642,3.8748,3.8927,3.9075,3.9075,3.9075,3.9196,0.0,0.0,0.0,0.0,0.0,0.0,0.0,2.8889,2.8871,2.9367,2.9395,2.9247,2.888,2.8876,2.8779,2.8442,2.8833,0.0,0.0,0.0,0.0,0.0,0.0,0.0,0.0,0.0,2.6673,2.7185,2.6876,2.6938,2.7311,2.7311,2.7258,2.7087,2.7466,2.7396,0.0,0.0,0.0,0.0,0.0,0.0,2.7456,0.0,0.0,0.0,0.0,0.0,0.0,0.0,0.0,0.0,0.0,0.0,0.0,2.9537,3.0561,3.1448,3.1364,3.148,3.1553,3.1192,3.0429,2.9593,2.8923,2.8089,2.7196,2.6229,2.6329,2.6672,2.6971,2.756,2.8541,3.0171,3.1236,3.2263,0.0,0.0,0.0,3.6767,3.8202,3.9078,3.9078,3.9216,3.9308,3.9308,3.9308,3.9308,3.9308,3.9308,3.9367,3.9426,3.9367,3.9308,3.9308,3.9308,3.9308,3.9308,3.9308,3.9308,3.9308,3.9308,3.9124,3.8826,3.917,3.9033,3.8619,3.9101,3.9216,3.9078,3.9121,3.9021,3.8859,3.8859,3.9061,3.924,0.0,0.0,0.0,0.0,0.0,0.0,0.0,2.8701,2.8722,2.8878,2.8858,2.8611,2.8088,2.8029,2.7876,2.7509,2.7862,0.0,0.0,0.0,0.0,0.0,0.0,0.0,2.682,2.6811,2.7099,2.7721,2.7733,2.7994,2.8482,2.8595,2.8397,2.7995,2.8334,2.8071,0.0,0.0,0.0,0.0,0.0,0.0,2.7203,0.0,0.0,0.0,0.0,0.0,0.0,0.0,0.0,0.0,0.0,0.0,0.0,0.0,2.9004,2.9846,3.002,3.0182,3.0302,3.0374,2.9801,2.9068,2.857,2.8114,2.7411,2.63,2.6494,2.688,2.7039,2.7448,2.8342,2.9952,3.0743,3.1658,3.2896,3.4042,3.5358,3.7065,3.8296,3.9101,3.9285,3.9308,3.9308,3.9308,3.9308,3.9308,3.9308,3.9308,3.9308,3.9308,3.9308,3.9308,3.9308,3.9308,3.9308,3.9308,3.9308,3.9308,3.9285,3.9124,3.8872,3.8596,3.8688,3.855,0.0,3.8826,3.9033,3.9055,3.9239,3.9108,3.8812,3.893,3.9049,3.9108,0.0,0.0,0.0,0.0,0.0,0.0,0.0,2.8628,2.8549,2.8411,2.8168,2.7865,2.7585,2.7251,2.7045,2.7019,0.0,0.0,0.0,0.0,0.0,0.0,0.0,0.0,2.6765,2.7133,2.7449,2.7752,2.8167,2.8426,2.854,2.8939,2.8826,2.8397,2.854,2.8283,2.7619,2.712,2.6788,2.6562,2.6943,2.6982,0.0,0.0,0.0,0.0,0.0,0.0,0.0,0.0,0.0,0.0,0.0,0.0,0.0,0.0,0.0,0.0,0.0,2.9574,2.9412,3.0374,2.9508,2.845,2.845,2.8114,0.0,2.6766,2.6931,2.7219,2.7489,2.7824,2.8544,2.9952,3.0426,3.1178,3.2831,3.3854,3.5311,3.7496,3.8298,3.8803,3.9262,3.9308,3.9308,3.9308,3.9367,3.9367,3.9367,3.9367,3.9367,3.9367,3.9367,3.9308,3.9308,3.9308,3.9308,3.9308,3.9308,3.9308,3.9285,3.8803,3.8573,3.8504,3.8045,3.7816,3.7839,3.8413,3.8642,3.8688,3.9229,3.9154,3.8871,3.9213,3.9154,3.8871,0.0,0.0,0.0,0.0,0.0,0.0,0.0,0.0,0.0,0.0,2.8014,2.7715,2.7335,2.6919,2.6578,0.0,0.0,0.0,0.0,0.0,0.0,0.0,0.0,0.0,2.6578,2.7131,2.7705,2.8222,2.9435,3.0044,3.0103,3.0805,3.0746,3.0014,2.9346,2.831,2.7031,2.7258,2.7169,2.6903,2.7157,2.7355,0.0,0.0,0.0,0.0,2.6799,2.6629,0.0,0.0,0.0,0.0,0.0,0.0,0.0,0.0,2.7606,2.761,2.8006,0.0,2.8065,2.7897,2.799,2.8091,0.0,2.8114,2.8026,2.7052,2.7293,2.7743,2.7725,2.8355,2.915,3.0044,3.1008,3.1951,3.2752,3.4719,3.6409,3.736,3.848,3.9311,3.9661,3.9426,3.9426,3.9684,3.9684,3.9684,3.9684,3.9896,3.9896,3.9684,3.9684,3.9544,3.9308,3.9308,3.9308,3.9308,3.9308,3.9308,3.9285,3.8803,3.8367,3.7999,3.8275,3.816,3.7862,3.8757,3.9124,3.9193,3.9996,3.9831,3.9295,3.9983,3.9831,3.9167,0.0,0.0,0.0,0.0,0.0,0.0,0.0,0.0,0.0,0.0,0.0,0.0,0.0,0.0,0.0,0.0,0.0,0.0,0.0,0.0,0.0,0.0,0.0,2.6448,2.6418,2.6967,2.7736,2.8623,2.9811,3.0683,3.1245,3.2011,3.1683,3.045,2.9117,2.7909,2.6909,2.7099,2.6916,2.6547,2.7041,0.0,0.0,0.0,0.0,0.0,2.6601,2.6226,0.0,2.6524,2.7047,2.7293,0.0,0.0,0.0,0.0,2.8027,2.7677,2.7569,2.7089,2.6719,2.7289,2.7279,2.7303,2.8053,0.0,2.8114,2.8041,2.8035,2.8226,2.8772,2.9125,2.9621,3.0736,3.1302,3.2088,3.3198,3.5003,3.6577,3.7474,3.8539,3.9348,3.9779,3.972,3.9779,3.9954,3.9954,3.9954,3.9954,4.0013,3.9954,3.9802,3.9684,3.9485,3.9308,3.9308,3.9308,3.9308,3.9308,3.9193,3.8964,3.8459,3.793,3.7448,3.7747,3.7839,3.7862,3.8642,3.9101,3.9413,4.024,4.0125,3.9613,4.0478,4.0339,3.9743,0.0,0.0,0.0,0.0,0.0,0.0,0.0,0.0,0.0,0.0,0.0,0.0,0.0,0.0,0.0,0.0,0.0,0.0,0.0,0.0,0.0,0.0,2.592,2.6182,2.6597,2.7029,2.7853,2.9084,2.9955,3.0971,3.2102,3.2779,3.2094,3.0216,2.8622,2.7567,2.6977,2.6843,2.6558,2.616,2.6826,0.0,0.0,0.0,0.0,0.0,0.0,0.0,0.0,2.5438,2.6189,2.6866,2.66,0.0,0.0,0.0,0.0,0.0,2.7914,2.67,2.5877,2.7586,2.7306,2.7013,2.8733,2.8576,2.837,2.9261,2.8846,2.8723,3.0075,2.9875,3.0028,3.1506,3.1689,3.224,3.3937,3.5233,3.6405,3.7678,3.8585,3.9291,3.9814,4.0071,4.0223,4.0281,4.0281,4.0281,4.0281,4.013,3.9978,3.9861,3.9603,3.9367,3.9308,3.9308,3.9308,3.9308,3.9239,3.8987,3.8573,3.7953,3.7471,3.7094,3.7094,3.7448,3.7953,3.8481,3.8987,3.9528,4.0356,4.0406,4.0045,4.0927,4.0845,4.047,0.0,0.0,0.0,0.0,0.0,0.0,0.0,0.0,0.0,0.0,0.0,0.0,0.0,0.0,0.0,0.0,0.0,0.0,0.0,0.0,0.0,2.6442,2.6665,2.7199,2.8052,2.8252,2.8857,2.9919,3.1123,3.1948,3.2433,3.3235,3.2207,2.9697,2.925,2.8275,2.7003,2.6919,2.692,2.6974,2.6635,0.0,0.0,0.0,0.0,0.0,0.0,0.0,0.0,2.5561,2.541,2.536,2.6223,0.0,0.0,0.0,0.0,0.0,2.8856,2.7717,2.6518,2.7784,2.8387,2.9018,3.0212,3.0204,3.0039,0.0,2.9498,2.9272,3.0566,3.0229,3.0261,3.178,3.2723,3.365,3.4766,3.6004,3.7071,3.7724,3.8932,3.9826,4.0106,4.0165,4.0305,4.0595,4.0619,4.0619,4.0619,4.0826,4.0711,4.0188,4.0106,3.9814,3.9308,3.9308,3.9308,3.9308,3.8895,3.8665,3.855,3.7586,3.7333,3.7678,3.7678,3.7976,3.8504,3.8987,3.9492,4.0057,4.0866,4.0967,4.0785,4.1906,4.1827,4.1247,0.0,0.0,0.0,0.0,0.0,0.0,0.0,0.0,0.0,0.0,0.0,0.0,0.0,0.0,0.0,0.0,0.0,0.0,0.0,0.0,2.7001,2.8168,2.8275,2.8474,2.8828,2.9002,2.9813,3.1275,3.2069,3.2809,3.3583,3.3397,3.2513,3.1014,2.9883,2.8729,2.763,2.7377,2.7091,2.6823,0.0,0.0,0.0,0.0,0.0,0.0,0.0,0.0,0.0,0.0,2.5448,2.5844,2.6737,0.0,0.0,0.0,0.0,0.0,2.9032,2.8487,2.7791,2.8977,2.879,2.8593,2.9757,2.9622,2.9438,3.0025,2.9718,2.973,3.0879,3.1083,3.16,3.3264,3.3958,3.4698,3.604,3.6727,3.7534,3.8604,3.9426,4.008,4.0455,4.0653,4.0826,4.0966,4.0942,4.0942,4.0942,4.0942,4.0792,4.0479,4.0281,4.0013,3.9544,3.9567,3.937,3.8918,3.8688,3.8436,3.8137,3.7655,3.7563,3.7793,3.8091,3.8367,3.8619,3.9101,3.9607,4.0232,4.1224,4.135,4.1213,4.2117,4.2357,4.2282,0.0,0.0,0.0,0.0,0.0,0.0,0.0,0.0,0.0,0.0,0.0,0.0,0.0,0.0,0.0,0.0,0.0,0.0,0.0,2.6863,2.7397,2.9406,2.9325,2.9433,2.9838,2.9986,3.1042,3.3003,3.2995,3.3591,3.4711,3.353,3.2788,3.2348,3.0582,2.9244,2.8284,2.7935,2.7325,2.6635,0.0,0.0,0.0,0.0,0.0,0.0,0.0,0.0,0.0,0.0,0.0,0.0,0.0,0.0,0.0,2.8747,2.825,2.8064,2.9333,2.9227,2.9074,3.0328,2.9671,2.8985,2.9988,2.9851,2.9776,3.0712,3.0535,3.0596,3.1728,3.2486,3.3332,3.4628,3.5121,3.5827,3.7167,3.7449,3.8068,3.9329,3.9817,4.0226,4.0629,4.0942,4.1139,4.1172,4.1172,4.1172,4.1172,4.0966,4.0792,4.0735,4.0479,4.013,3.9802,3.9686,3.9256,3.8596,3.8596,3.8298,3.7793,3.7793,3.7862,3.7999,3.8413,3.8642,3.878,3.9147,3.9735,4.0454,4.1247,4.1611,4.1821,4.2333,4.2838,4.333,0.0,0.0,0.0,0.0,0.0,0.0,0.0,0.0,0.0,0.0,0.0,0.0,0.0,0.0,0.0,0.0,0.0,0.0,0.0,2.74,2.7512,2.9171,2.8928,2.9709,3.1749,3.1748,3.2845,3.5091,3.4114,3.4266,3.54,3.3767,3.2911,3.2674,3.1261,2.9826,2.8581,2.8416,2.7794,2.6957,2.6888,0.0,0.0,0.0,0.0,0.0,0.0,0.0,0.0,0.0,0.0,0.0,0.0,0.0,2.8785,2.8293,2.9049,3.0104,3.0139,3.008,3.024,3.1301,3.2006,3.2475,3.2593,3.2902,3.3283,3.3795,3.2714,3.2154,3.3559,3.4654,3.5224,3.4843,3.6038,3.719,3.7778,3.8272,3.8789,3.9423,3.9894,4.0316,4.0653,4.0735,4.085,4.1196,4.1172,4.1172,4.1172,4.1196,4.1,4.0735,4.0677,4.0386,3.9802,3.9314,3.8885,3.8596,3.8596,3.8298,3.7793,3.7793,3.8045,3.8527,3.8573,3.8849,3.9262,3.9285,4.0061,4.1182,4.0984,4.1808,4.3146,4.3208,4.3606,4.4151,0.0,0.0,0.0,0.0,0.0,0.0,0.0,0.0,0.0,0.0,0.0,0.0,0.0,0.0,0.0,0.0,0.0,0.0,0.0,2.7969,2.8082,2.9288,2.9298,3.0218,3.2265,3.242,3.3435,3.5424,3.5078,3.5174,3.5591,3.3925,3.3181,3.3156,3.1271,3.0058,2.9389,2.9193,2.8387,2.7321,2.7443,2.6943,0.0,0.0,0.0,0.0,0.0,0.0,0.0,0.0,2.7596,2.7692,2.9203,2.9964,3.0354,3.0429,3.061,3.0881,3.1351,3.1041,3.0958,3.2173,3.3053,3.3471,3.2904,3.2807,3.2885,3.3183,3.3345,3.3727,3.4807,3.521,3.5547,3.618,3.6796,3.7607,3.8799,3.9133,3.9586,4.0445,4.0707,4.0884,4.1024,4.1024,4.1057,4.1196,4.1172,4.1172,4.1172,4.1172,4.1139,4.1024,4.1024,4.0711,4.0071,3.9861,3.9372,3.8573,3.8252,3.7976,3.7793,3.8137,3.855,3.9033,3.9033,3.9007,3.899,3.9226,3.9662,4.0289,4.1053,4.2031,4.3012,4.32,4.3451,4.3701,0.0,0.0,0.0,0.0,0.0,0.0,0.0,0.0,0.0,0.0,0.0,0.0,0.0,0.0,0.0,0.0,0.0,0.0,2.9256,2.8283,2.814,2.903,2.8953,2.9806,3.1782,3.222,3.3533,3.5723,3.5889,3.5808,3.5451,3.4233,3.3694,3.3668,3.1773,3.0886,3.066,2.9901,2.906,2.8191,2.7895,2.7161,0.0,0.0,0.0,0.0,0.0,0.0,0.0,0.0,2.8691,2.9062,3.0538,3.1299,3.1599,3.1412,3.1736,3.2032,3.1687,3.1564,3.1733,3.2786,3.3555,3.4033,3.3991,3.373,3.3546,3.3871,3.4477,3.513,3.5711,3.599,3.6329,3.7063,3.7613,3.8334,3.9465,3.9753,4.0186,4.1076,4.1115,4.1057,4.1196,4.1283,4.1321,4.1437,4.1437,4.1437,4.1437,4.1268,4.1172,4.1172,4.1172,4.0884,4.0223,4.0082,3.9534,3.8573,3.8206,3.8045,3.8045,3.8573,3.8928,3.9108,3.9108,3.893,3.8693,3.899,3.9519,4.0289,4.1483,4.2395,4.3012,4.32,4.3389,4.3514,0.0,0.0,0.0,0.0,0.0,0.0,0.0,0.0,0.0,0.0,0.0,0.0,0.0,0.0,0.0,0.0,0.0,0.0,2.9928,2.8139,2.7456,2.8254,2.7645,2.8264,3.0358,3.1251,3.3186,3.6153,3.6384,3.5987,3.4971,3.466,3.4362,3.4147,3.2916,3.2446,3.2377,3.0511,2.9756,2.9667,2.8134,2.7338,2.7088,0.0,0.0,0.0,0.0,0.0,0.0,0.0,2.9036,2.9359,3.0256,3.1494,3.2278,3.069,3.2213,3.3811,3.1055,3.1441,3.2698,3.3198,3.3626,3.4401,3.6269,3.6256,3.5943,3.649,3.6493,3.6383,3.6335,3.7246,3.7824,3.7308,3.8551,3.9609,3.9609,4.0066,4.0595,4.1124,4.0908,4.085,4.1196,4.1386,4.1613,4.199,4.1966,4.1966,4.1966,4.1485,4.1172,4.1172,4.1172,4.0884,4.0223,3.9753,3.9208,3.8596,3.8596,3.8596,3.8596,3.9078,3.9108,3.8812,3.8812,3.8633,3.844,3.8693,3.9762,4.1405,4.2427,4.3012,4.3326,4.3326,4.349,4.3802,0.0,0.0,0.0,0.0,0.0,0.0,0.0,0.0,0.0,0.0,0.0,0.0,0.0,0.0,0.0,0.0,0.0,0.0,2.9143,2.8226,2.757,2.7258,2.7304,2.7961,2.931,3.0671,3.2563,3.507,3.5056,3.499,3.4911,3.403,3.3601,3.3589,3.3077,3.261,3.2288,3.2347,3.1605,3.0337,2.9871,2.8944,2.7798,0.0,0.0,0.0,0.0,0.0,0.0,0.0,0.0,0.0,3.1,3.2208,3.3164,3.2516,3.3728,3.4769,3.2304,3.244,3.3435,3.3895,3.4431,3.533,3.7095,3.6694,3.6142,3.6836,3.6978,3.7089,3.7419,3.7761,3.8093,3.8268,3.8743,3.932,4.0066,4.0282,4.0595,4.1124,4.1115,4.1225,4.1701,4.1835,4.2075,4.2554,4.2182,4.1966,4.1966,4.1287,4.0966,4.1196,4.0942,4.0653,4.0223,4.0082,3.9663,3.9078,3.9078,3.8918,3.8596,3.9078,3.9108,3.8812,3.9049,3.8716,3.8081,3.8716,3.9658,4.0685,4.1598,4.2206,4.2656,4.2886,4.3137,4.3451,0.0,0.0,0.0,0.0,0.0,0.0,0.0,0.0,0.0,0.0,0.0,0.0,0.0,0.0,0.0,0.0,0.0,0.0,0.0,2.8226,2.7484,2.6329,2.6819,2.7766,2.9251,3.0327,3.1706,3.3493,3.3488,3.3499,3.3665,3.3156,3.3036,3.3244,3.3117,3.3245,3.348,3.3577,3.2946,3.1858,3.1159,3.0045,2.8736,0.0,0.0,0.0,0.0,0.0,0.0,0.0,0.0,0.0,3.0712,3.1778,3.2758,3.242,3.3567,3.4485,3.2343,3.2667,3.3778,3.4199,3.5299,3.6604,3.8024,3.7684,3.7248,3.7686,3.7839,3.8016,3.8536,3.8625,3.8806,3.9393,3.9461,3.9713,4.0451,4.0628,4.0836,4.1148,4.1172,4.1389,4.1976,4.2217,4.2482,4.2795,4.2412,4.2064,4.199,4.1195,4.0792,4.1,4.0792,4.0503,4.0071,4.0013,3.9779,3.9308,3.9308,3.9147,3.8872,3.917,3.9072,3.8656,3.8574,3.8298,3.7983,3.8653,3.9437,4.0327,4.1119,4.1765,4.2229,4.2627,4.3012,4.3326,0.0,0.0,0.0,0.0,0.0,0.0,0.0,0.0,0.0,0.0,3.3391,0.0,0.0,0.0,0.0,0.0,0.0,0.0,0.0,2.8197,2.7286,2.5578,2.6303,2.7686,2.9657,2.9979,3.0627,3.1592,3.1811,3.1856,3.1831,3.2205,3.2564,3.2935,3.3154,3.4001,3.5158,3.4208,3.3849,3.3755,3.2108,3.0863,2.9903,2.8767,0.0,0.0,0.0,0.0,0.0,0.0,0.0,0.0,2.9585,3.0559,3.1411,3.1019,3.2272,3.3423,3.164,3.2435,3.3904,3.4402,3.6243,3.8103,3.8938,3.9025,3.886,3.8768,3.8843,3.9094,3.9519,3.9625,3.9795,4.0439,4.0456,4.0515,4.0821,4.1031,4.1172,4.1172,4.1172,4.1413,4.2049,4.2506,4.2795,4.2891,4.2496,4.2174,4.199,4.1195,4.0735,4.0735,4.0677,4.0386,3.9861,3.9802,3.9626,3.9308,3.9308,3.9308,3.9308,3.9249,3.8953,3.838,3.7698,3.7577,3.7923,3.8409,3.9158,4.0097,4.0773,4.1473,4.2125,4.2527,4.2965,4.3326,0.0,0.0,0.0,0.0,0.0,0.0,0.0,0.0,0.0,0.0,0.0,0.0,0.0,0.0,0.0,0.0,0.0,0.0,0.0,2.8254,2.7428,2.5578,2.6188,2.7282,2.8801,2.8763,2.9149,2.9983,3.0643,3.1272,3.1782,3.1476,3.1662,3.2316,3.3216,3.3754,3.4009,3.4453,3.4335,3.3809,3.2945,3.2162,3.145,3.006,2.9525,0.0,0.0,0.0,0.0,0.0,0.0,0.0,2.8272,2.9464,3.0769,3.0159,3.182,3.3598,3.2176,3.3127,3.4774,3.595,3.7971,3.9514,3.931,3.9522,3.95,3.8341,3.8843,3.9594,3.9671,3.9632,3.9864,4.0599,4.0531,4.0604,4.107,4.1157,4.1172,4.1172,4.1172,4.1557,4.2554,4.2386,4.2471,4.3289,4.2532,4.2027,4.1966,4.1195,4.085,4.1057,4.0595,4.0223,4.013,3.9919,3.9626,3.9308,3.9308,3.9308,3.9308,3.9049,3.8716,3.838,3.7698,3.7577,3.7923,3.8387,3.8892,3.9386,4.0179,4.0966,4.1706,4.1821,4.2474,4.3326,0.0,0.0,0.0,0.0,0.0,0.0,0.0,0.0,0.0,0.0,0.0,0.0,0.0,0.0,0.0,0.0,0.0,0.0,0.0,0.0,2.8166,2.685,2.7042,2.7655,2.867,2.8877,2.9143,2.9502,3.0372,3.0872,3.1035,3.0729,3.1009,3.1836,3.2826,3.3484,3.39,3.4705,3.4696,3.405,3.3561,3.28,3.1809,3.0859,3.0368,2.997,2.846,0.0,0.0,0.0,0.0,0.0,0.0,0.0,2.9565,2.9261,3.061,3.2125,3.1897,3.2935,3.4578,3.6647,3.8101,3.9164,3.942,3.9702,3.9675,3.8944,3.9496,4.0145,4.0454,4.0537,4.0849,4.1496,4.1249,4.1087,4.1353,4.1287,4.1172,4.1172,4.1172,4.1605,4.2723,4.2338,4.2303,4.3096,4.2304,4.1753,4.1605,4.1051,4.0711,4.0711,4.0397,4.0048,3.9755,3.9603,3.9485,3.9308,3.9308,3.9249,3.9049,3.8871,3.8633,3.838,3.7878,3.7637,3.7698,3.794,3.8232,3.8602,3.9399,4.0127,4.0731,4.1335,4.2179,4.2997,0.0,0.0,0.0,0.0,0.0,0.0,0.0,0.0,0.0,0.0,0.0,0.0,0.0,0.0,0.0,0.0,0.0,0.0,0.0,0.0,0.0,2.8263,2.8051,2.8287,2.8995,2.9455,2.9777,2.9935,3.0648,3.091,3.0802,3.052,3.0838,3.1637,3.2644,3.3332,3.3851,3.4691,3.4735,3.4176,3.3878,3.3061,3.2021,3.1521,3.1108,3.0625,2.9209,2.9116,2.949,2.8212,0.0,0.0,0.0,0.0,2.8394,2.8494,2.9356,3.0483,3.1291,3.2688,3.4408,3.6741,3.7734,3.8362,3.9089,3.9424,3.9546,3.9546,4.0074,4.0676,4.1175,4.1509,4.1892,4.2326,4.1948,4.1606,4.1549,4.1344,4.1172,4.1172,4.1172,4.1557,4.2602,4.2217,4.2062,4.2651,4.1899,4.1362,4.1196,4.0966,4.0653,4.0397,4.0281,3.9931,3.9485,3.9367,3.9308,3.9308,3.9308,3.9167,3.8871,3.8871,3.8716,3.838,3.7998,3.7698,3.7495,3.7435,3.7616,3.7983,3.8685,3.9212,3.9757,4.0975,4.1947,4.2582,0.0,0.0,0.0,0.0,0.0,0.0,0.0,0.0,0.0,0.0,0.0,0.0,0.0,0.0,0.0,0.0,0.0,0.0,0.0,0.0,0.0,2.836,2.8235,2.8695,2.9826,2.9772,3.0388,3.1777,3.1467,3.2016,3.3289,3.2122,3.1703,3.2008,3.3561,3.3598,3.2526,3.3926,3.423,3.3725,3.3239,3.3256,3.3501,3.2571,3.1992,3.1476,3.023,2.9535,2.9078,2.8355,2.7857,0.0,0.0,0.0,2.835,2.8213,2.9187,3.038,3.0745,3.3264,3.5921,3.6276,3.7548,3.8477,3.7682,3.8315,3.902,3.902,3.9798,4.0676,4.1175,4.1509,4.1781,4.2125,4.1859,4.1492,4.1287,4.123,4.1172,4.1172,4.1172,4.1413,4.2073,4.1605,4.1509,4.2097,4.1581,4.1268,4.1196,4.1172,4.1115,4.1057,4.0513,4.0165,4.0106,3.9544,3.9308,3.9308,3.9308,3.9308,3.9249,3.9249,3.8953,3.838,3.7758,3.7637,3.7818,3.7495,3.7616,3.7938,3.8328,3.898,3.9712,4.0586,4.1438,4.225,0.0,0.0,0.0,0.0,0.0,0.0,0.0,0.0,0.0,0.0,0.0,0.0,0.0,0.0,0.0,0.0,0.0,0.0,0.0,0.0,0.0,2.9075,2.901,2.9303,2.9997,3.0356,3.0804,3.1431,3.2252,3.3038,3.3888,3.4169,3.4327,3.4313,3.5267,3.5274,3.4545,3.4564,3.4133,3.3412,3.3132,3.2818,3.2589,3.2773,3.2514,3.1926,3.0962,3.0335,2.9865,2.8997,2.8352,2.7911,2.8066,0.0,0.0,0.0,2.8656,2.92,3.0453,3.2607,3.4656,3.5417,3.6527,3.74,3.7258,3.8065,3.8919,3.8919,3.9747,4.0676,4.1175,4.1758,4.2128,4.2118,4.1802,4.1492,4.123,4.1172,4.1172,4.1172,4.1172,4.1389,4.1976,4.1485,4.1413,4.1942,4.1485,4.1172,4.1172,4.1172,4.1115,4.0966,4.0455,4.0106,3.9954,3.9544,3.9308,3.9308,3.9308,3.9308,3.9308,3.8953,3.8679,3.838,3.8058,3.7818,3.7637,3.7698,3.7637,3.7698,3.8358,3.8732,3.9062,4.0022,4.0953,4.1707,0.0,0.0,0.0,0.0,0.0,0.0,0.0,0.0,0.0,0.0,0.0,0.0,0.0,0.0,0.0,0.0,0.0,0.0,0.0,0.0,0.0,2.9967,2.9766,2.9922,3.0513,3.0954,3.1288,3.1467,3.293,3.3801,3.4318,3.5861,3.6885,3.7429,3.7416,3.7101,3.6559,3.5949,3.4988,3.3848,3.3662,3.3071,3.2438,3.317,3.3179,3.2672,3.2055,3.1559,3.1009,3.0311,2.9536,2.8909,2.8904,2.8562,0.0,0.0,0.0,2.8257,3.0305,3.163,3.2827,3.435,3.5355,3.6081,3.6634,3.7638,3.8542,3.8617,3.9546,4.0475,4.0974,4.1688,4.2059,4.1749,4.1499,4.1314,4.132,4.1369,4.1441,4.1765,4.1692,4.1765,4.2176,4.1716,4.1571,4.1982,4.1644,4.1474,4.1619,4.1417,4.1244,4.1157,4.0526,4.013,3.9919,3.9485,3.9308,3.9308,3.9226,3.919,3.919,3.8679,3.838,3.8261,3.8261,3.7998,3.7555,3.7818,3.7698,3.7495,3.8335,3.8596,3.8545,3.9702,4.0477,4.1051,0.0,0.0,0.0,0.0,0.0,0.0,0.0,0.0,0.0,0.0,0.0,0.0,3.3938,3.3025,3.2359,3.2108,0.0,0.0,0.0,0.0,0.0,3.1028,3.0242,0.0,3.1878,3.1443,3.1819,3.3082,3.3403,3.4168,3.5328,3.6635,3.8635,4.1086,4.0085,3.8707,3.7228,3.7968,3.7322,3.5701,3.5115,3.485,3.4695,3.4268,3.4222,3.4258,3.4038,3.3214,3.2359,3.261,3.1741,3.0473,2.9904,2.9475,2.8966,0.0,0.0,0.0,3.0169,3.0726,3.1216,3.3266,3.428,3.4951,3.5458,3.6483,3.7412,3.7939,3.8944,3.9898,4.045,4.0974,4.1214,4.0695,4.0586,4.082,4.1542,4.1688,4.2135,4.3404,4.3109,4.2815,4.2839,4.2373,4.2054,4.2078,4.2078,4.2274,4.279,4.2013,4.1849,4.2384,4.0949,4.0165,4.0165,3.9579,3.9308,3.9308,3.899,3.8812,3.8812,3.8537,3.8261,3.7938,3.7938,3.7878,3.7878,3.7878,3.7698,3.7435,3.8118,3.844,3.8545,3.9702,4.0126,4.0218,0.0,0.0,0.0,0.0,0.0,0.0,0.0,0.0,0.0,0.0,0.0,0.0,0.0,3.4076,3.3193,3.2691,3.15,0.0,0.0,0.0,0.0,3.1657,3.1088,3.1282,3.2373,3.1834,3.2348,3.4035,3.3864,3.4625,3.6244,3.699,3.8472,4.0625,4.0586,4.0545,4.0405,3.9685,3.8617,3.7367,3.6985,3.641,3.5789,3.6364,3.6187,3.5696,3.5633,3.486,3.378,3.3306,3.235,3.1254,3.0832,3.0376,2.9726,2.8535,2.8456,2.8922,2.9548,2.9948,3.073,3.2819,3.35,3.3997,3.5207,3.6132,3.6958,3.7814,3.8617,3.932,3.9898,4.0567,4.0952,4.0789,4.0409,4.0514,4.1303,4.1289,4.1501,4.2577,4.2504,4.2405,4.2405,4.2209,4.211,4.211,4.211,4.2217,4.2559,4.2272,4.2302,4.2684,4.1923,4.1069,4.0148,3.973,3.9212,3.8738,3.8596,3.8537,3.8537,3.8238,3.7998,3.7878,3.7878,3.7758,3.7616,3.7818,3.7698,3.7495,3.8335,3.8537,3.8522,3.9277,3.9997,4.0571,0.0,0.0,0.0,0.0,0.0,0.0,0.0,0.0,0.0,3.765,0.0,0.0,0.0,0.0,3.422,3.3813,3.2106,3.1243,3.1762,3.1405,3.1552,3.2468,3.2127,3.2245,3.2882,3.2378,3.2857,3.4341,3.3978,3.459,3.6192,3.6576,3.7887,3.9867,4.0538,4.1477,4.2464,4.1378,4.0297,3.9313,3.8903,3.8172,3.743,3.8121,3.7846,3.7075,3.7139,3.6454,3.5461,3.4815,3.3864,3.2825,3.2258,3.1348,3.0297,0.0,0.0,0.0,2.9102,2.9237,2.9859,3.1593,3.224,3.2893,3.4374,3.5429,3.6358,3.7262,3.8065,3.8743,3.932,4.0017,4.0458,4.0404,3.9922,4.0025,4.1176,4.1107,4.1426,4.2643,4.2708,4.2641,4.2641,4.2492,4.2369,4.2369,4.2369,4.2502,4.2732,4.2641,4.2618,4.2616,4.228,4.1563,4.0246,3.9945,3.9333,3.8537,3.844,3.832,3.8201,3.7878,3.7758,3.7758,3.7758,3.7637,3.7435,3.7758,3.7698,3.7495,3.8335,3.8537,3.85,3.9072,3.9721,4.0341,0.0,0.0,0.0,0.0,0.0,0.0,0.0,0.0,3.8482,3.8482,0.0,0.0,0.0,0.0,0.0,3.537,3.3944,3.3497,3.4585,3.3276,3.2754,3.3422,0.0,0.0,3.3532,3.3111,3.3293,3.4151,3.3779,3.412,3.5158,3.559,3.7028,3.9189,4.012,4.1401,4.2981,4.3,4.2524,4.1603,4.0823,4.0231,3.9775,3.9565,3.9044,3.8482,3.8476,3.7953,3.7253,3.7159,3.6404,3.5247,3.4238,3.2461,0.0,0.0,0.0,0.0,0.0,0.0,0.0,2.958,3.0583,3.1662,3.286,3.4324,3.5583,3.6279,3.7211,3.814,3.8793,3.9295,3.962,3.9337,3.905,3.9406,4.1029,4.1281,4.1984,4.3904,4.3919,4.3765,4.374,4.3288,4.2986,4.2986,4.2986,4.3125,4.3333,4.3119,4.2749,4.2388,4.2026,4.1429,4.0652,4.0269,3.9694,3.8812,3.8477,3.8201,3.7878,3.7555,3.7374,3.7374,3.7374,3.7374,3.7435,3.7758,3.7698,3.7435,3.8118,3.838,3.85,3.9072,3.9331,3.9423,0.0,0.0,0.0,0.0,0.0,0.0,4.0456,4.0254,4.006,0.0,0.0,0.0,3.7759,3.5739,3.3808,3.2371,3.1837,3.1556,3.1384,3.2199,3.2765,3.2897,3.3657,3.4071,3.4138,3.3307,3.3682,3.5261,3.4136,3.4441,3.6057,3.5963,3.6769,3.8323,3.9458,4.0924,4.2625,4.3219,4.3608,4.376,4.353,4.279,4.1853,4.1814,4.1181,4.0256,4.0285,3.9689,3.8912,3.8633,3.7456,3.5862,3.4306,0.0,0.0,0.0,0.0,0.0,2.9343,0.0,0.0,0.0,0.0,0.0,3.2742,3.342,3.4248,3.6053,3.6656,3.7111,3.8065,3.8718,3.9094,3.9044,3.9113,3.9504,4.0586,4.0873,4.1295,4.2043,4.2755,4.3062,4.2715,4.2891,4.2986,4.2986,4.2986,4.2987,4.3045,4.3222,4.3458,4.3767,4.3213,4.2295,4.1103,4.0533,3.9674,3.8477,3.8178,3.7998,3.7878,3.7555,3.7374,3.7374,3.7374,3.7374,3.7374,3.7495,3.7495,3.7435,3.7878,3.8201,3.844,3.8834,3.9588,4.0433,0.0,0.0,0.0,0.0,0.0,3.9517,4.0194,3.9933,3.968,0.0,0.0,0.0,3.7014,3.6465,3.5226,3.2809,3.2636,3.2363,3.1613,3.2025,3.2506,3.2926,3.4088,3.4587,3.4264,3.4075,3.4507,3.5731,3.4782,3.5155,3.6598,3.657,3.6985,3.7806,3.9005,4.0572,4.2327,4.294,4.3708,4.4435,4.4464,4.3994,4.3348,4.3431,4.2758,4.1725,4.1696,4.1097,4.0231,3.9815,3.8381,3.6522,3.497,3.4138,0.0,0.0,0.0,0.0,0.0,0.0,0.0,0.0,0.0,0.0,3.1712,3.2591,3.3539,3.5072,3.5927,3.6606,3.7211,3.7965,3.8517,3.8517,3.8667,3.9141,4.0165,4.0458,4.0703,4.1089,4.1798,4.2258,4.2213,4.2489,4.2791,4.2961,4.2986,4.3056,4.3217,4.3552,4.3892,4.4261,4.3639,4.2802,4.1883,4.0977,3.9984,3.8912,3.8447,3.8238,3.8118,3.7758,3.7616,3.7616,3.7435,3.7374,3.7374,3.7374,3.7374,3.7435,3.7758,3.8118,3.844,3.8693,3.9354,4.0249,0.0,0.0,0.0,3.9504,3.8906,3.8551,3.9228,3.8764,3.833,0.0,3.7497,3.6539,3.5563,3.73,3.7529,3.5069,3.4855,3.4501,3.3657,3.2764,3.2596,3.3413,3.4718,3.5049,3.4324,3.5079,3.5581,3.5817,3.5605,3.6015,3.694,3.7211,3.7404,3.7558,3.8688,4.0271,4.2038,4.2408,4.3185,4.4211,4.4326,4.4268,4.418,4.451,4.3818,4.279,4.2842,4.2268,4.1338,4.0613,3.9146,3.734,3.5935,3.4831,3.3871,3.2388,3.2014,0.0,0.0,0.0,0.0,0.0,2.8734,0.0,3.0306,3.1754,3.3036,3.3671,3.5022,3.6078,3.6204,3.7084,3.7788,3.7739,3.7789,3.8291,3.9686,3.9907,4.0106,4.0529,4.0968,4.143,4.1986,4.2137,4.2439,4.2936,4.3037,4.328,4.3816,4.3926,4.4135,4.4323,4.3701,4.3091,4.2597,4.1445,4.0449,3.9643,3.9061,3.8656,3.838,3.7998,3.7818,3.7818,3.7555,3.7435,3.7435,3.7435,3.7435,3.7435,3.7758,3.8058,3.844,3.8633,3.9035,3.9455,0.0,0.0,3.9254,4.009,3.9547,3.9286,4.0043,3.951,3.907,3.9229,3.776,3.6521,3.6006,3.4947,3.4313,3.4413,3.3973,3.3698,3.367,3.5283,3.5704,3.4397,3.629,3.6798,3.5654,3.5662,3.5926,3.651,3.6296,3.6542,3.7134,3.7433,3.7519,3.7548,3.8609,3.9971,4.1466,4.2028,4.3065,4.4401,4.4812,4.4543,4.3951,4.4396,4.3979,4.3171,4.3602,4.3165,4.2209,4.0558,3.9535,3.8555,3.6471,3.5234,3.4285,3.2747,3.2119,0.0,0.0,0.0,0.0,2.8715,2.9286,0.0,2.9982,3.0651,3.1691,3.2986,3.3669,3.4193,3.4921,3.5718,3.6218,3.6031,3.6383,3.7111,3.8266,3.8843,3.8993,3.8592,3.9796,4.0727,4.0827,4.163,4.2439,4.2936,4.3187,4.3738,4.468,4.4241,4.4196,4.4693,4.4075,4.3316,4.2597,4.169,4.0791,3.9983,3.8964,3.844,3.838,3.7758,3.7495,3.7495,3.7698,3.7818,3.7818,3.7818,3.7616,3.7374,3.7435,3.7878,3.844,3.844,3.8927,3.959,0.0,0.0,3.9921,4.0479,4.0157,3.9923,4.038,3.9798,3.9352,3.9435,3.8293,3.711,3.6239,3.5794,3.5217,3.4382,3.4792,3.4972,3.4667,3.5601,3.6062,3.5863,3.7044,3.75,3.7016,3.708,3.7177,3.7318,3.7613,3.7833,3.8025,3.8604,3.8875,3.8915,3.9348,4.0491,4.2036,4.2111,4.309,4.4612,4.4862,4.4617,4.415,4.4544,4.4281,4.3783,4.4108,4.3598,4.2621,4.1956,4.0641,3.9032,3.741,3.6032,3.4632,3.2905,3.2155,3.17,3.0792,3.0407,3.0091,2.9277,2.9523,0.0,0.0,3.0441,3.1149,3.2055,3.2525,3.3021,3.379,3.4438,3.4962,3.5102,3.5353,3.573,3.6282,3.7337,3.8015,3.8015,3.8743,3.9496,4.0049,4.0601,4.1505,4.2886,4.3651,4.4303,4.4948,4.4765,4.4671,4.484,4.4137,4.3621,4.3198,4.2186,4.1344,4.0676,3.9688,3.9024,3.8596,3.8118,3.7818,3.7698,3.7818,3.7818,3.7698,3.7818,3.7698,3.7374,3.7374,3.7698,3.8141,3.8141,3.8537,3.9108,0.0,0.0,0.0,4.0792,4.0607,4.0424,4.0412,3.9872,3.9326,3.9075,3.8505,3.7702,3.6562,3.7302,3.7107,3.5267,3.6142,3.6671,3.6303,3.5843,3.6089,3.7222,3.7634,3.7863,3.7996,3.8341,3.8484,3.8265,3.8991,3.9247,3.9071,3.9884,4.0323,4.0386,4.0449,4.141,4.2918,4.2691,4.3482,4.4856,4.4922,4.4753,4.4424,4.4593,4.4542,4.4328,4.4477,4.3921,4.3137,4.3329,4.1688,3.9372,3.8112,3.6574,3.4867,3.2897,3.2119,3.178,3.1198,3.0559,2.9984,2.9844,2.9785,2.9816,0.0,0.0,0.0,3.1312,3.1751,3.2189,3.2769,3.3323,3.3827,3.4067,3.4218,3.4293,3.4248,3.5479,3.6634,3.7287,3.7563,3.809,3.912,3.9597,4.0727,4.2811,4.389,4.4653,4.5092,4.5278,4.527,4.4902,4.4323,4.3927,4.3802,4.2747,4.1862,4.1289,4.0416,3.9551,3.8693,3.8418,3.8118,3.7818,3.7878,3.7758,3.7495,3.7818,3.7802,3.7687,3.7478,3.7616,3.7878,3.7878,3.8118,3.8575,4.0904,4.1121,0.0,0.0,4.0816,4.0342,4.0177,3.976,3.9075,3.7947,3.7827,3.7675,3.7222,3.7302,3.7562,3.8005,3.7394,3.7479,3.8642,3.8371,3.8092,3.7844,3.8409,3.8505,3.792,3.8524,3.9071,3.956,4.0048,4.0146,3.9996,4.0618,4.0802,4.0701,4.1755,4.2626,4.3367,4.4065,4.4573,4.5009,4.5323,4.5065,4.4436,4.4196,4.4375,4.4769,4.4595,4.4571,4.4443,4.3154,4.1778,4.0231,3.782,3.6094,3.4594,3.2764,3.2073,3.1817,3.1384,3.1071,3.069,2.9984,3.0318,3.0652,2.9962,0.0,3.088,3.1358,0.0,3.1493,3.2015,0.0,0.0,3.2152,3.2482,3.2769,3.2491,3.3093,3.3922,3.4977,3.5956,3.6832,3.7412,3.927,4.1128,4.2861,4.3539,4.4367,4.5363,4.564,4.5574,4.527,4.4902,4.4385,4.3802,4.2956,4.2131,4.1289,4.0197,3.9213,3.844,3.8118,3.7758,3.7435,3.7758,3.7878,3.7878,3.7878,3.8303,3.8841,3.7791,3.7616,3.7878,3.7878,3.8118,3.8447,4.1376,4.1722,0.0,0.0,4.2017,4.1923,4.1165,4.0731,4.0229,3.94,3.9149,3.9063,3.8999,3.8583,3.8755,3.9746,3.9114,3.9191,4.051,4.0279,0.0,4.0307,4.0579,4.0567,4.0347,4.0175,4.022,4.0377,4.0516,4.042,4.0109,4.0943,4.1418,4.1591,4.2276,4.3269,4.4311,4.4332,4.492,4.5748,4.5579,4.5619,4.5746,4.494,4.4761,4.4905,4.5081,4.4841,4.4381,4.3629,4.2428,4.0884,3.8765,3.694,3.5218,3.3367,3.2316,3.1669,3.1384,3.136,3.1301,3.0652,3.0976,3.1263,3.0502,3.0592,3.0901,3.1021,0.0,0.0,0.0,0.0,0.0,0.0,3.2077,3.2275,3.2357,3.2609,3.3122,3.4123,3.4926,3.5755,3.6681,3.8442,4.0124,4.1455,4.2359,4.3463,4.492,4.5226,4.5314,4.5331,4.4963,4.4594,4.4075,4.3364,4.2535,4.1593,4.0716,3.9606,3.838,3.8261,3.7878,3.7435,3.7758,3.7912,3.8055,3.8238,3.8525,3.8883,3.8437,3.8236,3.8277,3.7989,3.8176,3.8669,4.2329,0.0,0.0,0.0,4.3086,4.3373,4.2654,4.2119,4.1658,4.1529,4.1285,4.1074,4.1083,4.0836,4.082,4.1265,4.0971,4.11,4.1952,4.1596,4.1529,4.2063,4.1889,4.1802,4.1831,4.1318,4.105,4.1151,4.1128,4.0972,4.0703,4.169,4.2284,4.2579,4.3083,4.4073,4.5344,4.5044,4.5573,4.6511,4.6206,4.6439,4.6823,4.5939,4.5354,4.5094,4.5501,4.511,4.4322,4.4101,4.2997,4.1425,3.9413,3.7664,3.5941,3.4053,3.282,3.215,3.2049,3.214,3.216,3.1815,3.1844,3.177,3.1301,3.1104,3.0999,3.0962,3.0849,0.0,0.0,0.0,0.0,0.0,0.0,3.1866,3.1838,3.1975,3.2474,3.3564,3.4148,3.4926,3.6031,3.7436,3.8642,3.9747,4.1003,4.2434,4.4091,4.4611,4.5037,4.5306,4.5086,4.4717,4.4285,4.3639,4.2879,4.1986,4.1176,4.0068,3.8761,3.8515,3.8147,3.7753,3.7896,3.8033,3.824,3.8517,3.8847,3.9138,3.8881,3.8894,3.8962,3.8454,3.8559,3.9098,4.4107,4.3908,0.0,4.3567,4.3741,4.4094,4.4624,4.3652,4.3174,4.404,4.3946,4.3657,4.3325,4.41,4.4054,4.2671,4.2931,4.3079,4.2874,4.2166,4.1881,4.2075,4.1453,4.1134,4.1134,4.1134,4.1384,4.2063,4.2166,4.2238,4.2238,4.3076,4.3441,4.3526,4.4403,4.5344,4.6307,4.66,4.6901,4.7185,4.7521,4.7517,4.7256,4.6901,4.619,4.5514,4.5733,4.5414,4.4821,4.4415,4.336,4.1781,3.9369,3.7813,3.6483,3.4473,3.3765,3.3661,3.3777,3.3611,3.3378,3.3545,3.2874,3.2246,3.241,3.1695,3.1112,3.1485,3.1261,3.1075,3.1261,0.0,0.0,0.0,0.0,0.0,0.0,3.062,3.1504,3.296,3.3596,3.4349,3.5408,3.6107,3.6958,3.8015,3.9622,4.1279,4.2936,4.4066,4.4793,4.5306,4.527,4.4963,4.4285,4.3639,4.3067,4.255,4.1361,4.0432,3.9747,3.8806,3.8446,3.8525,3.8218,3.828,3.8591,3.8744,3.9289,3.9939,3.9138,3.9311,3.998,3.9534,3.9543,3.9819,0.0,0.0,0.0,4.3661,4.377,4.4167,4.4921,4.4858,4.4719,4.4874,4.5533,4.5924,4.5849,4.6698,4.7042,4.6471,4.5947,4.5354,4.4705,4.3919,4.3419,4.3337,4.313,4.3096,4.3202,4.3076,4.3121,4.3354,4.3214,4.3113,4.2967,4.3482,4.3607,4.3526,4.4059,4.4912,4.5986,4.5962,4.6567,4.7572,4.7847,4.7931,4.7801,4.7476,4.6979,4.6351,4.6223,4.6033,4.5713,4.5164,4.4265,4.3129,4.1502,3.9956,3.8452,3.6782,3.5872,3.5346,3.4982,3.5009,3.5061,3.4701,3.4259,3.382,3.3503,3.2539,3.1815,3.208,3.175,3.1447,3.1669,0.0,0.0,0.0,0.0,0.0,0.0,3.1117,3.1417,3.193,3.2639,3.3321,3.3872,3.4615,3.559,3.6835,3.8115,3.9597,4.1254,4.2862,4.3896,4.4249,4.4719,4.4779,4.4285,4.3888,4.3254,4.2574,4.1955,4.1122,4.0101,3.9785,3.9617,3.9427,3.9365,3.9419,3.9604,3.9633,3.9858,4.0211,4.0164,4.0314,4.0445,3.9626,3.96,4.0145,4.2067,4.2626,4.3232,4.3316,4.4095,4.4985,4.5838,4.6287,4.6749,4.734,4.7975,4.8448,4.8759,4.9349,4.9582,4.9098,4.8475,4.7821,4.714,4.6466,4.6082,4.5968,4.5144,4.4874,4.5226,4.4336,4.4017,4.4251,4.411,4.3964,4.3728,4.3998,4.3991,4.3724,4.4252,4.5011,4.5838,4.5962,4.6699,4.788,4.8032,4.8134,4.8083,4.8154,4.7722,4.7091,4.6911,4.6651,4.6314,4.5944,4.5191,4.4172,4.2962,4.1625,4.025,3.8717,3.7838,3.7304,3.701,3.6911,3.6795,3.656,3.5907,3.5178,3.4592,3.3595,3.2657,3.2376,3.208,3.1819,3.1539,0.0,0.0,0.0,0.0,0.0,0.0,3.0978,3.0809,3.0809,3.1664,3.2329,3.2614,3.3446,3.442,3.5612,3.6937,3.8442,4.0149,4.1604,4.274,4.3389,4.3804,4.3905,4.3794,4.3463,4.3023,4.2574,4.1868,4.1307,4.0808,4.0286,4.014,4.0315,4.0168,4.0285,4.0472,4.0523,4.0576,4.0669,4.0906,4.0971,4.0904,4.0259,4.0237,4.0634,4.4444,4.3783,4.3023,4.2897,4.4719,4.6432,4.7213,4.7934,4.9116,5.1179,5.1154,5.1208,5.1862,5.2043,5.1648,5.0447,5.0522,5.0437,5.0024,4.9598,4.9434,4.9597,4.7399,4.6453,4.7108,4.501,4.4234,4.4853,4.4967,4.4878,4.4582,4.4715,0.0,0.0,4.4982,4.5585,4.5922,4.661,4.7312,4.8083,4.8083,4.8134,4.8139,4.8757,4.8462,4.7754,4.7754,4.7239,4.6537,4.6762,4.6067,4.4941,4.3712,4.2783,4.1835,4.0312,3.9704,3.9499,3.971,3.9142,3.8689,3.9094,3.7848,3.6288,3.5831,3.482,3.3661,3.2486,3.2402,3.2117,3.0983,3.1432,0.0,0.0,0.0,0.0,0.0,0.0,2.9804,2.9829,3.0733,3.148,3.1846,3.2614,3.3433,3.4309,3.6088,3.7814,3.9496,4.0386,4.1428,4.2774,4.2583,4.2583,4.2819,4.246,4.2421,4.2527,4.1154,4.0992,4.1824,4.0393,4.0257,4.1125,4.0788,4.0851,4.1171,4.1242,4.1315,4.1315,4.1315,4.1315,4.1315,4.1315,4.1315,4.138,4.3432,4.369,4.4174,4.5058,4.6239,4.7012,4.6771,4.8949,5.0611,5.0495,5.1974,5.2931,5.2658,5.3267,5.3326,5.236,5.226,5.1929,5.1189,5.0246,4.9791,4.988,4.8648,4.8057,4.8402,4.7882,4.7422,4.7081,4.6963,4.6519,4.5739,0.0,0.0,0.0,4.5116,4.5365,4.557,4.6243,4.6901,4.7545,4.7931,4.8134,4.8139,4.8757,4.8845,4.8654,4.8654,4.849,4.8243,4.7694,4.6855,4.5972,4.5453,4.4715,4.3742,4.2453,4.2025,4.1788,4.0985,4.0723,4.075,4.0858,3.9731,3.8602,3.864,3.6822,3.5065,3.4633,3.4007,3.3211,3.2171,3.2252,3.2283,0.0,0.0,0.0,0.0,0.0,2.9955,3.0357,3.0658,3.0994,3.148,3.2279,3.3127,3.3984,3.5207,3.6413,3.7493,3.905,4.036,4.1306,4.1847,4.2348,4.2819,4.27,4.2723,4.2834,4.1915,4.183,4.2483,4.1535,4.141,4.2028,4.1879,4.1752,4.1625,4.1697,4.1486,4.1315,4.155,4.1678,4.1614,4.138,4.1421,4.1678,4.4834,4.5325,4.5884,4.6695,4.773,4.8288,4.7941,5.0174,5.1807,5.1571,5.2762,5.363,5.3722,5.4178,5.434,5.4014,5.3614,5.3275,5.2911,5.2027,5.147,5.1334,5.0139,4.9509,4.9673,4.8879,4.8268,4.7882,4.7552,4.6958,4.6046,0.0,0.0,0.0,0.0,4.5323,4.552,4.6505,4.7304,4.791,4.8322,4.8696,0.0,4.9595,4.9848,4.9848,4.9848,4.9483,4.8925,4.8434,4.7596,4.6735,4.6436,4.5751,4.4908,4.4107,4.3786,4.347,4.2548,4.2181,4.2051,4.1871,4.1014,4.0033,3.9605,3.833,3.6936,3.588,3.5383,3.4674,3.3087,3.2974,3.2858,0.0,0.0,0.0,0.0,3.0241,3.0097,3.0557,3.0809,3.116,3.1712,3.2189,3.276,3.3538,3.4565,3.5594,3.6553,3.7859,3.9026,4.0074,4.0668,4.1196,4.1725,4.1966,4.2149,4.2352,4.1494,4.1593,4.2411,4.1591,4.165,4.2275,4.2275,4.2212,4.1998,4.1998,4.1998,4.1998,4.2189,4.2252,4.2189,4.1893,4.1678,4.155,4.7496,4.77,4.7717,4.8126,4.9193,5.0038,5.0213,5.1551,5.2732,5.3095,5.336,5.3875,5.4708,5.473,5.4832,5.5096,5.463,5.4391,5.4688,5.4055,5.3567,5.323,5.1711,5.0849,5.0803,4.9194,4.8253,4.8075,4.7743,4.7044,4.603,4.5859,0.0,0.0,0.0,0.0,4.5846,4.7101,4.8009,4.8618,4.8878,4.9398,5.0069,5.0688,5.0859,5.0888,5.0972,5.0269,4.9206,4.9122,4.8339,4.7367,4.7045,4.6366,4.5638,4.5243,4.5029,4.4691,4.4067,4.3525,4.303,4.2644,4.1902,4.1055,4.0006,3.9635,3.8959,3.6887,3.6776,3.6319,3.4086,3.3695,3.3261,0.0,0.0,3.044,3.0554,3.0343,3.0252,3.0597,3.1175,0.0,3.2307,3.2315,3.2571,3.3148,3.415,3.5148,3.6137,3.68,3.7778,3.8999,3.9334,3.9801,4.0379,4.086,4.1273,4.1555,4.0657,4.0927,4.2118,4.1299,4.1499,4.2402,4.2402,4.2402,4.2339,4.2339,4.2529,4.2822,4.2759,4.2759,4.2759,4.2402,4.1956,4.1508,4.9012,4.8879,4.8929,5.0147,5.0947,5.1835,5.2902,5.3337,5.3109,5.1965,5.3154,5.434,5.4838,5.4397,5.4309,5.4919,5.4775,5.4827,5.508,5.4699,5.4375,5.4303,5.2989,5.2171,5.1905,5.1063,5.0136,4.903,4.9278,4.8518,4.6741,4.717,0.0,0.0,0.0,0.0,4.7318,4.7359,4.7854,4.8618,4.8878,4.9398,5.0069,5.0688,5.0859,5.0944,5.145,5.1169,5.0466,4.9643,4.8795,4.7981,4.7713,4.7015,4.6263,4.5665,4.5475,4.5316,4.4719,4.4397,4.4203,4.3928,4.3203,4.2453,4.2148,4.1415,4.045,3.9278,3.8786,3.8027,3.6207,3.4673,3.3338,3.2262,3.1126,3.0309,2.9984,3.0174,3.0458,3.0809,3.1772,3.2583,3.314,3.3046,3.3018,3.3133,3.4104,3.4778,3.4983,3.6383,3.7504,3.82,3.8671,3.9417,4.0379,4.0499,4.1004,4.1907,4.1031,4.1425,4.2772,4.1972,4.2178,4.3137,4.2822,4.2696,4.2696,4.2402,4.2529,4.2759,4.2529,4.2593,4.2759,4.2402,4.2212,4.2084,5.1014,5.1159,5.1366,5.1742,5.2594,5.3343,5.3642,5.4601,5.4749,5.3396,5.417,5.4753,5.4596,5.4596,5.4626,5.4596,5.4694,5.4973,5.5453,5.514,5.485,5.473,5.3871,5.3084,5.2337,5.178,5.0976,4.9931,4.9762,4.8857,4.7289,4.7411,4.7253,4.6836,0.0,4.7546,4.7857,4.7763,4.8434,4.9511,4.9667,5.0231,5.0944,5.1253,5.1337,5.1393,5.1674,5.159,5.1253,5.0474,4.9451,4.8412,4.8452,4.7665,4.6692,4.6562,4.6292,4.5912,4.5162,4.5051,4.499,4.4393,4.3769,4.3221,4.289,4.2261,4.1505,4.0768,4.0312,3.9305,3.6997,3.5087,3.3522,3.2519,3.1449,3.0642,3.0455,3.0566,3.0803,3.102,3.1796,3.2536,3.3097,3.3191,3.3154,3.2896,3.3734,3.4334,3.4548,3.5966,3.704,3.7593,3.8383,3.92,3.997,4.0258,4.0787,4.1557,4.129,4.1662,4.2637,4.232,4.2621,4.3326,4.3137,4.3075,4.3075,4.3075,4.32,4.3326,4.2949,4.3012,4.3263,4.2759,4.2633,4.2759,5.3011,5.327,5.3516,5.3304,5.4104,5.4661,5.4352,5.5601,5.6242,5.5224,5.539,5.547,5.5086,5.5329,5.5365,5.4982,5.4975,5.5248,5.5872,5.5594,5.5317,5.5113,5.469,5.3903,5.2802,5.2318,5.1606,5.0567,5.023,4.9225,4.7643,4.7727,4.76,4.7195,4.7458,4.7829,4.8296,4.838,4.9211,5.0578,5.0578,5.1123,5.1896,5.1841,5.1787,5.1815,5.1927,5.1899,5.1731,5.1393,5.0194,4.8844,4.8998,4.8206,4.7227,4.7375,4.7078,4.6616,4.5867,4.5703,4.5511,4.4762,4.43,4.3936,4.3416,4.2985,4.2547,4.1972,4.1333,4.0112,3.7588,3.5885,3.438,3.3089,3.2149,3.1412,3.0939,3.1217,3.1522,3.146,3.2129,3.2772,3.3255,3.3462,3.3341,3.2896,3.3608,3.4135,3.4308,3.5746,3.6723,3.7115,3.819,3.9056,3.9695,4.0194,4.0667,4.1196,4.1372,4.1804,4.2424,4.2587,4.2924,4.3514,4.3451,4.3389,4.3326,4.3553,4.374,4.374,4.3451,4.3514,4.374,4.3137,4.3075,4.32,5.4375,5.4037,5.4083,5.522,5.5337,5.5585,5.6464,5.6577,5.6444,5.6128,5.6355,5.6769,5.7304,5.6675,5.6426,5.6957,5.616,5.5902,5.6555,5.6281,5.6077,5.6077,5.5448,5.479,5.4032,5.3394,5.2312,5.0775,5.1548,5.0534,4.7867,4.9083,4.9228,4.8518,4.8706,4.8909,4.9297,4.9303,5.0016,5.1229,5.1229,5.1573,5.2113,5.1896,5.1787,5.1871,5.2433,5.2264,5.1871,5.2377,5.112,4.9401,4.919,4.8641,4.7959,4.7537,4.7537,4.7642,4.7241,4.6569,4.5897,4.5538,4.5245,4.4875,4.4614,4.4266,4.3861,4.3184,4.1911,4.0404,3.8781,3.796,3.6757,3.441,3.3707,3.2756,3.0738,3.2042,3.296,3.2342,3.3424,3.435,3.4667,3.4339,3.39,3.3394,3.4136,3.4474,3.4072,3.599,3.7043,3.6838,3.8104,3.9165,3.9946,4.0226,4.0667,4.1172,4.1244,4.1774,4.276,4.2748,4.3324,4.4161,4.3888,4.3576,4.3326,4.3326,4.3514,4.374,4.3451,4.3514,4.374,4.3389,4.3263,4.3326,5.6772,5.6634,5.6681,5.695,5.7236,5.7499,5.777,5.8044,5.8316,5.8481,5.7918,5.7451,5.7119,5.7102,5.7024,5.6745,5.6456,5.6585,5.7292,5.6937,5.6683,5.6527,5.6055,5.5296,5.4256,5.3983,5.3435,5.2575,5.2312,5.1421,4.9895,4.9905,4.9639,4.9198,4.9687,5.0096,5.0356,5.0427,5.0961,5.1761,5.1632,5.179,5.2167,5.1896,5.1787,5.1815,5.2068,5.1983,5.1843,5.2068,5.1367,5.0281,4.9959,4.9186,4.8304,4.7777,4.7724,4.7642,4.7022,4.6863,4.6756,4.6265,4.5624,4.5144,4.5237,4.4722,4.4099,4.3873,4.294,4.1761,4.0277,3.9388,3.8311,3.6674,3.5392,3.414,3.2836,3.3368,3.3741,3.3356,3.438,3.5168,3.5319,3.5358,3.5244,3.4881,3.4956,3.4711,3.4023,3.5868,3.6917,3.6816,3.808,3.9165,4.0001,4.0282,4.0667,4.1196,4.1822,4.241,4.2843,4.3433,4.3938,4.4285,4.4161,4.4013,4.3888,4.3888,4.395,4.4075,4.3764,4.3826,4.4075,4.3701,4.3764,4.3936,5.8368,5.8466,5.8497,5.8153,5.8639,5.8969,5.8614,5.9143,5.9597,5.9713,5.8924,5.8178,5.7594,5.7898,5.7827,5.7167,5.709,5.7428,5.8083,5.7647,5.7288,5.713,5.6691,5.5952,5.4886,5.4619,5.4301,5.3763,5.2957,5.1989,5.1058,5.0292,4.9897,4.9917,5.0476,5.1008,5.1487,5.1599,5.1891,5.2363,5.2182,5.2227,5.2329,5.2004,5.1841,5.1843,5.2208,5.2096,5.1843,5.2208,5.1815,5.1058,5.0567,4.9786,4.8897,4.837,4.8126,4.7853,4.7099,4.7075,4.7157,4.6643,4.5973,4.5572,4.5676,4.5164,4.457,4.4402,4.3698,4.2804,4.1691,4.0714,3.968,3.8608,3.7359,3.6143,3.5076,3.5116,3.5237,3.5151,3.5763,3.6253,3.6442,3.649,3.6305,3.5815,3.5805,3.5404,3.4499,3.6088,3.7017,3.6917,3.8461,3.9552,4.0135,4.0539,4.0998,4.1586,4.2335,4.2866,4.318,4.4061,4.447,4.4409,4.4347,4.4285,4.4285,4.4285,4.4285,4.4285,4.4013,4.4075,4.4285,4.4013,4.4075,4.4357,5.8812,5.8812,5.8812,5.8762,5.9316,5.9574,5.9006,5.953,5.9773,5.9207,5.9099,5.9177,5.9446,5.9231,5.9099,5.9069,5.8471,5.8381,5.9039,5.8471,5.8112,5.8058,5.7453,5.6795,5.6166,5.5508,5.4749,5.3763,5.3405,5.239,5.0793,5.0169,5.0228,5.0775,5.0925,5.1604,5.2594,5.2594,5.2764,5.3107,5.3107,5.2947,5.268,5.2329,5.2004,5.1955,5.3192,5.2854,5.1983,5.322,5.2826,5.162,5.076,5.0253,4.9827,4.9243,4.8828,4.8461,4.7936,4.7339,4.6848,4.6587,4.6482,4.6403,4.606,4.5786,4.5397,4.4827,4.3912,4.3115,4.2895,4.2031,4.0968,3.9792,3.9645,3.8929,3.6864,3.733,3.7903,3.8044,3.7698,3.7763,3.8505,3.7811,3.6875,3.5885,3.6654,3.6684,3.5533,3.6846,3.7493,3.7168,3.9357,4.0488,4.0488,4.124,4.1849,4.2384,4.2491,4.3051,4.4014,4.4573,4.4779,4.4779,4.447,4.4285,4.4285,4.4285,4.4285,4.4285,4.4285,4.4285,4.4285,4.4285,4.4285,4.4357,6.0371,6.0321,6.0297,6.0442,6.0588,6.064,6.0248,6.0411,6.0377,6.0061,5.9827,5.9667,5.9529,5.9261,5.9099,5.9099,5.8919,5.889,5.9099,5.8919,5.859,5.8141,5.7453,5.6795,5.6248,5.5538,5.5039,5.4749,5.4172,5.3365,5.2449,5.224,5.227,5.2431,5.2744,5.2977,5.3165,5.337,5.3431,5.3372,5.316,5.2947,5.268,5.2358,5.2004,5.1899,5.2714,5.2742,5.2489,5.2883,5.2742,5.2321,5.1593,5.1138,5.0706,4.9914,4.9581,4.9361,4.8807,4.8403,4.8052,4.773,4.719,4.6786,4.6946,4.624,4.5533,4.5343,4.4893,4.4469,4.442,4.3698,4.297,4.2416,4.1477,4.0393,3.9288,3.9634,3.9887,3.9617,3.9987,4.0259,4.0321,3.9911,3.9196,3.8129,3.8548,3.8031,3.6204,3.7246,3.8185,3.8633,3.9833,4.0769,4.128,4.1717,4.2185,4.2723,4.3091,4.3731,4.4573,4.4682,4.4656,4.447,4.4347,4.4285,4.4285,4.4285,4.4285,4.4285,4.4285,4.4285,4.4285,4.4285,4.4285,4.4357,6.1554,6.1357,6.1265,6.1348,6.1155,6.0949,6.069,6.0534,6.0377,6.0114,5.9827,5.956,5.9369,5.9207,5.9099,5.9099,5.9099,5.9045,5.8936,5.9045,5.8865,5.8369,5.755,5.6915,5.6526,5.5658,5.5179,5.5179,5.4521,5.3862,5.3174,5.3174,5.3324,5.3593,5.3734,5.3861,5.3926,5.3899,5.3815,5.3605,5.3266,5.2947,5.268,5.2358,5.2146,5.2208,5.2854,5.3079,5.3107,5.3332,5.3107,5.263,5.2374,5.211,5.1648,5.0653,5.0234,4.9928,4.9153,4.8864,4.8733,4.8164,4.7731,4.7406,4.7405,4.6538,4.5809,4.5912,4.5605,4.5298,4.5298,4.4727,4.4104,4.376,4.272,4.1801,4.1196,4.1416,4.1598,4.137,4.1746,4.192,4.1734,4.1218,4.0502,3.9661,3.9786,3.9236,3.765,3.8291,3.8765,3.8935,4.028,4.1325,4.2016,4.2418,4.2947,4.3712,4.423,4.4727,4.5147,4.5025,4.4779,4.447,4.4347,4.4285,4.4285,4.4409,4.4409,4.4285,4.4409,4.4409,4.4285,4.4285,4.4285,4.4357,6.2477,6.2079,6.1645,6.1613,6.1155,6.0742,6.0481,6.0197,5.9933,5.9583,5.9315,5.9153,5.9099,5.9099,5.9099,5.9099,5.9099,5.8991,5.8748,5.8936,5.8991,5.8694,5.7653,5.7094,5.7146,5.5888,5.5229,5.5229,5.4581,5.3952,5.3324,5.3324,5.3653,5.4281,5.4002,5.4259,5.4751,5.4178,5.3919,5.3867,5.3319,5.2947,5.268,5.2386,5.2482,5.2798,5.3501,5.3726,5.381,5.4344,5.3754,5.2826,5.3046,5.2949,5.2459,5.1381,5.0759,5.0218,4.9109,4.8992,4.8974,4.8104,4.8001,4.8056,4.7541,4.6704,4.6139,4.6484,4.6048,4.5641,4.5641,4.5153,4.4633,4.4036,4.3585,4.3129,4.2575,4.283,4.3064,4.3166,4.3083,4.2998,4.2951,4.1953,4.1132,4.0615,4.0566,4.0317,3.9746,3.9823,3.9524,3.8689,4.0734,4.212,4.2725,4.3216,4.4012,4.5022,4.5544,4.5757,4.5757,4.5392,4.5086,4.4779,4.447,4.4347,4.4347,4.4717,4.4656,4.4347,4.4656,4.4594,4.4285,4.4347,4.4347,4.4357,6.3079,6.2833,6.2422,6.1452,6.1206,6.1,6.0742,6.0638,6.046,5.9933,5.9827,5.9613,5.9153,5.9099,5.9099,5.9099,5.9099,5.8991,5.8748,5.8936,5.8991,5.8694,5.7653,5.7198,5.7385,5.6143,5.5481,5.5481,5.513,5.488,5.473,5.473,5.479,5.497,5.4919,5.4827,5.4803,5.4385,5.4097,5.3867,5.3553,5.3107,5.2737,5.3086,5.3015,5.2854,5.3978,5.4372,5.4316,5.4007,5.3697,5.3332,5.265,5.2579,5.2705,5.2615,5.1995,5.1356,5.111,5.0403,4.9637,4.8954,4.8192,4.7649,4.7975,4.7162,4.6538,4.7052,4.6725,4.6265,4.6265,4.5904,4.5543,4.5458,4.5111,4.4633,4.3861,4.4526,4.4782,4.4001,4.4456,4.4731,4.4562,4.3916,4.3172,4.2457,4.2515,4.2034,4.0639,4.1619,4.1853,4.1016,4.2312,4.33,4.3897,4.4166,4.4678,4.5379,4.5689,4.5696,4.5392,4.5086,4.4717,4.4409,4.4594,4.4656,4.4717,4.5025,4.4963,4.4717,4.4779,4.4594,4.4347,4.4594,4.4532,4.4371,6.335,6.2801,6.2234,6.1523,6.1155,6.0949,6.0794,6.069,6.0429,6.0039,5.988,5.9613,5.9153,5.9099,5.9099,5.9099,5.9099,5.8991,5.8748,5.8936,5.9045,5.8882,5.8195,5.7767,5.7725,5.6748,5.6033,5.5581,5.5431,5.533,5.5179,5.5179,5.5179,5.5179,5.5179,5.5128,5.4926,5.4671,5.4385,5.4045,5.3658,5.3266,5.2869,5.2944,5.2984,5.2993,5.3557,5.3922,5.4119,5.3782,5.3473,5.3163,5.2763,5.2693,5.2734,5.3001,5.2636,5.206,5.1689,5.1012,5.0244,4.9633,4.8843,4.8246,4.8517,4.7948,4.7296,4.7404,4.716,4.6861,4.6562,4.6585,4.6392,4.5847,4.5813,4.5586,4.4738,4.5371,4.5608,4.4853,4.5321,4.5568,4.5243,4.4743,4.4153,4.3573,4.3546,4.3008,4.1724,4.3023,4.3358,4.2432,4.3194,4.4026,4.5005,4.5238,4.5547,4.5874,4.5789,4.5635,4.527,4.4963,4.4717,4.4532,4.4717,4.4902,4.5025,4.5392,4.5331,4.5025,4.5208,4.5025,4.4779,4.4779,4.4779,4.4717,6.3413,6.2461,6.1656,6.1512,6.1103,6.0794,6.0742,6.0534,6.0272,5.9933,5.972,5.9476,5.9207,5.9153,5.9153,5.9153,5.9153,5.9045,5.8803,5.8991,5.9153,5.9153,5.873,5.8382,5.8085,5.7324,5.6505,5.5681,5.5631,5.5481,5.5179,5.5179,5.5179,5.5179,5.5179,5.5179,5.5179,5.4905,5.4619,5.4304,5.3762,5.3424,5.3136,5.2658,5.2757,5.3158,5.3048,5.3304,5.3782,5.367,5.3331,5.2852,5.3126,5.3001,5.2787,5.3054,5.2947,5.2512,5.1651,5.1092,5.0573,5.0096,4.9494,4.8978,4.9223,4.8679,4.8138,4.7703,4.7594,4.735,4.6779,4.7078,4.7051,4.5912,4.6157,4.6206,4.5294,4.57,4.5888,4.5458,4.5801,4.5915,4.5568,4.5107,4.4702,4.4423,4.4113,4.3675,4.3073,4.4168,4.4505,4.373,4.4002,4.475,4.5927,4.6194,4.624,4.624,4.5878,4.5574,4.5208,4.4902,4.4779,4.4779,4.484,4.5086,4.5392,4.5757,4.5696,4.5392,4.5696,4.5574,4.527,4.4963,4.5086,4.5208,6.3453,6.2695,6.1888,6.1041,6.0845,6.069,6.0481,6.0429,6.0219,5.9636,5.9773,5.9773,5.9476,5.9422,5.9422,5.9422,5.9422,5.9315,5.9045,5.9315,5.9422,5.9422,5.8563,5.8176,5.8339,5.7117,5.6317,5.5929,5.5731,5.5481,5.5179,5.5179,5.5179,5.5179,5.5179,5.5179,5.5179,5.4905,5.4803,5.4671,5.4075,5.3658,5.3482,5.3683,5.3509,5.327,5.4002,5.4146,5.3979,5.3717,5.3516,5.34,5.321,5.3087,5.3107,5.3372,5.3107,5.2598,5.2162,5.0957,4.983,4.993,4.9196,4.8598,4.9657,4.8978,4.83,4.8762,4.8463,4.792,4.7377,4.735,4.7187,4.6455,4.6428,4.629,4.5584,4.6019,4.6206,4.5608,4.607,4.6397,4.6367,4.5774,4.5356,4.5395,4.4863,4.4705,4.5111,4.532,4.5842,4.6616,4.6206,4.6068,4.6235,4.6276,4.618,4.5878,4.5514,4.5208,4.484,4.4532,4.4532,4.484,4.5086,4.5392,4.5757,4.6059,4.5999,4.5757,4.5757,4.5574,4.527,4.527,4.527,4.527,6.269,6.1958,6.1319,6.0907,6.0794,6.069,6.0429,6.0377,6.0167,5.9583,5.9636,5.9613,5.9315,5.9261,5.9261,5.9261,5.9422,5.9379,5.9017,5.9455,5.9645,5.9439,5.8988,5.8706,5.8642,5.7291,5.6605,5.6575,5.6061,5.5581,5.5179,5.5179,5.5179,5.5179,5.5179,5.5179,5.5179,5.5057,5.4955,5.4803,5.4517,5.4178,5.3948,5.3767,5.3592,5.3382,5.3477,5.3428,5.3345,5.3169,5.3109,5.3106,5.2927,5.2947,5.3107,5.3266,5.3001,5.2573,5.1924,5.1044,5.0271,5.0293,4.9715,4.9331,4.9874,4.9576,4.9196,4.9142,4.8869,4.849,4.7948,4.8083,4.811,4.7513,4.7432,4.7323,4.7052,4.6971,4.6971,4.7025,4.7269,4.7378,4.7217,4.6894,4.6625,4.6296,4.603,4.5945,4.6055,4.6369,4.673,4.7252,4.6985,4.6739,4.6566,4.6386,4.612,4.5817,4.5453,4.5147,4.4779,4.447,4.4594,4.5086,4.5208,4.5574,4.6059,4.624,4.618,4.6059,4.6059,4.5939,4.5817,4.5453,4.5514,4.5757,6.1985,6.1255,6.0794,6.0794,6.0794,6.069,6.0324,6.0272,6.0114,5.9583,5.9583,5.9529,5.9315,5.9345,5.9345,5.9345,5.9476,5.9471,5.9036,5.9627,5.9784,5.9287,5.9103,5.8868,5.8547,5.7426,5.6856,5.7031,5.6464,5.5882,5.5179,5.5359,5.5329,5.5179,5.5179,5.5179,5.5179,5.5179,5.5108,5.4905,5.4854,5.4671,5.4385,5.3815,5.3553,5.3477,5.3054,5.2841,5.2787,5.2841,5.2894,5.2894,5.2894,5.3054,5.316,5.316,5.2947,5.2519,5.1706,5.1211,5.085,5.0543,5.0263,5.001,5.001,5.001,4.9874,4.9413,4.9331,4.9142,4.849,4.8761,4.8869,4.83,4.83,4.8354,4.8219,4.7975,4.7893,4.8164,4.8192,4.8082,4.7808,4.7753,4.7478,4.6951,4.6866,4.675,4.6656,4.71,4.733,4.7519,4.7412,4.7172,4.6806,4.6541,4.618,4.5817,4.5453,4.5147,4.4779,4.447,4.4656,4.5331,4.5331,4.5696,4.6301,4.6301,4.6301,4.6301,4.6301,4.6301,4.624,4.5574,4.5696,4.6059,6.1933,6.1255,6.0794,6.0794,6.0794,6.0669,6.0092,6.0016,5.988,5.9529,5.9773,5.9963,5.9963,5.9933,5.9933,5.9933,5.9933,5.9818,5.9378,5.9635,5.9512,5.8885,5.827,5.79,5.7888,5.7179,5.6856,5.7031,5.6889,5.6254,5.5209,5.5807,5.5777,5.5179,5.5179,5.5179,5.5179,5.5179,5.5179,5.5128,5.4905,5.4803,5.47,5.4075,5.371,5.35,5.3477,5.3266,5.3107,5.3372,5.3477,5.3477,5.3477,5.3448,5.3477,5.3477,5.3107,5.2573,5.195,5.1348,5.085,5.0543,5.0263,5.001,5.001,5.001,5.001,4.9956,4.9956,4.9766,4.9169,4.9032,4.8869,4.83,4.8652,4.8815,4.8273,4.8625,4.8761,4.8246,4.8192,4.8082,4.7808,4.7588,4.7256,4.6922,4.6698,4.6765,4.7231,4.7252,4.7571,4.812,4.7854,4.7409,4.6806,4.6806,4.6446,4.5817,4.5453,4.5147,4.4779,4.447,4.4656,4.5331,4.5331,4.5696,4.6301,4.6301,4.6301,4.6301,4.6301,4.6301,4.624,4.5574,4.5514,4.5757,6.1369,6.1134,6.1,6.0845,6.0638,6.0429,6.0069,5.9827,5.9583,5.9261,5.9369,5.9452,5.9452,5.9452,5.9506,5.9667,5.9433,5.9331,5.9399,5.9226,5.9039,5.8793,5.8596,5.8577,5.9008,5.8011,5.7568,5.7892,5.7233,5.6597,5.6062,5.6149,5.6047,5.5777,5.5388,5.5179,5.5179,5.5179,5.5179,5.5179,5.5108,5.5057,5.4976,5.4619,5.4282,5.3942,5.3815,5.3553,5.3372,5.3477,5.35,5.35,5.35,5.35,5.35,5.35,5.3266,5.2841,5.2465,5.1623,5.0906,5.0739,5.0348,5.001,5.001,5.015,5.0263,5.001,5.015,5.0181,4.9711,4.9684,4.9603,4.9386,4.9223,4.9169,4.9331,4.9223,4.9169,4.9331,4.9164,4.8967,4.8629,4.8346,4.8061,4.7691,4.7602,4.7623,4.7858,4.7858,4.7963,4.8172,4.8055,4.7703,4.7053,4.69,4.6421,4.5817,4.5453,4.5208,4.5086,4.4779,4.4963,4.5635,4.5635,4.5878,4.6301,4.6301,4.6301,4.6301,4.6301,4.6301,4.624,4.5757,4.5817,4.5999,6.0739,6.0742,6.0845,6.0617,6.0481,6.0272,5.988,5.9636,5.9422,5.9261,5.9207,5.9207,5.9207,5.9315,5.9452,5.9636,5.9478,5.9375,5.9502,5.9246,5.9008,5.8793,5.8793,5.9101,5.9778,5.8454,5.8016,5.841,5.7719,5.7112,5.6626,5.6844,5.6689,5.6188,5.5718,5.5388,5.5179,5.5179,5.5179,5.5179,5.5179,5.5179,5.5179,5.4905,5.4619,5.4252,5.3993,5.371,5.35,5.35,5.35,5.35,5.35,5.35,5.35,5.35,5.3319,5.3054,5.2787,5.195,5.1128,5.0962,5.046,5.001,5.001,5.0263,5.0431,5.0206,5.0319,5.0459,5.0206,5.0066,5.001,5.001,4.982,4.9766,4.9983,4.982,4.9766,4.9983,4.9727,4.9522,4.9365,4.8943,4.8626,4.8518,4.8303,4.8172,4.8172,4.8172,4.8172,4.8172,4.8172,4.7938,4.7383,4.7053,4.6661,4.612,4.5696,4.5453,4.5453,4.5086,4.527,4.5817,4.5817,4.5999,4.6301,4.6301,4.6301,4.6301,4.6301,4.6301,4.624,4.5939,4.5939,4.6059,6.0191,6.0197,6.0355,6.0069,6.025,6.0219,5.9583,5.9529,5.9529,5.9529,5.9529,5.9529,5.9529,5.9773,6.0016,6.0016,6.025,6.0258,5.9839,5.9778,5.9501,5.8824,5.8793,5.9101,5.9778,5.8485,5.8016,5.844,5.841,5.777,5.6657,5.7962,5.7767,5.6218,5.6218,5.5807,5.5179,5.5179,5.5179,5.5179,5.5179,5.5179,5.5179,5.4905,5.4619,5.4252,5.3993,5.371,5.35,5.35,5.35,5.35,5.35,5.35,5.35,5.35,5.3319,5.3054,5.2787,5.2221,5.1677,5.1072,5.046,5.001,5.001,5.0263,5.0515,5.0515,5.0515,5.0515,5.0515,5.0206,5.001,5.001,5.0498,5.0688,5.0091,5.0525,5.0661,5.0091,4.9727,4.9683,4.9983,4.9181,4.8811,4.9094,4.8512,4.8172,4.8172,4.8172,4.8172,4.8172,4.8172,4.8055,4.7703,4.7383,4.7053,4.6806,4.612,4.5817,4.5757,4.5453,4.5514,4.5817,4.5817,4.5999,4.6301,4.6301,4.6301,4.6301,4.6301,4.6301,4.624,4.5939,4.5817,4.5817,6.0191,6.0197,6.0355,6.0069,6.0039,5.9986,5.9583,5.9529,5.9422,5.9261,5.9207,5.9207,5.9207,5.9315,5.956,5.9963,5.9583,5.9478,5.9809,6.024,6.0393,6.0209,6.0178,6.0301,6.0486,5.9162,5.8824,5.9369,5.8705,5.8461,5.8583,5.8594,5.8061,5.7136,5.6479,5.5807,5.5179,5.5179,5.5179,5.5179,5.5179,5.5179,5.5179,5.5078,5.4875,5.4619,5.4252,5.3993,5.3762,5.3553,5.35,5.35,5.35,5.35,5.35,5.35,5.3477,5.3319,5.3054,5.2573,5.1896,5.1128,5.0628,5.0319,5.0319,5.0599,5.0795,5.0795,5.0795,5.0711,5.0543,5.0206,5.001,5.001,5.0146,5.0227,5.0037,5.0146,5.02,5.0037,4.9556,4.9293,4.9365,4.8769,4.8393,4.8433,4.8536,4.8431,4.8172,4.8431,4.8431,4.8172,4.8172,4.8114,4.8055,4.7501,4.7053,4.6806,4.612,4.5939,4.612,4.5817,4.5817,4.612,4.612,4.618,4.6301,4.6301,4.6301,4.6301,4.6301,4.6301,4.6301,4.618,4.612,4.612,5.9841,5.9849,5.9955,5.972,5.972,5.972,5.9529,5.9422,5.9315,5.9261,5.9153,5.9099,5.9099,5.9207,5.9452,5.9963,5.9801,5.9817,6.0178,6.0578,6.0742,6.0638,6.0638,6.0638,6.0638,5.9461,5.9124,5.9625,5.9073,5.8971,5.9399,5.9205,5.858,5.7592,5.6861,5.6047,5.5179,5.5179,5.5179,5.5179,5.5179,5.5179,5.5179,5.5179,5.5057,5.4803,5.4539,5.4333,5.3993,5.3762,5.3605,5.35,5.35,5.35,5.35,5.35,5.35,5.3477,5.316,5.2734,5.2221,5.1458,5.0962,5.0655,5.0655,5.0878,5.11,5.11,5.0962,5.085,5.0711,5.0483,5.0363,5.0363,5.0476,5.0585,5.0688,5.0449,5.0232,5.0335,4.9603,4.9205,4.9445,4.898,4.8852,4.9265,4.9112,4.8948,4.8746,4.8595,4.8536,4.8538,4.8538,4.8643,4.8852,4.8143,4.7521,4.6959,4.6421,4.624,4.6301,4.6059,4.612,4.6301,4.6301,4.6301,4.6301,4.6301,4.6301,4.6301,4.6301,4.6301,4.6301,4.6301,4.6301,4.6291,5.9303,5.9315,5.9369,5.9153,5.9315,5.9476,5.9476,5.9261,5.9153,5.9422,5.9207,5.9045,5.9045,5.9315,5.9636,5.9963,6.0512,6.0794,6.0794,6.0794,6.069,6.0429,6.0377,6.0324,6.0324,5.9392,5.9088,5.946,5.9399,5.945,5.9542,5.9871,5.9183,5.7622,5.7281,5.6428,5.5179,5.5179,5.5179,5.5179,5.5179,5.5179,5.5179,5.5179,5.5057,5.4854,5.4803,5.4619,5.4304,5.3993,5.3762,5.35,5.35,5.35,5.35,5.35,5.35,5.3477,5.3213,5.2947,5.2627,5.2004,5.1458,5.1017,5.0906,5.1155,5.1321,5.1376,5.11,5.0934,5.1017,5.098,5.0963,5.1075,5.1359,5.1607,5.1805,5.1192,5.0758,5.0963,4.9898,4.9418,5.0009,4.9743,4.9896,5.075,5.0088,4.9593,4.9508,4.8825,4.8649,4.9139,4.9113,4.9348,4.9871,4.8997,4.8128,4.7342,4.6985,4.6661,4.6361,4.6361,4.6301,4.6301,4.6301,4.6301,4.6301,4.6301,4.6301,4.6301,4.6301,4.6301,4.6301,4.6301,4.6351,4.6451,5.9338,5.9153,5.9153,5.9099,5.9315,5.9422,5.9207,5.9153,5.9045,5.8882,5.8828,5.8803,5.8803,5.9207,5.9636,5.9963,6.0512,6.0794,6.0794,6.0794,6.069,6.0429,6.0197,5.9986,5.969,5.9183,5.9301,6.0163,5.9643,5.9798,6.0475,6.0368,5.9466,5.7901,5.7592,5.6612,5.5179,5.5179,5.5179,5.5179,5.5179,5.5179,5.5179,5.5179,5.5128,5.5108,5.4905,5.4751,5.4619,5.4075,5.3867,5.3762,5.3553,5.35,5.35,5.35,5.35,5.3477,5.3424,5.3213,5.2947,5.2573,5.2221,5.1732,5.1072,5.0962,5.1072,5.1321,5.0934,5.0848,5.1849,5.1649,5.1528,5.2308,5.2449,5.2446,5.2209,5.2017,5.1823,5.1611,5.0515,4.9961,5.0354,5.0121,4.9972,5.0164,5.0425,5.028,4.9561,4.9792,4.9823,4.9714,4.9296,4.9348,4.9871,4.8819,4.8302,4.8257,4.7496,4.6934,4.6686,4.6686,4.6566,4.6301,4.6301,4.6301,4.6301,4.6301,4.6301,4.6301,4.6301,4.6301,4.6301,4.6301,4.6577,4.7029,5.9368,5.9099,5.9099,5.9099,5.9099,5.9099,5.9099,5.8882,5.8664,5.8694,5.8694,5.8748,5.8882,5.9261,5.969,6.0144,6.0534,6.0794,6.0794,6.0794,6.069,6.0429,6.0302,6.0039,5.9773,5.9516,5.9674,6.0197,5.9832,6.0041,6.0794,6.0534,5.9622,5.8187,5.7901,5.7151,5.6033,5.5732,5.5762,5.6033,5.5702,5.5481,5.5381,5.5381,5.528,5.5239,5.5385,5.5559,5.5553,5.4672,5.4436,5.4485,5.385,5.371,5.3658,5.3553,5.35,5.35,5.35,5.3319,5.3054,5.2947,5.2801,5.2399,5.1377,5.1155,5.1294,5.1711,5.1238,5.1098,5.2461,5.2316,5.2281,5.3088,5.3345,5.3398,5.341,5.2767,5.2318,5.2443,5.1132,5.0419,5.1067,5.1094,5.1234,5.1707,5.1615,5.1329,5.0857,5.0678,5.0631,5.0532,5.0477,5.0582,5.0953,5.0086,4.9737,4.9871,4.8532,4.7641,4.7186,4.7186,4.6854,4.6301,4.6301,4.6301,4.6301,4.6301,4.6301,4.6301,4.6301,4.6301,4.6301,4.6301,4.6652,4.7143,5.9368,5.9045,5.9045,5.9045,5.8912,5.8773,5.8936,5.8525,5.825,5.85,5.8555,5.8719,5.8991,5.9422,5.9902,6.0429,6.069,6.0794,6.0794,6.0794,6.0638,6.0324,6.0324,6.0197,5.9827,5.9827,5.9933,6.0039,6.0039,6.0241,6.0609,6.0402,5.9542,5.8206,5.7953,5.7497,5.6869,5.6274,5.6425,5.6971,5.6425,5.6063,5.5913,5.5913,5.5812,5.57,5.6239,5.6571,5.6578,5.5486,5.5242,5.5217,5.4345,5.3977,5.3867,5.3553,5.35,5.35,5.35,5.3319,5.3189,5.3251,5.3306,5.31,5.2016,5.1766,5.185,5.2351,5.1849,5.1737,5.3216,5.3212,5.3234,5.3988,5.4216,5.441,5.4643,5.3461,5.276,5.3221,5.1722,5.105,5.1796,5.2185,5.2674,5.3402,5.2803,5.2413,5.2305,5.1603,5.1329,5.1504,5.1694,5.1934,5.2121,5.1461,5.1223,5.132,4.9724,4.8636,4.7902,4.7841,4.7379,4.6512,4.6451,4.6401,4.6301,4.6301,4.6301,4.6301,4.6301,4.6301,4.6326,4.6426,4.6753,4.7143,5.9314,5.8882,5.8719,5.8719,5.8882,5.8882,5.836,5.825,5.814,5.7948,5.8114,5.839,5.8748,5.969,6.0429,6.069,6.0794,6.0794,6.0794,6.0794,6.0586,6.0039,6.0039,5.9773,5.9207,5.9207,5.9583,6.0324,6.0324,6.0206,5.9932,5.9932,5.9041,5.7503,5.7253,5.6971,5.6626,5.6333,5.656,5.7049,5.6989,5.7114,5.7351,5.7351,5.7299,5.7299,5.7389,5.7243,5.696,5.6601,5.611,5.5538,5.4978,5.4358,5.3867,5.3553,5.35,5.35,5.35,5.3448,5.354,5.3906,5.3946,5.3846,5.3472,5.3134,5.2992,5.3076,5.2992,5.3302,5.4516,5.4543,5.4653,5.5503,5.55,5.5236,5.4967,5.456,5.4061,5.3577,5.2641,5.2017,5.2218,5.2485,5.2691,5.2832,5.2937,5.2756,5.2218,5.2318,5.2402,5.242,5.2029,5.1934,5.2121,5.1065,5.0891,5.1528,5.0864,5.0019,4.9161,4.8855,4.8243,4.743,4.7126,4.6753,4.6301,4.6301,4.6301,4.6301,4.6301,4.6301,4.6376,4.6853,4.7079,4.7143,5.8847,5.85,5.8445,5.8445,5.839,5.828,5.8003,5.8003,5.7948,5.7836,5.8335,5.8828,5.9099,6.0008,6.069,6.0794,6.0794,6.0794,6.0794,6.0794,6.069,6.046,6.046,6.0324,6.0061,5.9902,6.0114,6.0638,5.9906,5.957,5.9574,5.9358,5.86,5.7431,5.7431,5.7595,5.78,5.7283,5.7659,5.8571,5.8052,5.7849,5.7828,5.7622,5.7437,5.7333,5.7333,5.7708,5.8058,5.7047,5.6869,5.6809,5.5542,5.4943,5.4544,5.3931,5.3605,5.35,5.35,5.3791,5.4086,5.4269,5.4714,5.4984,5.451,5.4601,5.4539,5.3858,5.3438,5.3637,5.5021,5.4937,5.4851,5.5586,5.5613,5.5437,5.532,5.4849,5.4194,5.3166,5.2985,5.2823,5.2459,5.291,5.3212,5.3212,5.3335,5.3241,5.3031,5.3066,5.3105,5.2861,5.2803,5.2742,5.2677,5.217,5.1987,5.2156,5.1733,5.0943,4.9878,4.9754,4.9076,4.8049,4.7622,4.7162,4.6753,4.6426,4.6301,4.6301,4.6301,4.6301,4.6351,4.6577,4.6677,4.6753]}]]